[[{"header":{"parameterUnit":"m.s-1","parameterCategory":1,"la1":30.6,"la2":29.2853,"lo1":-89.7004,"lo2":-87.6739,"dy":0.0162,"dx":0.0183,"nx":112,"ny":82,"refTime":"2024-06-06T18:00:00:Z","depth":0,"parameterNumber":2,"parameterNumberName":"U-component_of_WINDS"},"data":[0.0,0.0,0.0,0.0,0.0,0.0,0.0,0.0,0.0,0.0,0.0,0.0,0.0,0.0,0.0,0.0,0.0,0.0,0.0,0.0,0.0,0.0,0.0,0.0,0.0,0.0,0.0,0.0,0.0,0.0,0.0,0.0,0.0,0.0,0.0,0.0,0.0,0.0,0.0,0.0,0.0,0.0,0.0,0.0,0.0,0.0,0.0,0.0,0.0,0.0,0.0,0.0,0.0,0.0,0.0,0.0,0.0,0.0,0.0,0.0,0.0,0.0,0.0,0.0,0.0,0.0,0.0,0.0,0.0,0.0,0.0,0.0,0.0,0.0,0.0,0.0,0.0,0.0,0.0,0.0,0.0,0.0,0.0,0.0,0.0,0.0,0.0,0.0,0.0,0.0,-2.8906,-2.9914,-3.1849,-3.2853,-3.2351,-3.2347,-3.2241,-3.1907,0.0,0.0,0.0,0.0,0.0,0.0,0.0,0.0,0.0,0.0,0.0,0.0,0.0,0.0,0.0,0.0,0.0,0.0,0.0,0.0,0.0,0.0,0.0,0.0,0.0,0.0,0.0,0.0,0.0,0.0,0.0,0.0,0.0,0.0,0.0,0.0,0.0,0.0,0.0,0.0,0.0,0.0,0.0,0.0,0.0,0.0,0.0,0.0,0.0,0.0,0.0,0.0,0.0,0.0,0.0,0.0,0.0,0.0,0.0,0.0,0.0,0.0,0.0,0.0,0.0,0.0,0.0,0.0,0.0,0.0,0.0,0.0,0.0,0.0,0.0,0.0,0.0,0.0,0.0,0.0,0.0,0.0,0.0,0.0,0.0,0.0,0.0,0.0,0.0,0.0,0.0,0.0,0.0,0.0,0.0,0.0,0.0,0.0,0.0,0.0,0.0,0.0,0.0,0.0,-2.9592,-3.0925,-3.2149,-3.2696,-3.2327,-3.2254,-3.2112,-3.1823,0.0,0.0,0.0,0.0,0.0,0.0,0.0,0.0,0.0,0.0,0.0,0.0,0.0,0.0,0.0,0.0,0.0,0.0,0.0,0.0,0.0,0.0,0.0,0.0,0.0,0.0,0.0,0.0,0.0,0.0,0.0,0.0,0.0,0.0,0.0,0.0,0.0,0.0,0.0,0.0,0.0,0.0,0.0,0.0,0.0,0.0,0.0,0.0,0.0,0.0,0.0,0.0,0.0,0.0,0.0,0.0,0.0,0.0,0.0,0.0,0.0,0.0,0.0,0.0,0.0,0.0,0.0,0.0,0.0,0.0,0.0,0.0,0.0,0.0,0.0,0.0,0.0,0.0,0.0,0.0,0.0,0.0,0.0,0.0,0.0,0.0,0.0,0.0,0.0,0.0,0.0,0.0,0.0,0.0,0.0,0.0,0.0,0.0,0.0,0.0,0.0,0.0,0.0,-2.9455,-3.0248,-3.1102,-3.2349,-3.2898,-3.2355,-3.224,-3.2085,-3.1823,-3.1078,0.0,0.0,0.0,0.0,0.0,0.0,0.0,0.0,0.0,0.0,0.0,0.0,0.0,0.0,0.0,0.0,0.0,0.0,0.0,0.0,0.0,0.0,0.0,0.0,0.0,0.0,0.0,0.0,0.0,0.0,0.0,0.0,0.0,0.0,0.0,0.0,0.0,0.0,0.0,0.0,0.0,0.0,0.0,0.0,0.0,0.0,0.0,0.0,0.0,0.0,0.0,0.0,0.0,0.0,0.0,0.0,0.0,0.0,0.0,0.0,0.0,0.0,0.0,0.0,0.0,0.0,0.0,0.0,0.0,0.0,0.0,0.0,0.0,0.0,0.0,0.0,0.0,0.0,0.0,0.0,0.0,0.0,0.0,0.0,0.0,0.0,0.0,0.0,0.0,0.0,0.0,0.0,0.0,0.0,0.0,0.0,0.0,0.0,0.0,0.0,0.0,0.0,-3.0179,-3.0932,-3.1336,-3.2523,-3.3063,-3.2609,-3.2349,-3.2085,-3.1793,-3.1046,0.0,0.0,0.0,0.0,0.0,0.0,0.0,0.0,0.0,0.0,0.0,0.0,0.0,0.0,0.0,0.0,0.0,0.0,0.0,0.0,0.0,0.0,0.0,0.0,0.0,0.0,0.0,0.0,0.0,0.0,0.0,0.0,0.0,0.0,0.0,0.0,0.0,0.0,0.0,0.0,0.0,0.0,0.0,0.0,0.0,0.0,0.0,0.0,0.0,0.0,0.0,0.0,0.0,0.0,0.0,0.0,0.0,0.0,0.0,0.0,0.0,0.0,0.0,0.0,0.0,0.0,0.0,0.0,0.0,0.0,0.0,0.0,0.0,0.0,0.0,0.0,0.0,0.0,0.0,0.0,0.0,0.0,0.0,0.0,0.0,0.0,0.0,0.0,0.0,0.0,0.0,0.0,0.0,0.0,0.0,0.0,0.0,0.0,0.0,0.0,0.0,0.0,-3.055,-3.1775,-3.2178,-3.2582,-3.297,-3.3306,-3.2632,-3.2059,-3.1727,-3.1006,0.0,0.0,0.0,0.0,0.0,0.0,0.0,0.0,0.0,0.0,0.0,0.0,0.0,0.0,0.0,0.0,0.0,0.0,0.0,0.0,0.0,0.0,0.0,0.0,0.0,0.0,0.0,0.0,0.0,0.0,0.0,0.0,0.0,0.0,0.0,0.0,0.0,0.0,0.0,0.0,0.0,0.0,0.0,0.0,0.0,0.0,0.0,0.0,0.0,0.0,0.0,0.0,0.0,0.0,0.0,0.0,0.0,0.0,0.0,0.0,0.0,0.0,0.0,0.0,0.0,0.0,0.0,0.0,0.0,0.0,0.0,0.0,0.0,0.0,0.0,0.0,0.0,0.0,0.0,0.0,0.0,0.0,0.0,0.0,0.0,0.0,0.0,0.0,0.0,0.0,0.0,0.0,0.0,0.0,0.0,0.0,0.0,0.0,0.0,0.0,0.0,0.0,-3.0392,-3.1253,-3.2213,-3.2601,-3.2972,-3.3364,-3.2651,-3.205,-3.1726,0.0,0.0,0.0,0.0,0.0,0.0,0.0,0.0,0.0,0.0,0.0,0.0,0.0,0.0,0.0,0.0,0.0,0.0,0.0,0.0,0.0,0.0,0.0,0.0,0.0,0.0,0.0,0.0,0.0,0.0,0.0,0.0,0.0,0.0,0.0,0.0,0.0,0.0,0.0,0.0,0.0,0.0,0.0,0.0,0.0,0.0,0.0,0.0,0.0,0.0,0.0,0.0,0.0,0.0,0.0,0.0,0.0,0.0,0.0,0.0,0.0,0.0,0.0,0.0,0.0,0.0,0.0,0.0,0.0,0.0,0.0,0.0,0.0,0.0,0.0,0.0,0.0,0.0,0.0,0.0,0.0,0.0,0.0,0.0,0.0,0.0,0.0,0.0,0.0,0.0,0.0,0.0,0.0,0.0,0.0,0.0,0.0,0.0,0.0,0.0,0.0,0.0,-2.9526,-3.0134,-3.0913,-3.2161,-3.2502,-3.2862,-3.3364,-3.2433,-3.1795,-3.1709,0.0,0.0,0.0,0.0,0.0,0.0,0.0,0.0,0.0,0.0,0.0,0.0,0.0,0.0,0.0,0.0,0.0,0.0,0.0,0.0,0.0,0.0,0.0,0.0,0.0,0.0,0.0,0.0,0.0,0.0,0.0,0.0,0.0,0.0,0.0,0.0,0.0,0.0,0.0,0.0,0.0,0.0,0.0,0.0,0.0,0.0,0.0,0.0,0.0,0.0,0.0,0.0,0.0,0.0,0.0,0.0,0.0,0.0,0.0,0.0,0.0,0.0,0.0,0.0,0.0,0.0,0.0,0.0,0.0,0.0,0.0,0.0,0.0,0.0,0.0,0.0,0.0,0.0,0.0,0.0,0.0,0.0,0.0,0.0,0.0,0.0,0.0,0.0,0.0,0.0,0.0,0.0,0.0,0.0,0.0,0.0,0.0,0.0,0.0,0.0,0.0,0.0,-2.8775,-2.9802,-3.0951,-3.2162,-3.23,-3.2586,-3.3334,-3.1926,-3.1193,0.0,0.0,0.0,0.0,0.0,0.0,0.0,0.0,0.0,0.0,0.0,0.0,0.0,0.0,0.0,0.0,0.0,0.0,0.0,0.0,0.0,0.0,0.0,0.0,0.0,0.0,0.0,0.0,0.0,0.0,0.0,0.0,0.0,0.0,0.0,0.0,0.0,0.0,0.0,0.0,0.0,0.0,0.0,0.0,0.0,0.0,0.0,0.0,0.0,0.0,0.0,0.0,0.0,0.0,0.0,0.0,0.0,0.0,0.0,0.0,0.0,0.0,0.0,0.0,0.0,0.0,0.0,0.0,0.0,0.0,0.0,0.0,0.0,0.0,0.0,0.0,0.0,0.0,0.0,0.0,0.0,0.0,0.0,0.0,0.0,0.0,0.0,0.0,0.0,0.0,0.0,0.0,0.0,0.0,0.0,0.0,0.0,0.0,0.0,0.0,0.0,0.0,0.0,-2.9408,-2.9836,-3.0485,-3.1733,-3.1878,-3.2179,-3.2908,-3.1542,-3.087,-3.1385,0.0,0.0,0.0,0.0,0.0,0.0,0.0,0.0,0.0,0.0,0.0,0.0,0.0,0.0,0.0,0.0,0.0,0.0,0.0,0.0,0.0,0.0,0.0,0.0,0.0,0.0,0.0,0.0,0.0,0.0,0.0,0.0,0.0,0.0,0.0,0.0,0.0,0.0,0.0,0.0,0.0,0.0,0.0,0.0,0.0,0.0,0.0,0.0,0.0,0.0,0.0,0.0,0.0,0.0,0.0,0.0,0.0,0.0,0.0,0.0,0.0,0.0,0.0,0.0,0.0,0.0,0.0,0.0,0.0,0.0,0.0,0.0,0.0,0.0,0.0,0.0,0.0,0.0,0.0,0.0,0.0,0.0,0.0,0.0,0.0,0.0,0.0,0.0,0.0,0.0,0.0,0.0,0.0,0.0,0.0,0.0,0.0,0.0,0.0,0.0,0.0,0.0,-2.9269,-2.9663,-3.0276,-3.1565,-3.1695,-3.1932,-3.2551,-3.1202,-3.0475,-3.0885,0.0,0.0,0.0,0.0,0.0,0.0,0.0,0.0,0.0,0.0,0.0,0.0,0.0,0.0,0.0,0.0,0.0,0.0,0.0,0.0,0.0,0.0,0.0,0.0,0.0,0.0,0.0,0.0,0.0,0.0,0.0,0.0,0.0,0.0,0.0,0.0,0.0,0.0,0.0,0.0,0.0,0.0,0.0,0.0,0.0,0.0,0.0,0.0,0.0,0.0,0.0,0.0,0.0,0.0,0.0,0.0,0.0,0.0,0.0,0.0,0.0,0.0,0.0,0.0,0.0,0.0,0.0,0.0,0.0,0.0,0.0,0.0,0.0,0.0,0.0,0.0,0.0,0.0,0.0,0.0,0.0,0.0,0.0,0.0,0.0,0.0,0.0,0.0,0.0,0.0,0.0,0.0,0.0,0.0,0.0,0.0,0.0,0.0,0.0,0.0,0.0,0.0,-2.8607,-2.9317,-3.0234,-3.1435,-3.1603,-3.1805,-3.2214,-3.0898,-3.0113,-3.0264,0.0,0.0,0.0,0.0,0.0,0.0,0.0,0.0,0.0,0.0,0.0,0.0,0.0,0.0,0.0,0.0,0.0,0.0,0.0,0.0,0.0,0.0,0.0,0.0,0.0,0.0,0.0,0.0,0.0,0.0,0.0,0.0,0.0,0.0,0.0,0.0,0.0,0.0,0.0,0.0,0.0,0.0,0.0,0.0,0.0,0.0,0.0,0.0,0.0,0.0,0.0,0.0,0.0,0.0,0.0,0.0,0.0,0.0,0.0,0.0,-2.6247,-2.6191,0.0,0.0,0.0,0.0,0.0,0.0,0.0,0.0,0.0,0.0,0.0,0.0,0.0,0.0,0.0,0.0,0.0,0.0,0.0,0.0,0.0,0.0,0.0,0.0,0.0,0.0,0.0,0.0,0.0,0.0,0.0,0.0,0.0,0.0,0.0,0.0,0.0,0.0,0.0,0.0,-2.802,-2.8908,-2.9761,-3.0506,-3.0942,-3.1334,-3.1787,-3.0958,-3.0299,-3.008,-2.8624,0.0,0.0,0.0,0.0,0.0,0.0,0.0,0.0,0.0,0.0,0.0,0.0,0.0,0.0,0.0,0.0,0.0,0.0,0.0,0.0,0.0,0.0,0.0,0.0,0.0,0.0,0.0,0.0,0.0,0.0,0.0,0.0,0.0,0.0,0.0,0.0,0.0,0.0,0.0,0.0,0.0,0.0,0.0,0.0,0.0,0.0,0.0,0.0,0.0,0.0,0.0,0.0,0.0,0.0,0.0,0.0,0.0,0.0,0.0,-2.5893,-2.6144,0.0,0.0,0.0,0.0,0.0,0.0,0.0,0.0,0.0,0.0,0.0,0.0,0.0,0.0,0.0,0.0,0.0,0.0,0.0,0.0,0.0,0.0,0.0,0.0,0.0,0.0,0.0,0.0,0.0,0.0,0.0,0.0,0.0,0.0,0.0,0.0,0.0,0.0,0.0,0.0,-2.7809,-2.8591,-2.9361,-3.0123,-3.0477,-3.0711,-3.0842,-3.0182,-2.9538,-2.8988,-2.7705,0.0,0.0,0.0,0.0,0.0,0.0,0.0,0.0,0.0,0.0,0.0,0.0,0.0,0.0,0.0,0.0,0.0,0.0,0.0,0.0,0.0,0.0,0.0,0.0,0.0,0.0,0.0,0.0,0.0,0.0,0.0,0.0,0.0,0.0,0.0,0.0,0.0,0.0,0.0,0.0,0.0,0.0,0.0,0.0,0.0,0.0,0.0,0.0,0.0,0.0,0.0,0.0,0.0,-2.3719,-2.3813,-2.3941,-2.3682,-2.3668,-2.3953,-2.5336,-2.6001,-2.6094,-2.5743,0.0,0.0,0.0,0.0,0.0,0.0,0.0,0.0,0.0,0.0,0.0,0.0,0.0,0.0,0.0,0.0,0.0,0.0,0.0,0.0,0.0,0.0,-2.3044,-2.2815,-2.3568,-2.4308,-2.4172,0.0,0.0,0.0,0.0,0.0,0.0,0.0,0.0,0.0,0.0,0.0,-2.7704,-2.8297,-2.8973,-2.9848,-3.0145,-3.0208,-3.0101,-2.9527,-2.8839,-2.806,-2.6941,-2.6247,0.0,0.0,0.0,0.0,0.0,0.0,0.0,0.0,0.0,0.0,0.0,0.0,0.0,0.0,0.0,0.0,0.0,0.0,0.0,0.0,0.0,0.0,0.0,0.0,0.0,0.0,0.0,0.0,0.0,0.0,0.0,0.0,-2.2369,-2.3326,0.0,0.0,0.0,0.0,0.0,0.0,0.0,0.0,0.0,0.0,0.0,0.0,0.0,-2.4277,-2.3817,-2.3768,-2.3689,-2.3619,-2.4114,-2.4269,-2.4083,-2.4664,-2.4804,-2.4582,-2.4805,0.0,-2.4404,-2.6386,0.0,0.0,0.0,0.0,0.0,0.0,0.0,0.0,0.0,0.0,0.0,0.0,0.0,0.0,0.0,0.0,0.0,0.0,0.0,0.0,0.0,0.0,-2.2462,-2.2921,-2.3179,-2.3431,-2.3906,-2.451,-2.4893,-2.4765,-2.4309,-2.3998,0.0,0.0,0.0,0.0,0.0,0.0,-2.7385,-2.7976,-2.8583,-2.9262,-2.9789,-3.0323,-3.0804,-3.0285,-2.9634,-2.8891,-2.8046,-2.725,-2.6555,-2.5862,0.0,0.0,0.0,0.0,0.0,0.0,0.0,0.0,0.0,0.0,0.0,0.0,0.0,0.0,0.0,0.0,0.0,0.0,0.0,0.0,0.0,0.0,0.0,0.0,0.0,0.0,0.0,0.0,0.0,-2.0931,-2.1836,-2.2194,-2.2445,-2.2803,0.0,0.0,0.0,0.0,0.0,0.0,0.0,0.0,0.0,-2.4123,-2.4028,-2.3878,-2.3681,-2.3664,-2.3608,-2.356,-2.3764,-2.3691,-2.3382,-2.3754,-2.3783,-2.3577,-2.3933,-2.3962,-2.3793,-2.483,-2.55,-2.5877,0.0,0.0,0.0,0.0,-2.6046,-2.5611,-2.4628,-2.3994,-2.3482,-2.2543,0.0,0.0,0.0,0.0,0.0,0.0,0.0,-2.3579,-2.2857,-2.2429,-2.226,-2.2537,-2.2859,-2.3161,-2.3447,-2.4258,-2.4918,-2.4753,-2.493,-2.4947,-2.4525,-2.4604,0.0,0.0,0.0,-2.6413,-2.7195,-2.7649,-2.811,-2.8631,-2.8996,-2.9285,-2.9461,-2.896,-2.8336,-2.7632,-2.6908,-2.6346,-2.5999,-2.565,-2.534,0.0,0.0,0.0,0.0,0.0,0.0,0.0,0.0,0.0,0.0,0.0,0.0,0.0,0.0,0.0,0.0,0.0,0.0,0.0,0.0,0.0,0.0,0.0,0.0,0.0,0.0,0.0,0.0,-2.0933,-2.1137,-2.1195,-2.131,-2.1613,0.0,0.0,0.0,0.0,0.0,0.0,-2.3974,-2.3636,-2.3459,-2.3522,-2.3478,-2.3501,-2.3573,-2.3569,-2.3509,-2.3403,-2.3313,-2.312,-2.2823,-2.2848,-2.2769,-2.2647,-2.3095,-2.3263,-2.3255,-2.3607,-2.43,-2.5036,-2.4495,-2.4823,-2.559,-2.5454,-2.5097,-2.4636,-2.419,-2.3673,-2.3153,-2.2693,-2.2546,-2.2544,-2.2538,0.0,0.0,0.0,0.0,-2.3109,-2.2368,-2.2204,-2.2196,-2.2212,-2.2531,-2.2919,-2.3058,-2.3813,-2.4482,-2.4553,-2.5186,-2.5441,-2.4655,-2.4654,0.0,-2.5243,-2.5621,-2.6144,-2.6971,-2.7379,-2.777,-2.8255,-2.8448,-2.8553,-2.8576,-2.8105,-2.7602,-2.7078,-2.6244,-2.5705,-2.5606,-2.5448,-2.5053,-2.4412,0.0,0.0,0.0,0.0,0.0,0.0,0.0,0.0,0.0,0.0,0.0,0.0,0.0,0.0,0.0,0.0,0.0,0.0,0.0,0.0,0.0,0.0,0.0,0.0,0.0,0.0,0.0,0.0,0.0,-2.0727,-2.1077,0.0,0.0,0.0,0.0,-2.3947,-2.3987,-2.3823,-2.3354,-2.3795,-2.3907,-2.3607,-2.3471,-2.3442,-2.3488,-2.3437,-2.3292,-2.314,-2.3005,-2.2909,-2.2878,-2.2769,-2.2616,-2.242,-2.2451,-2.2389,-2.2389,-2.3836,-2.4473,-2.453,-2.4503,-2.4505,-2.4518,-2.3939,-2.3706,-2.3589,-2.3005,-2.2653,-2.2463,-2.2433,-2.2414,-2.2419,-2.2423,-2.2822,0.0,0.0,-2.2782,-2.296,-2.2353,-2.2211,-2.218,-2.2185,-2.2216,-2.2389,-2.298,-2.307,-2.3314,-2.4315,-2.4545,-2.4582,-2.459,0.0,-2.3913,-2.4869,-2.5422,-2.5966,-2.6643,-2.724,-2.777,-2.8255,-2.8543,-2.888,-2.9313,-2.8914,-2.8639,-2.859,-2.7243,-2.627,-2.5903,-2.527,-2.4752,-2.4404,-2.3703,0.0,0.0,0.0,0.0,0.0,0.0,0.0,0.0,0.0,0.0,0.0,0.0,0.0,0.0,0.0,0.0,0.0,0.0,0.0,0.0,0.0,0.0,0.0,0.0,0.0,0.0,0.0,0.0,-1.994,-1.9988,0.0,-2.0493,-2.0989,-2.1547,-2.2221,-2.259,-2.2892,-2.3165,-2.3726,-2.3997,-2.3844,-2.4135,-2.4312,-2.4331,-2.4173,-2.3691,-2.2911,-2.317,-2.2985,-2.2463,-2.25,-2.2432,-2.2278,-2.2278,-2.2247,-2.2247,-2.2793,-2.3297,-2.3715,-2.3627,-2.3933,-2.4323,-2.3975,-2.3859,-2.3771,-2.316,-2.2902,-2.2781,-2.2389,-2.2256,-2.2268,-2.2268,-2.2418,-2.2556,-2.2328,-2.2384,-2.2469,-2.2247,-2.2197,-2.2197,-2.2197,-2.2092,-2.208,-2.2273,-2.2525,-2.2756,-2.2975,-2.3322,-2.3688,-2.3973,-2.3693,-2.3774,-2.478,-2.5101,-2.5463,-2.604,-2.631,-2.6508,-2.6663,-2.7119,-2.7359,-2.7223,-2.7173,-2.7047,-2.678,-2.6282,-2.5814,-2.5387,-2.5033,-2.4661,-2.4274,-2.3623,-2.2969,0.0,0.0,0.0,0.0,0.0,0.0,0.0,0.0,0.0,0.0,0.0,0.0,0.0,0.0,0.0,0.0,0.0,0.0,0.0,0.0,0.0,0.0,0.0,0.0,0.0,-1.976,-1.9604,-1.9569,-1.9476,-1.9461,-1.9588,-2.0086,-2.0587,-2.1038,-2.1569,-2.2178,-2.2837,-2.3194,-2.3498,-2.3703,-2.4046,-2.423,-2.423,-2.4329,-2.3876,-2.2883,-2.3135,-2.281,-2.2002,-2.2139,-2.2143,-2.208,-2.2176,-2.2197,-2.2197,-2.2197,-2.25,-2.2919,-2.2841,-2.3113,-2.359,-2.3429,-2.3386,-2.3339,-2.2932,-2.2811,-2.272,-2.2328,-2.2197,-2.2197,-2.2197,-2.2197,-2.2197,-2.2197,-2.2197,-2.2197,-2.2197,-2.2197,-2.2197,-2.2197,-2.2061,-2.1894,-2.1894,-2.2056,-2.2156,-2.1944,-2.2567,-2.3141,-2.3298,-2.3376,-2.3693,-2.4545,-2.4859,-2.5188,-2.5742,-2.5783,-2.5783,-2.5783,-2.6188,-2.6349,-2.6026,-2.6352,-2.6438,-2.6054,-2.6001,-2.5804,-2.5443,-2.5015,-2.4529,-2.4048,-2.311,-2.2549,-2.2396,0.0,0.0,0.0,0.0,0.0,0.0,0.0,0.0,0.0,0.0,0.0,0.0,0.0,0.0,0.0,0.0,0.0,0.0,0.0,0.0,0.0,0.0,0.0,-2.0311,-1.9457,-1.8924,-1.9603,-1.963,-1.9609,-1.9743,-2.0227,-2.0549,-2.0581,-2.1127,-2.1738,-2.2339,-2.2296,-2.2491,-2.3056,-2.3102,-2.3114,-2.3114,-2.3794,-2.3794,-2.309,-2.2888,-2.2343,-2.1587,-2.1722,-2.1772,-2.1771,-2.206,-2.2159,-2.2135,-2.2147,-2.2147,-2.2154,-2.2197,-2.2197,-2.2197,-2.2197,-2.2197,-2.2197,-2.2197,-2.2197,-2.2197,-2.2197,-2.2197,-2.2197,-2.2154,-2.2154,-2.2154,-2.2123,-2.2154,-2.2154,-2.2154,-2.2185,-2.2197,-2.2154,-2.1999,-2.1862,-2.1862,-2.1588,-2.1356,-2.1388,-2.2298,-2.2937,-2.2634,-2.3005,-2.3526,-2.4079,-2.4595,0.0,-2.5618,-2.5701,-2.5728,-2.5755,-2.5863,-2.5957,-2.5957,-2.6625,-2.6927,-2.6651,-2.6553,-2.6362,-2.6104,-2.5214,-2.4415,-2.3717,-2.2167,-2.1781,-2.2609,0.0,0.0,0.0,0.0,0.0,0.0,0.0,0.0,0.0,0.0,0.0,0.0,0.0,0.0,0.0,0.0,0.0,0.0,0.0,0.0,0.0,-1.65,-1.674,-1.8405,-1.858,-1.8604,-1.8802,-1.8816,-1.8824,-1.8845,-1.9292,-1.9779,-2.0287,-2.0728,-2.1308,-2.1981,-2.235,-2.2655,-2.2795,-2.3193,-2.3374,-2.3374,-2.3445,-2.3193,-2.2585,-2.2419,-2.2066,-2.1446,-2.1488,-2.1304,-2.1018,-2.1442,-2.1241,-2.0679,-2.0994,-2.123,-2.1463,-2.1987,-2.2197,-2.2197,-2.2197,-2.2197,-2.2197,-2.2197,-2.2197,-2.2197,-2.2197,-2.2197,-2.2092,-2.1557,-2.14,-2.1293,-2.0816,-2.104,-2.14,-2.14,-2.1694,-2.1862,-2.1388,-2.104,-2.0816,-2.0816,-2.0624,-2.0624,-2.1146,-2.1494,-2.1796,-2.2063,-2.2218,-2.2494,-2.2985,-2.3165,-2.3314,-2.3467,-2.3829,-2.4192,-2.4584,-2.5007,-2.5286,-2.5286,-2.5646,-2.5755,-2.5481,-2.5925,-2.6131,-2.5975,-2.5575,-2.4939,-2.4014,-2.3561,-2.3101,0.0,0.0,0.0,0.0,0.0,0.0,0.0,0.0,0.0,0.0,0.0,0.0,0.0,0.0,0.0,0.0,0.0,0.0,0.0,0.0,0.0,0.0,-1.5735,-1.5815,-1.6827,-1.7179,-1.7457,-1.7784,-1.7973,-1.8193,-1.8513,-1.8978,-1.9404,-1.9796,-2.0288,-2.0859,-2.1517,-2.1799,-2.2056,-2.2302,-2.2646,-2.2787,-2.2787,-2.301,-2.2794,-2.2155,-2.2056,-2.1707,-2.1079,-2.117,-2.1069,-2.0849,-2.1239,-2.1107,-2.0641,-2.0672,-2.0798,-2.099,0.0,0.0,0.0,0.0,-2.1726,-2.1694,-2.1411,-2.1305,-2.1305,-2.1305,-2.1305,-2.1242,-2.0805,-2.0677,-2.0613,-2.0193,-2.0387,-2.0677,-2.057,-2.0794,-2.089,-2.043,-2.0107,-1.9933,-1.9933,-2.0031,-2.0237,-2.0667,-2.0987,0.0,-2.1557,-2.1765,-2.2082,-2.2597,-2.2652,-2.2683,-2.293,-2.3027,-2.3173,-2.3509,-2.3829,-2.3975,-2.3975,-2.4383,0.0,0.0,0.0,-2.5191,-2.4943,-2.4693,0.0,0.0,0.0,0.0,0.0,0.0,0.0,0.0,-2.2549,-2.2375,0.0,0.0,0.0,0.0,0.0,0.0,0.0,0.0,0.0,0.0,0.0,0.0,0.0,0.0,0.0,0.0,-1.5417,-1.5554,-1.5554,-1.5554,-1.5892,-1.6727,-1.716,-1.7612,-1.8311,-1.8885,-1.9209,-1.9209,-1.9858,-2.0497,-2.1007,-2.0936,0.0,0.0,0.0,-2.1652,-2.1652,-2.236,-2.236,-2.1652,-2.1652,-2.128,-2.0624,-2.0828,-2.0913,-2.0878,-2.1168,-2.1239,-2.1145,-2.0769,-2.0588,-2.0617,-2.0868,-2.14,-2.1894,-2.123,-2.0996,-2.0901,-2.0302,0.0,0.0,-2.0096,-2.0096,-2.0063,-1.9998,-1.9966,-1.9933,-1.9868,-1.9868,-1.9868,-1.9705,-1.9694,-1.9672,-1.9432,-1.9255,-1.9133,-1.9133,-1.954,-1.9901,-1.9966,-2.0495,-2.0967,-2.0967,-2.1451,-2.199,-2.2542,-2.2518,-2.264,-2.3174,-2.2809,-2.2561,-2.2622,-2.2592,0.0,-2.2713,-2.3127,-2.3365,-2.3301,-2.3836,-2.4019,-2.367,-2.3362,-2.3098,-2.2844,-2.2546,-2.2628,-2.3093,-2.3093,-2.2808,-2.2289,-2.2591,-2.2808,0.0,0.0,0.0,0.0,0.0,0.0,0.0,0.0,0.0,0.0,0.0,0.0,0.0,0.0,0.0,-1.4841,-1.4766,-1.4728,-1.4728,-1.4728,-1.5145,-1.6206,-1.6413,-1.6622,-1.7037,-1.8066,-1.8729,-1.8729,-1.9841,-2.0584,-2.0699,-2.0672,-2.0722,-2.0828,-2.0828,-2.0828,-2.0828,-2.0972,-2.0972,-2.0828,-2.0828,0.0,-2.0595,-2.0672,-2.0473,-2.0147,-2.0576,-2.0362,-1.9723,-1.9956,-1.9996,-1.9915,-2.0183,-2.0387,-2.0495,-2.0355,-2.0291,-2.0258,-2.0128,-2.0096,-2.0096,-2.0096,-2.0096,-1.9998,-1.9408,-1.9133,0.0,-1.8331,-1.8476,-1.88,-1.8767,-1.9067,-1.9255,-1.8603,-1.8355,-1.824,-1.824,-1.8331,-1.8566,-1.911,-1.9342,-1.9441,-1.9441,-2.0495,-2.1368,-2.1482,-2.1482,-2.1526,-2.1628,-2.1877,-2.2224,-2.2694,-2.2658,-2.2792,-2.3293,-2.299,-2.2912,-2.3284,-2.3745,-2.3984,-2.3937,-2.3851,-2.3799,-2.3738,-2.3681,-2.3457,-2.3103,-2.3103,-2.28,-2.2232,-2.2765,-2.256,0.0,0.0,0.0,0.0,0.0,0.0,0.0,0.0,0.0,0.0,0.0,-1.5324,-1.4881,0.0,-1.4815,-1.4636,-1.4552,-1.4511,-1.4511,-1.4511,-1.4857,-1.5796,-1.6078,-1.6412,-1.6996,-1.7822,-1.8315,-1.8315,-1.8928,-1.9323,-1.9323,-1.9323,-1.9323,-1.9323,-1.9323,-1.9323,-1.9323,-1.9323,-1.9323,-1.9323,-1.9323,-1.9323,-1.9313,-1.9766,-1.9818,-1.9629,-2.0314,-2.0361,-1.9959,-1.9912,-1.9752,-1.9495,-1.9553,-1.9786,-2.0074,-1.9704,-1.954,-1.9507,-1.9154,-1.9054,-1.9054,-1.9054,-1.8977,-1.8834,-1.8476,-1.825,-1.809,-1.7681,-1.7784,-1.7988,-1.7876,-1.8037,-1.8138,-1.7662,-1.7501,-1.7432,-1.7432,-1.774,-1.8104,-1.8432,-1.8777,-1.9011,-1.9011,-1.9606,-2.0226,-2.0592,-2.0667,-2.0764,-2.1158,-2.14,-2.1659,-2.1978,-2.1928,-2.2021,-2.2335,-2.2132,-2.2156,-2.2476,-2.2768,-2.298,-2.3113,-2.3113,-2.3113,-2.3113,-2.3113,-2.2962,-2.2641,-2.2641,-2.25,-2.2197,-2.2063,-2.1932,0.0,0.0,0.0,0.0,0.0,0.0,0.0,-1.5446,-1.507,-1.4708,-1.4863,-1.4828,-1.4135,-1.4524,-1.489,-1.4638,-1.4611,-1.4655,-1.4655,-1.4655,-1.4885,-1.5482,-1.5779,-1.6246,-1.6921,-1.7466,-1.7755,-1.7755,-1.7917,-1.7997,-1.7997,-1.7997,-1.7997,-1.7997,-1.7997,-1.7997,-1.7997,-1.7997,-1.7997,-1.7997,-1.7997,-1.7997,-1.8037,-1.8727,-1.9134,-1.9341,-2.0167,-2.0527,-2.0498,-1.9908,-1.9401,-1.9,-1.8694,-1.8851,-1.9251,-1.893,-1.8792,-1.862,-1.81,-1.7906,-1.7906,-1.7906,-1.7794,-1.7647,-1.7647,-1.7554,-1.7426,-1.7426,-1.7401,-1.7358,-1.7166,-1.7132,-1.7107,-1.6934,-1.6908,-1.6908,-1.6908,-1.7373,-1.7808,-1.7808,-1.824,-1.8576,-1.8576,-1.8576,-1.8877,-1.977,-1.9901,-2.0139,-2.0892,-2.086,-2.0828,-2.0967,-2.086,-2.0828,-2.0955,-2.1242,-2.1463,-2.1624,-2.18,-2.1956,-2.2123,-2.2185,-2.2123,-2.1987,-2.2123,-2.2123,-2.1999,-2.1956,-2.1956,-2.1925,-2.1049,-2.1092,-1.2777,-1.3297,-1.3502,-1.3828,-1.3696,-1.3527,0.0,-1.377,-1.3715,-1.3663,-1.3918,-1.4111,-1.4036,-1.4489,-1.4889,-1.4849,-1.5097,-1.5279,-1.5279,-1.5279,-1.5321,-1.5396,-1.5216,-1.5212,-1.5591,-1.6363,-1.6862,-1.6862,-1.7553,-1.7997,-1.7997,-1.7997,-1.7997,-1.7997,-1.7997,-1.7997,-1.7997,-1.7997,-1.7997,-1.7997,-1.7997,-1.7997,-1.7997,-1.8118,-1.8567,-1.9341,-2.002,-2.0342,-2.0255,-1.9198,-1.8503,-1.8077,-1.7269,-1.6766,-1.6616,-1.7783,-1.7983,-1.7676,-1.7573,-1.7573,-1.7573,-1.7573,-1.7539,-1.7539,-1.7539,-1.7392,-1.7235,-1.7235,-1.7107,-1.6978,-1.6943,-1.6943,-1.6943,-1.6908,-1.6908,-1.6908,-1.6908,-1.6968,-1.7003,-1.7003,-1.7072,-1.7141,-1.7141,-1.7141,-1.7569,-1.8911,-1.911,-1.9408,-2.0128,-1.9639,-1.9507,-2.0139,-1.9639,-1.9507,-2.0172,-2.0944,-2.142,-2.1431,-2.1737,-2.1894,-2.1925,-2.2092,-2.1894,-2.123,-2.1862,-2.1894,-2.123,-2.1092,-2.1049,-2.1017,-2.0096,-2.016,-1.1675,-1.212,-1.2362,-1.2459,-1.2394,-1.2356,-1.2418,-1.246,-1.2442,-1.2462,-1.3134,-1.3751,-1.3751,-1.4547,-1.5185,-1.5185,-1.5301,-1.5389,-1.5389,-1.5389,-1.5389,-1.5389,-1.5265,-1.5236,-1.5374,-1.5748,-1.5948,-1.5948,-1.627,-1.6562,-1.6766,-1.6773,-1.686,-1.7055,-1.7063,-1.6969,-1.6781,-1.6773,-1.6672,-1.6476,-1.6476,-1.6435,-1.6345,-1.6829,-1.748,-1.8158,-1.8439,-1.855,-1.8519,-1.8029,-1.7734,-1.7559,-1.7063,-1.6595,-1.6285,-1.671,-1.7122,-1.7397,-1.7125,-1.738,-1.7748,-1.7033,-1.6707,-1.6612,-1.6612,-1.6499,-1.6464,-1.689,-1.6968,-1.6795,-1.6368,-1.6263,-1.6149,-1.5683,-1.5569,-1.5569,-1.5569,-1.5569,-1.5719,-1.6158,-1.6263,-1.6403,-1.683,-1.6908,-1.7107,-1.7672,-1.8138,-1.8667,-1.9375,-1.9177,-1.911,-1.9441,-1.9177,-1.911,-1.9431,-1.9792,-2.0053,-2.0182,-2.0323,-2.0473,-2.0655,-2.0666,-2.0602,-2.0516,-2.0698,-2.0698,-2.0516,-2.0333,-2.0257,-2.0257,-1.9234,-1.8959,-1.0732,-1.1066,-1.1318,-1.1524,-1.1501,-1.1484,-1.1669,-1.1706,-1.1706,-1.1706,-1.2521,-1.325,-1.3291,-1.4095,-1.4767,-1.4817,-1.4999,-1.5124,-1.5124,-1.5298,-1.5389,-1.5389,-1.5413,-1.5422,-1.552,-1.544,-1.5425,-1.5513,-1.544,-1.5606,-1.6023,-1.5965,-1.6052,-1.6404,-1.6411,-1.6265,-1.6045,-1.6038,-1.5834,-1.5478,-1.5478,-1.5301,-1.5041,-1.5899,-1.6542,-1.6927,-1.7131,-1.7212,-1.7172,-1.6895,-1.6772,-1.6731,-1.6355,-1.6003,-1.5725,-1.5543,-1.6063,-1.6816,-1.6505,-1.6823,-1.7243,-1.627,-1.5864,-1.5713,-1.5638,-1.5542,-1.5578,-1.6114,-1.6263,-1.6149,-1.5613,-1.5471,-1.533,-1.4744,-1.4601,-1.4601,-1.4601,-1.4601,-1.4788,-1.5365,-1.5471,-1.5648,-1.6184,-1.6263,-1.6263,-1.6263,-1.6724,-1.7463,-1.8566,-1.871,-1.8643,-1.8442,-1.861,-1.871,-1.871,-1.89,-1.9077,-1.9199,-1.9266,-1.942,-1.9639,-1.9574,-1.9541,-1.9671,-1.9716,-1.9705,-1.9671,-1.9475,-1.9366,-1.9323,-1.8311,-1.7847,-0.9909,-1.0136,-1.0407,-1.1039,-1.1028,-1.0962,-1.1558,-1.1706,-1.1706,-1.1706,-1.1973,-1.2299,-1.2482,-1.2849,-1.3144,-1.3432,-1.4019,-1.444,-1.444,-1.4999,-1.5389,-1.5389,-1.5418,-1.5548,-1.5849,-1.5571,-1.5513,-1.5877,-1.5564,-1.5701,-1.6367,-1.6074,-1.6052,-1.6404,-1.6411,-1.6411,-1.6397,-1.6397,-1.6111,-1.5591,-1.5591,-1.5298,-1.4734,-1.5587,-1.6041,-1.6075,-1.6723,-1.7001,-1.6919,-1.5876,-1.5477,-1.5352,-1.4538,-1.4159,-1.4153,-1.4146,-1.4767,-1.5565,-1.5557,-1.5549,-1.5532,-1.5229,-1.5118,-1.5054,-1.474,-1.4637,-1.4637,-1.4673,-1.4673,-1.4673,-1.4637,-1.4637,-1.4637,-1.4601,-1.4601,-1.4601,-1.4601,-1.4601,-1.4601,-1.4637,-1.4637,-1.4637,-1.4673,-1.4673,-1.4673,-1.4673,-1.4673,-1.5508,-1.7755,-1.8037,-1.7774,-1.7038,-1.7604,-1.8037,-1.8037,-1.8633,-1.9011,-1.9011,-1.9199,-1.9299,-1.9299,-1.9442,-1.9212,-1.8566,-1.9179,-1.9179,-1.8543,-1.8345,-1.8234,-1.8234,-1.7364,-1.6934,-0.8949,-0.949,-1.0045,-1.0261,-1.0269,-1.0255,-1.0475,-1.0519,-1.0519,-1.0519,-1.1094,-1.1666,-1.1927,-1.2519,-1.3089,-1.3347,-1.3603,-1.373,-1.373,-1.3942,-1.4191,-1.4491,-1.4549,-1.4784,-1.5383,-1.5689,-1.5951,-1.6206,-1.6118,-1.6243,-1.6712,-1.6639,-1.6682,-1.6996,-1.7004,-1.6475,-1.5431,-1.5386,-1.5008,-1.4272,-1.4644,-1.4712,-1.4524,-1.4657,-1.4741,-1.4741,-1.4985,-1.5061,-1.5061,-1.4699,-1.4538,-1.4496,-1.4208,-1.4088,-1.4088,-1.4088,-1.4282,-1.4636,-1.4951,-1.5417,-1.5709,-1.4638,-1.4411,-1.4493,-1.4238,-1.4253,-1.4494,-1.483,-1.4922,-1.4749,-1.4051,-1.3854,-1.3745,-1.32,-1.3055,-1.3055,-1.3055,-1.3055,-1.3237,-1.3781,-1.3854,-1.4034,-1.453,-1.4601,-1.4601,-1.4601,-1.5037,-1.5675,-1.6455,-1.6985,-1.7166,-1.6943,-1.7107,-1.727,-1.727,-1.7476,-1.7604,-1.7604,-1.7672,-1.7774,-1.7901,-1.7833,-1.7808,-1.7828,-1.7935,-1.7935,-1.7828,-1.7638,-1.756,-1.7526,-1.6603,-1.6158,-0.8044,-0.859,-0.9036,-0.9036,-0.9268,-0.9463,-0.9463,-0.969,-0.9884,-0.9884,-1.0384,-1.09,-1.1244,-1.1763,-1.2235,-1.2608,-1.2881,-1.3083,-1.3139,-1.3366,-1.3646,-1.4064,-1.3989,-1.4219,-1.4917,-1.5275,-1.5663,-1.6088,-1.6026,-1.6147,-1.6629,-1.6543,-1.6483,-1.6513,-1.652,-1.5947,-1.4706,-1.4706,-1.4341,-1.3667,-1.3728,-1.3977,-1.4279,-1.4166,-1.4088,-1.4088,-1.4088,-1.4088,-1.4088,-1.4088,-1.4088,-1.4088,-1.4088,-1.4088,-1.4088,-1.4088,-1.4088,-1.4146,-1.4441,-1.4938,-1.5201,-1.4152,-1.392,-1.3987,-1.3723,-1.3765,-1.3974,-1.4215,-1.4276,-1.4089,-1.3287,-1.3062,-1.2952,-1.2409,-1.2305,-1.2305,-1.2305,-1.2305,-1.2445,-1.2952,-1.3062,-1.3208,-1.3702,-1.3781,-1.3781,-1.3781,-1.4466,-1.5188,-1.5727,-1.6228,-1.6621,-1.6874,-1.6908,-1.6795,-1.6517,-1.676,-1.6656,-1.6114,-1.6368,-1.6542,-1.6673,-1.6577,-1.676,-1.7289,-1.689,-1.6751,-1.6899,-1.6751,-1.6559,-1.6271,-1.5939,-1.5648,-0.721,-0.7443,-0.749,-0.749,-0.8075,-0.8661,-0.8699,-0.9311,-0.9841,-0.9879,-0.9895,-1.0045,-1.0512,-1.0613,-1.0785,-1.1252,-1.1931,-1.2443,-1.2633,-1.3203,-1.3699,-1.3974,-1.3722,-1.3781,-1.4458,-1.4329,-1.4596,-1.5549,-1.5357,-1.549,-1.6116,-1.5824,-1.5471,-1.5092,-1.5099,-1.4806,-1.422,-1.4154,-1.3943,-1.3613,-1.2964,-1.3107,-1.3955,-1.3955,-1.3955,-1.3955,-1.3955,-1.3955,-1.3955,-1.4004,-1.4046,-1.4046,-1.4088,-1.4088,-1.4088,-1.4088,-1.4088,-1.4088,-1.4088,-1.4088,-1.4041,-1.37,-1.3613,-1.3573,-1.328,-1.324,-1.3193,-1.2918,-1.2831,-1.2757,-1.2425,-1.2338,-1.2325,-1.2325,-1.2311,-1.2305,-1.2305,-1.2305,-1.2305,-1.2305,-1.2305,-1.2305,-1.2305,-1.2305,-1.2305,-1.2325,-1.298,-1.3985,-1.548,-1.5727,-1.6009,-1.6691,-1.6795,-1.6508,-1.5798,-1.6368,-1.6149,-1.4673,-1.533,-1.5727,-1.5727,-1.5727,-1.6088,-1.676,-1.6079,-1.5727,-1.5727,-1.5727,-1.5365,-1.4601,-1.533,-1.5251,-0.6273,-0.6807,-0.7352,-0.7352,-0.7597,-0.7965,-0.8546,-0.8856,-0.916,-0.9765,-1.0067,-1.0288,-1.0538,-1.0887,-1.1225,-1.1564,-1.1931,-1.2203,-1.2258,-1.2405,-1.2586,-1.2746,-1.2678,-1.2783,-1.3222,-1.3193,-1.359,-1.4595,-1.4933,-1.5181,-1.5378,-1.5313,-1.5218,-1.5099,-1.5099,-1.437,-1.2818,-1.2018,-1.1514,-1.1339,-1.1725,-1.1925,-1.2015,-1.2015,-1.2015,-1.2015,-1.2015,-1.2015,-1.2057,-1.279,-1.3052,-1.3137,-1.3828,-1.4088,-1.4088,-1.4088,-1.4088,-1.4088,-1.4088,-1.4088,-1.4041,-1.37,-1.3753,-1.3915,-1.358,-1.3687,-1.3801,-1.35,-1.3414,-1.3347,-1.3053,-1.2806,-1.267,-1.267,-1.2465,-1.2305,-1.2305,-1.2305,-1.2305,-1.2305,-1.2305,-1.2305,-1.2305,-1.2305,-1.2378,-1.2636,-1.2859,-1.3257,-1.4,-1.4573,-1.4966,-1.518,-1.518,-1.5108,-1.4931,-1.5073,-1.5037,-1.4601,-1.478,-1.4895,-1.4895,-1.4895,-1.5002,-1.518,-1.5002,-1.4895,-1.4895,-1.4895,-1.4788,-1.4601,-1.425,-1.3962,-0.5538,-0.5873,-0.6273,-0.6273,-0.6599,-0.7046,-0.751,-0.8165,-0.8818,-0.9273,-0.9885,-1.0336,-1.046,-1.0919,-1.1354,-1.1482,-1.1873,-1.2132,-1.224,-1.221,-1.2296,-1.2491,-1.2517,-1.2566,-1.2802,-1.2813,-1.3007,-1.3593,-1.3932,-1.4262,-1.4736,-1.4627,-1.443,-1.41,-1.41,-1.3372,-1.1814,-1.0924,-1.0481,-1.0519,-1.084,-1.1108,-1.1284,-1.1284,-1.1284,-1.1284,-1.1284,-1.1284,-1.1327,-1.1886,-1.21,-1.2186,-1.3137,-1.3483,-1.3525,-1.3955,-1.3828,-1.3483,-1.3483,-1.3222,-1.2984,-1.3596,-1.3948,-1.4055,-1.3888,-1.3955,-1.4021,-1.3686,-1.36,-1.3533,-1.3287,-1.308,-1.2991,-1.2991,-1.2826,-1.2699,-1.2699,-1.2592,-1.2496,-1.2325,-1.2305,-1.2345,-1.2478,-1.2536,-1.2636,-1.2945,-1.2991,-1.3079,-1.332,-1.3903,-1.4431,-1.4795,-1.4697,-1.4458,-1.4142,-1.4422,-1.4314,-1.3629,-1.3918,-1.4106,-1.4106,-1.4106,-1.4279,-1.4601,-1.4279,-1.4106,-1.4106,-1.4106,-1.3926,-1.36,-1.3528,-1.3389,-0.4955,-0.4955,-0.4955,-0.4955,-0.55,-0.6086,-0.6163,-0.7429,-0.8585,-0.8661,-0.9537,-1.0304,-1.0336,-1.0855,-1.1327,-1.1391,-1.1811,-1.2229,-1.2425,-1.2463,-1.2538,-1.2786,-1.2813,-1.2813,-1.2813,-1.2813,-1.2813,-1.2813,-1.2802,-1.3182,-1.4027,-1.3871,-1.348,-1.2813,-1.2716,-1.2224,-1.1194,-1.0479,-1.0186,-1.0288,-1.0154,-1.0386,-1.0939,-1.0939,-1.0939,-1.0939,-1.0939,-1.0939,-1.0939,-1.1068,-1.1106,-1.1198,-1.2143,-1.2528,-1.2613,-1.344,-1.3222,-1.2528,-1.2528,-1.1972,-1.1585,-1.3355,-1.3913,-1.3955,-1.4046,-1.4088,-1.4035,-1.3733,-1.366,-1.3606,-1.3394,-1.33,-1.3267,-1.3267,-1.324,-1.3213,-1.3213,-1.3005,-1.2697,-1.2365,-1.2338,-1.2445,-1.2737,-1.2817,-1.2951,-1.322,-1.3267,-1.328,-1.332,-1.3589,-1.4057,-1.4724,-1.4527,-1.408,-1.339,-1.3926,-1.3702,-1.2372,-1.2952,-1.3353,-1.3353,-1.3353,-1.3637,-1.4279,-1.3673,-1.3353,-1.3353,-1.3353,-1.301,-1.2395,-1.3089,-1.3221,-0.4828,-0.4828,-0.4828,-0.4828,-0.5016,-0.5398,-0.6051,-0.6969,-0.7889,-0.8546,-0.9537,-1.0353,-1.0501,-1.0962,-1.1434,-1.191,-1.2167,-1.2436,-1.2667,-1.2748,-1.2764,-1.2807,-1.2813,-1.2813,-1.2813,-1.2813,-1.2813,-1.2813,-1.2802,-1.2894,-1.3055,-1.3001,-1.2953,-1.2813,-1.237,-1.1834,-1.1194,-1.0618,-0.9992,-0.9325,-0.9296,-0.9195,-0.9087,-0.9087,-0.9087,-0.9087,-0.9087,-0.9087,-0.913,-0.9859,-1.0159,-1.0246,-1.1198,-1.1542,-1.158,-1.1714,-1.1671,-1.1542,-1.1542,-1.1456,-1.1499,-1.2571,-1.2918,-1.3094,-1.387,-1.4088,-1.4075,-1.4021,-1.4008,-1.4001,-1.3948,-1.3754,-1.3527,-1.3527,-1.3347,-1.3213,-1.3213,-1.3005,-1.2697,-1.2365,-1.2536,-1.2723,-1.2777,-1.2998,-1.3227,-1.3487,-1.3527,-1.3613,-1.3901,-1.3581,-1.3299,-1.3224,-1.3147,-1.2941,-1.2539,-1.2629,-1.2592,-1.2335,-1.2409,-1.2519,-1.2519,-1.2519,-1.2556,-1.2703,-1.2556,-1.2519,-1.2519,-1.2519,-1.2574,-1.271,-1.2855,-1.2986,-0.4893,-0.4893,-0.4893,-0.4893,-0.4936,-0.5093,-0.5476,-0.6584,-0.7617,-0.8003,-0.9256,-1.0288,-1.0227,-1.0817,-1.138,-1.165,-1.2097,-1.2495,-1.278,-1.2813,-1.2813,-1.2813,-1.2813,-1.2813,-1.2813,-1.2813,-1.2813,-1.2813,-1.2813,-1.2705,-1.2432,-1.2457,-1.244,-1.244,-1.2199,-1.1774,-1.1248,-1.101,-1.0482,-0.9688,-0.9409,-0.9173,-0.8959,-0.87,-0.8612,-0.8612,-0.8612,-0.8612,-0.8612,-0.9043,-0.9213,-0.9301,-1.0202,-1.0549,-1.0636,-1.1106,-1.0982,-1.0549,-1.0549,-1.0294,-1.0033,-1.0939,-1.1886,-1.279,-1.3222,-1.3695,-1.4088,-1.4088,-1.4088,-1.4088,-1.4088,-1.3981,-1.3874,-1.3874,-1.3768,-1.3621,-1.3467,-1.332,-1.3126,-1.2832,-1.2893,-1.3033,-1.3186,-1.2967,-1.2836,-1.3108,-1.3146,-1.3197,-1.3336,-1.3544,-1.3547,-1.3247,-1.308,-1.2933,-1.2786,-1.2772,-1.2772,-1.2772,-1.2772,-1.2772,-1.2772,-1.2772,-1.2699,-1.2569,-1.2692,-1.2699,-1.2569,-1.2699,-1.2846,-1.3025,-1.3025,-1.3146,-0.5018,-0.5018,-0.5018,-0.5018,-0.5018,-0.5018,-0.5018,-0.6279,-0.7502,-0.7502,-0.8942,-1.0169,-1.0024,-1.0576,-1.115,-1.1348,-1.1852,-1.2377,-1.2764,-1.2813,-1.2813,-1.2813,-1.2813,-1.2813,-1.2813,-1.2813,-1.2813,-1.2813,-1.2416,-1.2156,-1.2168,-1.2126,-1.2094,-1.2094,-1.2094,-1.186,-1.1308,-1.1308,-1.0923,-1.0178,-0.9809,-0.9571,-0.9432,-0.8959,-0.874,-0.874,-0.8656,-0.8612,-0.8612,-0.8612,-0.8612,-0.8656,-0.9345,-0.9602,-0.9733,-1.0463,-1.0246,-0.9602,-0.9602,-0.917,-0.87,-0.9384,-1.0766,-1.2186,-1.2571,-1.3088,-1.3525,-1.3737,-1.3659,-1.3483,-1.3483,-1.3483,-1.3483,-1.3483,-1.3483,-1.3406,-1.3083,-1.3019,-1.3018,-1.2902,-1.2815,-1.2845,-1.3233,-1.2651,-1.217,-1.237,-1.2406,-1.2406,-1.2406,-1.3045,-1.3393,-1.3134,-1.3231,-1.3194,-1.2936,-1.3088,-1.3127,-1.2923,-1.3088,-1.3213,-1.3213,-1.3213,-1.3093,-1.2891,-1.3086,-1.3093,-1.2884,-1.3093,-1.324,-1.3307,-1.3307,-1.342,-0.5018,-0.5018,-0.5018,-0.5018,-0.5018,-0.5018,-0.5018,-0.6279,-0.7502,-0.7502,-0.8784,-1.0019,-1.0223,-1.0331,-1.067,-1.1526,-1.172,-1.2,-1.2716,-1.2813,-1.2813,-1.2813,-1.2813,-1.2813,-1.2813,-1.2813,-1.2813,-1.2813,-1.1137,-1.0804,-1.2304,-1.2178,-1.2094,-1.2094,-1.2094,-1.186,-1.1308,-1.1308,-1.0923,-1.0178,-1.0178,-1.007,-0.9907,-0.9432,-0.9218,-0.9218,-0.8784,-0.8612,-0.8612,-0.8612,-0.8612,-0.8612,-0.8696,-0.874,-0.874,-0.8828,-0.8784,-0.874,-0.874,-0.8656,-0.8612,-0.8696,-0.9388,-1.0463,-1.2186,-1.2143,-1.1757,-1.2577,-1.2229,-1.1542,-1.1542,-1.1542,-1.1542,-1.1542,-1.1542,-1.1476,-1.1193,-1.1144,-1.1321,-1.1848,-1.1496,-1.1408,-1.2265,-1.1832,-1.1386,-1.1408,-1.1408,-1.1408,-1.1408,-1.1494,-1.1531,-1.1509,-1.2725,-1.3123,-1.2012,-1.2724,-1.2843,-1.1994,-1.2724,-1.3213,-1.3213,-1.3213,-1.32,-1.3166,-1.32,-1.32,-1.3166,-1.32,-1.3347,-1.356,-1.356,-1.372,-0.5018,-0.5018,-0.5018,-0.5018,-0.5018,-0.5132,-0.5631,-0.6741,-0.7793,-0.8144,-0.9264,-1.0132,-1.0078,-1.0191,-1.0557,-1.1316,-1.1445,-1.1785,-1.2689,-1.2641,-1.2608,-1.2797,-1.2813,-1.2813,-1.2813,-1.2813,-1.2457,-1.1604,-1.0262,-0.9768,-1.036,-1.0648,-1.0776,-1.0776,-1.1313,-1.154,-1.1313,-1.1318,-1.1139,-1.0875,-1.0558,-1.0421,-1.0337,-0.9907,-0.9563,-0.9301,-0.9087,-0.8872,-0.8612,-0.8612,-0.8612,-0.8612,-0.8612,-0.8612,-0.8612,-0.8612,-0.8612,-0.8612,-0.8612,-0.8612,-0.8612,-0.8612,-0.8828,-0.9345,-1.0636,-1.1149,-1.137,-1.1757,-1.1585,-1.1284,-1.1284,-1.1284,-1.1284,-1.1284,-1.1284,-1.1257,-1.116,-1.1144,-1.1203,-1.1441,-1.1292,-1.1272,-1.1612,-1.1005,-1.0463,-1.0463,-1.0463,-1.0463,-1.0463,-1.0939,-1.1284,-1.1284,-1.1838,-1.2037,-1.1556,-1.1843,-1.1885,-1.1508,-1.2391,-1.264,-1.2093,-1.2599,-1.2566,-1.1829,-1.1975,-1.2271,-1.265,-1.2814,-1.3249,-1.3873,-1.3316,-1.3115,-0.5015,-0.5018,-0.5018,-0.5018,-0.5207,-0.5589,-0.6163,-0.7293,-0.8364,-0.8803,-0.963,-1.0203,-1.0024,-1.0165,-1.0525,-1.1193,-1.1364,-1.1763,-1.2689,-1.2678,-1.2678,-1.2894,-1.2861,-1.2714,-1.242,-1.206,-1.1424,-1.0471,-0.9377,-0.8751,-0.8734,-0.8993,-0.9257,-0.9467,-1.0651,-1.1176,-1.0868,-1.0868,-1.0868,-1.0868,-1.0294,-0.998,-0.998,-0.955,-0.9161,-0.8859,-0.8727,-0.8468,-0.8164,-0.8076,-0.8072,-0.8072,-0.8208,-0.8296,-0.8296,-0.852,-0.8612,-0.8612,-0.8612,-0.8612,-0.8612,-0.8612,-0.8612,-0.8696,-0.9345,-0.999,-1.0549,-1.0809,-1.0679,-1.0511,-1.0511,-1.0511,-1.0511,-1.0511,-1.0511,-1.0511,-1.0511,-1.0511,-1.0593,-1.0852,-1.0679,-1.0593,-1.0852,-1.012,-0.9515,-0.9515,-0.9515,-0.9515,-0.9515,-1.0077,-1.0511,-1.0511,-1.0511,-1.0593,-1.0852,-1.1154,-1.1192,-1.089,-1.1757,-1.1972,-1.1322,-1.1929,-1.1886,-1.1037,-1.1198,-1.1545,-1.2003,-1.2184,-1.2619,-1.3264,-1.2577,-1.2143,-0.5054,-0.5018,-0.5018,-0.5018,-0.5741,-0.6503,-0.6503,-0.7961,-0.9301,-0.9296,-0.976,-1.018,-1.0218,-1.0242,-1.0525,-1.1193,-1.1504,-1.1946,-1.271,-1.2958,-1.3098,-1.3104,-1.2938,-1.2484,-1.1592,-1.0356,-0.9608,-0.9608,-0.8515,-0.7794,-0.779,-0.7509,-0.7687,-0.8504,-1.0342,-1.0868,-0.9946,-0.9903,-0.9903,-0.9903,-0.8982,-0.854,-0.85,-0.8053,-0.7834,-0.779,-0.7312,-0.7139,-0.7095,-0.6912,-0.6823,-0.6868,-0.7309,-0.7533,-0.7621,-0.834,-0.8612,-0.8612,-0.8612,-0.8612,-0.8612,-0.8612,-0.8612,-0.8612,-0.8612,-0.8612,-0.8828,-0.9689,-0.9301,-0.8612,-0.8612,-0.8612,-0.8612,-0.8612,-0.8612,-0.8612,-0.8612,-0.8612,-0.8867,-0.9728,-0.9213,-0.8915,-0.9772,-0.917,-0.8612,-0.8612,-0.8612,-0.8612,-0.8612,-0.8612,-0.8612,-0.8612,-0.8612,-0.8999,-0.9859,-1.0766,-1.089,-0.999,-1.0809,-1.1327,-1.1284,-1.1327,-1.1322,-1.1278,-1.1284,-1.1278,-1.1322,-1.1322,-1.1322,-1.1322,-1.1322,-1.0809,-0.7126,-0.7126,-0.7126,-0.7126,-0.7353,-0.7732,-0.8304,-0.9024,-0.9676,-1.0057,-1.0433,-1.0621,-1.0434,-1.0582,-1.0879,-1.1406,-1.163,-1.2002,-1.2899,-1.2137,-1.1663,-1.1964,-1.116,-1.0479,-1.024,-0.9191,-0.8517,-0.8517,-0.7486,-0.6792,-0.6623,-0.7139,-0.753,-0.769,-0.8777,-0.9244,-0.8938,-0.8938,-0.8938,-0.8938,-0.8632,-0.85,-0.85,-0.8364,-0.8101,-0.779,-0.7658,-0.7401,-0.7095,-0.6868,-0.6779,-0.6868,-0.7312,-0.7489,-0.7577,-0.834,-0.8612,-0.8612,-0.8612,-0.8612,-0.8612,-0.8612,-0.8612,-0.852,-0.7981,-0.8208,-0.8652,-0.8911,-0.8828,-0.8612,-0.8612,-0.8612,-0.8612,-0.8612,-0.8612,-0.8612,-0.8612,-0.8612,-0.8696,-0.8955,-0.8784,-0.8696,-0.8955,-0.8784,-0.8612,-0.8612,-0.8612,-0.8612,-0.8612,-0.8612,-0.8612,-0.8612,-0.8612,-0.87,-0.8999,-0.9301,-0.9345,-0.9043,-0.9859,-1.0077,-0.9476,-1.0033,-1.0077,-0.9476,-0.9476,-0.9733,-1.0332,-1.0332,-1.0332,-1.0332,-1.0332,-0.9859,-0.8268,-0.808,-0.808,-0.808,-0.8385,-0.8803,-0.9296,-0.9823,-1.0308,-1.0654,-1.0802,-1.0827,-1.066,-1.0923,-1.1334,-1.169,-1.1976,-1.2221,-1.2508,-1.1707,-1.1051,-1.0956,-0.987,-0.913,-0.9019,-0.8024,-0.7378,-0.7378,-0.6783,-0.6352,-0.6165,-0.6673,-0.6907,-0.6767,-0.7879,-0.8324,-0.7973,-0.7973,-0.7973,-0.7973,-0.7621,-0.7448,-0.7448,-0.7448,-0.7268,-0.7003,-0.7003,-0.683,0.0,-0.6343,-0.6251,-0.6296,-0.6694,-0.6871,-0.7051,-0.7588,-0.7852,-0.7896,-0.7808,-0.7764,-0.7764,-0.7764,-0.7764,-0.7676,-0.7224,-0.758,-0.8204,-0.8204,-0.8388,-0.8612,-0.8612,-0.8612,-0.8612,-0.8612,-0.8612,-0.8612,-0.8612,-0.8612,-0.8612,-0.8612,-0.8612,-0.8612,-0.8612,-0.8612,-0.8612,-0.8612,-0.8612,-0.8612,-0.8612,-0.8612,-0.8612,-0.8612,-0.8612,-0.8612,-0.8612,-0.8612,-0.8612,-0.8612,-0.9126,-0.9174,-0.8612,-0.913,-0.917,-0.8612,-0.8612,-0.8872,-0.9428,-0.9428,-0.9428,-0.9428,-0.9428,-0.913,0.0,-0.8324,-0.8347,-0.8347,-0.9041,-0.9733,-0.9712,-1.0426,0.0,-1.1111,-1.0962,-1.0824,-1.0865,-1.1345,-1.1807,-1.202,-1.24,-1.2468,-1.1677,-1.1409,-1.0878,-0.9851,-0.8885,-0.817,-0.7885,-0.6983,-0.6387,-0.6387,-0.6379,-0.6374,-0.6311,-0.614,-0.6015,-0.5893,-0.7474,-0.7885,-0.7007,-0.7007,-0.7007,-0.7007,-0.613,-0.5688,-0.5688,-0.5688,-0.5688,-0.5688,-0.5688,-0.5688,-0.5688,-0.5463,-0.5416,-0.5416,-0.5633,-0.5899,-0.6127,-0.6343,-0.6605,-0.6779,-0.6517,-0.6428,-0.6428,-0.6384,-0.6387,-0.634,-0.634,-0.6827,-0.7445,-0.7445,-0.7893,-0.8432,-0.8432,-0.8476,-0.852,-0.8476,-0.8476,-0.852,-0.852,-0.852,-0.8524,-0.8612,-0.8612,-0.8612,-0.8612,-0.8612,-0.8612,-0.8612,-0.8612,-0.8612,-0.8612,-0.8612,-0.8612,-0.8612,-0.8612,-0.8612,-0.8612,-0.8612,-0.8612,-0.8612,-0.8612,-0.8612,-0.8612,-0.8612,-0.8612,-0.8612,-0.8612,-0.8612,-0.8612,-0.8612,-0.8612,-0.8612,-0.8612,-0.8612,-1.023,0.0,-1.0631,-1.0614,-1.0845,-1.0988,0.0,-1.0925,-1.1111,-1.1111,-1.1074,-1.1163,-1.1576,-1.177,-1.1987,-1.2482,-1.2174,-1.1802,-1.1555,-1.0158,-0.8664,-0.7387,-0.7024,-0.6865,-0.6786,-0.6534,-0.6387,-0.6387,-0.6358,-0.6255,-0.6135,-0.6013,-0.5893,-0.5731,-0.6145,-0.626,-0.6041,-0.6041,-0.6041,-0.6041,-0.5822,-0.5688,-0.5688,-0.5688,-0.5688,-0.5688,-0.5688,-0.5688,-0.5688,-0.5463,-0.5416,-0.546,-0.5861,-0.6038,-0.6171,-0.6745,-0.6962,-0.7003,-0.6779,-0.6691,-0.6691,-0.6473,-0.6033,-0.5636,-0.5636,-0.6121,-0.665,-0.665,-0.6786,-0.6918,-0.6918,-0.7316,-0.7625,-0.7051,-0.736,-0.7757,-0.7757,-0.7757,-0.7937,-0.8476,-0.8612,-0.8612,-0.8612,-0.8612,-0.8612,-0.8612,-0.8612,-0.8612,-0.8612,-0.8612,-0.8612,-0.8612,-0.8612,-0.8612,-0.8612,-0.8612,-0.8612,-0.8612,-0.8612,-0.8612,-0.8612,-0.8612,-0.8612,-0.8612,-0.8612,-0.8612,-0.8612,-0.8612,-0.8612,-0.8612,-0.8612,-0.8612,-1.0868,-1.115,-1.1397,-1.1384,-1.1443,-1.1453,-1.1341,-1.1208,-1.1111,-1.1111,-1.1111,-1.1238,-1.1627,-1.163,-1.187,-1.2724,-1.1973,-1.0967,-1.0213,-0.8696,-0.7371,-0.6492,-0.6387,-0.6387,-0.6387,-0.6391,-0.6361,-0.6361,-0.6252,-0.613,-0.6007,-0.5939,-0.585,-0.5694,-0.5688,-0.5688,-0.5688,-0.5688,-0.5688,-0.5688,-0.5688,-0.5688,-0.5688,-0.5688,-0.5688,-0.5691,-0.5742,-0.5812,-0.5769,-0.5732,-0.5676,-0.5628,-0.5809,-0.5869,-0.5952,-0.6077,-0.621,-0.6254,-0.5941,-0.5852,-0.5808,-0.5764,-0.5455,-0.5062,-0.5062,-0.5327,-0.5677,-0.5899,-0.6166,-0.6384,-0.6384,-0.6694,-0.6915,-0.6473,-0.6694,-0.7003,-0.7003,-0.7003,-0.7092,-0.7496,-0.7852,-0.8116,-0.8116,-0.8116,-0.8116,-0.8116,-0.7808,-0.7588,-0.7588,-0.7588,-0.7716,-0.8072,-0.8116,-0.8248,-0.8568,-0.8612,-0.8612,-0.8612,-0.8612,-0.8612,-0.8612,-0.8612,-0.8612,-0.8612,-0.8612,-0.8612,-0.8612,-0.8612,-0.8612,-0.8612,-0.8612,-0.8612,-1.106,-1.1335,-1.1478,-1.1434,-1.1479,-1.1531,-1.1447,0.0,0.0,0.0,0.0,0.0,-1.1393,-1.1269,-1.1543,-1.2547,-1.1469,-0.9964,-0.8425,-0.7391,-0.6692,-0.6437,-0.6371,-0.6363,-0.6363,-0.6306,-0.6289,-0.6289,-0.6127,-0.6013,-0.5909,-0.5885,-0.5833,-0.5691,-0.5688,-0.5688,-0.5688,-0.5688,-0.5688,-0.5688,-0.5688,-0.5688,-0.5688,-0.5688,-0.5688,-0.5694,-0.5852,-0.5904,-0.5912,-0.6034,-0.6024,-0.5928,-0.5731,-0.5665,-0.5668,-0.5243,-0.5235,-0.5374,-0.4973,-0.4792,-0.4792,-0.4966,-0.4879,-0.475,-0.4705,-0.4705,-0.4795,-0.5193,-0.5725,-0.6121,-0.6077,-0.6166,-0.6207,-0.6118,-0.6166,-0.6254,-0.6254,-0.6254,-0.6296,-0.6384,-0.6915,-0.7312,-0.7312,-0.7312,-0.7312,-0.7312,-0.6782,-0.6384,-0.6384,-0.6384,-0.665,-0.7268,-0.7312,-0.758,-0.8208,-0.8388,-0.8432,-0.8432,-0.8524,-0.8564,-0.8432,-0.8524,-0.8564,-0.8432,-0.8524,-0.8612,-0.8612,-0.8612,-0.8612,-0.8612,-0.8612,-0.8612,-1.1235,-1.1621,-1.1843,-1.149,-1.1607,-1.17,-1.1242,-1.1141,0.0,0.0,0.0,0.0,-1.1035,-1.1112,-1.1156,-1.099,-0.9926,-0.8702,-0.7564,-0.7042,-0.6692,-0.6437,-0.6352,-0.6293,-0.6293,-0.6187,-0.6113,-0.6113,-0.5999,-0.5923,-0.5904,-0.5812,-0.5707,-0.5688,-0.5688,-0.5688,-0.5688,-0.5688,-0.5688,-0.5688,-0.5688,-0.5688,-0.5688,-0.5688,-0.5688,-0.5694,-0.5852,-0.5904,-0.5912,-0.6034,-0.6075,-0.6048,-0.5899,-0.5847,-0.5863,-0.5679,-0.5599,-0.5599,-0.5374,-0.5149,-0.4966,-0.501,-0.4966,-0.4924,-0.4748,-0.4705,-0.4705,-0.4795,-0.4882,-0.4926,-0.4699,-0.5102,-0.5413,-0.4788,-0.5102,-0.5549,-0.5549,-0.5549,-0.5725,-0.6299,-0.6473,-0.6561,-0.6561,-0.6561,-0.6561,-0.6561,-0.6473,-0.6384,-0.6384,-0.6384,-0.6428,-0.6561,-0.6561,-0.6609,-0.6741,-0.7316,-0.7665,-0.7665,-0.8252,-0.834,-0.7713,-0.8252,-0.8296,-0.7669,-0.8296,-0.8612,-0.8612,-0.8612,-0.8612,-0.8612,-0.8612,-0.8612,-1.1466,-1.1651,-1.1711,-1.1594,-1.1942,-1.2233,-1.1857,-1.1648,-1.1546,0.0,0.0,0.0,-1.1147,-1.0795,-1.0257,-0.9322,-0.9235,-0.8777,-0.7375,-0.7075,-0.6787,-0.6394,-0.6241,-0.617,-0.617,-0.6059,-0.5988,-0.5988,-0.5877,-0.5812,-0.5812,-0.5718,-0.5688,-0.5688,-0.5688,-0.5688,-0.5688,-0.5688,-0.5688,-0.5688,-0.5688,-0.5688,-0.5688,-0.5688,-0.5688,-0.5699,-0.5923,-0.6002,-0.6015,-0.62,-0.6238,-0.6179,-0.6121,-0.6062,-0.5988,-0.5869,-0.5735,-0.5639,-0.5576,-0.5457,-0.5325,-0.5458,-0.5453,-0.5363,-0.5274,-0.5098,-0.4965,-0.4965,-0.4743,-0.448,-0.4525,-0.4659,-0.4701,-0.4389,-0.4567,-0.479,-0.479,-0.479,-0.4879,-0.5186,-0.5589,-0.5858,-0.5858,-0.5858,-0.5858,-0.5858,-0.5552,-0.532,-0.532,-0.5375,-0.5547,-0.5912,-0.5958,-0.6141,-0.6514,-0.6877,-0.7357,-0.804,-0.8028,-0.7848,-0.7533,-0.7448,-0.7275,-0.6915,-0.7228,-0.7408,-0.7408,-0.7408,-0.7408,-0.7408,-0.7408,-0.7408,-1.1844,-1.1845,-1.1827,-1.1863,-1.2192,-1.2441,-1.2325,-1.2035,-1.1834,-1.188,0.0,-1.1558,-1.122,-1.0396,-0.9379,-0.8112,-0.8645,-0.8698,-0.7392,-0.7103,-0.6846,-0.637,-0.6163,-0.6043,-0.6043,-0.5934,-0.5863,-0.5863,-0.5737,-0.5688,-0.5688,-0.5688,-0.5688,-0.5688,-0.5688,-0.5688,-0.5688,-0.5688,-0.5688,-0.5688,-0.5688,-0.5688,-0.5688,-0.5688,-0.5688,-0.5699,-0.5953,-0.6059,-0.6102,-0.6312,-0.6363,-0.6306,-0.6328,-0.6195,-0.6075,-0.598,-0.5855,-0.5709,-0.5756,-0.5737,-0.5719,-0.5901,-0.5867,-0.5797,-0.57,-0.5501,-0.5298,-0.5298,-0.4965,-0.4585,-0.4701,-0.4512,-0.433,-0.433,-0.4314,-0.43,-0.43,-0.43,-0.43,-0.43,-0.4746,-0.5156,-0.5181,-0.5185,-0.5195,-0.522,-0.4789,-0.4467,-0.4467,-0.4528,-0.4808,-0.5325,-0.537,-0.5653,-0.6364,-0.6458,-0.6935,-0.8076,-0.7615,-0.7218,-0.7003,-0.6605,-0.634,-0.6166,-0.6299,-0.6384,-0.6384,-0.6384,-0.6384,-0.6384,-0.6384,-0.6384,-1.2374,-1.2554,-1.2734,-1.2432,-1.2126,-1.1953,-1.2219,-1.1879,-1.1616,-1.184,-1.1427,-1.0958,-1.0922,-0.9886,-0.876,-0.7786,-0.7787,-0.7777,-0.7263,-0.7001,-0.6712,-0.6422,-0.6128,-0.5915,-0.5915,-0.5812,-0.5702,-0.5702,-0.5694,-0.5688,-0.5688,-0.5688,-0.5688,-0.5688,-0.5688,-0.5688,-0.5688,-0.5688,-0.5688,-0.5688,-0.5688,-0.5688,-0.5688,-0.5688,-0.5688,-0.5696,-0.5863,-0.598,-0.6094,-0.6227,-0.6336,-0.6365,-0.6309,-0.6195,-0.6083,-0.6075,-0.6072,-0.6072,-0.6064,-0.6067,-0.6072,-0.6072,-0.6078,-0.6036,-0.5797,-0.5695,-0.564,-0.564,-0.5499,-0.5237,-0.4866,-0.4612,-0.438,-0.438,-0.4361,-0.43,-0.43,-0.43,-0.43,-0.43,-0.4344,-0.4416,-0.4456,-0.4472,-0.4501,-0.4635,-0.4606,-0.4563,-0.4563,-0.4616,-0.4621,-0.4666,-0.4666,-0.4948,-0.5606,-0.5698,-0.6025,-0.681,-0.6737,-0.634,-0.5597,-0.6077,-0.6121,-0.5505,-0.6077,-0.6384,-0.6384,-0.6384,-0.6384,-0.6384,-0.6384,-0.6384,-1.1953,-1.2035,-1.2295,-1.2331,-1.2419,0.0,0.0,-1.2475,-1.2498,-1.2409,-1.1719,-1.0841,-0.9793,-0.8812,-0.8033,-0.7654,-0.7645,-0.7563,-0.7268,-0.6951,-0.6623,-0.6392,-0.6005,-0.5798,-0.5798,-0.5715,-0.5688,-0.5688,-0.5688,-0.5688,-0.5688,-0.5688,-0.5688,-0.5688,-0.5688,-0.5688,-0.5688,-0.5688,-0.5688,-0.5688,-0.5688,-0.5688,-0.5688,-0.5688,-0.5688,-0.5694,-0.5852,-0.5972,-0.6094,-0.6268,-0.6333,-0.6376,-0.6312,-0.6289,-0.6237,-0.6113,-0.6132,-0.6189,-0.6113,-0.6135,-0.6248,-0.6248,-0.6246,-0.6255,-0.6154,-0.6007,-0.5855,-0.6002,-0.5764,-0.5451,-0.5388,-0.5125,-0.491,-0.502,-0.4863,-0.4717,-0.4645,-0.4566,-0.4497,-0.4373,-0.4383,-0.4414,-0.4506,-0.452,-0.4532,-0.4614,-0.462,-0.4657,-0.4657,-0.4704,-0.4734,-0.4734,-0.4734,-0.4833,-0.5076,-0.5125,-0.5198,-0.5432,-0.5797,-0.5851,-0.5532,-0.5281,-0.5017,-0.4795,-0.4999,-0.5099,-0.5099,-0.5099,-0.5099,-0.5099,-0.5122,-0.5153,-1.1836,-1.1869,-1.2152,-1.2274,0.0,0.0,-1.2728,-1.2852,-1.2826,-1.2353,-1.1521,-1.0341,-0.8586,-0.8114,-0.7884,-0.7504,-0.7495,-0.7462,-0.7224,-0.6858,-0.653,-0.6349,-0.5961,-0.5688,-0.5688,-0.5688,-0.5688,-0.5688,-0.5688,-0.5688,-0.5688,-0.5688,-0.5688,-0.5688,-0.5688,-0.5688,-0.5688,-0.5688,-0.5688,-0.5688,-0.5419,-0.524,-0.524,-0.524,-0.524,-0.5243,-0.536,-0.566,-0.6092,-0.6176,-0.6301,-0.6379,-0.635,-0.6323,-0.6312,-0.6227,-0.6249,-0.6309,-0.6225,-0.6252,-0.6323,-0.6323,-0.6374,-0.6387,-0.6387,-0.6231,-0.6072,-0.6271,-0.6075,-0.5811,-0.5876,-0.5631,-0.5279,-0.527,-0.5122,-0.4993,-0.4882,-0.4754,-0.4634,-0.4513,-0.4479,-0.4508,-0.46,-0.4616,-0.4624,-0.4651,-0.4708,-0.4749,-0.4749,-0.475,-0.4784,-0.4784,-0.4784,-0.4784,-0.4784,-0.4784,-0.476,-0.4751,-0.5123,-0.5343,-0.528,-0.4744,-0.4479,-0.4479,-0.4416,-0.4385,-0.4385,-0.4385,-0.4385,-0.4387,-0.4449,-0.4479,-1.2166,-1.229,-1.2535,-1.2367,-1.2469,-1.2644,-1.2923,-1.282,-1.2416,-1.1465,-1.0524,-0.9305,-0.7459,-0.8011,-0.8424,-0.7279,-0.7268,-0.7316,-0.7119,-0.6697,-0.6384,-0.6384,-0.5994,-0.5688,-0.5688,-0.5688,-0.5688,-0.5688,-0.5688,-0.5688,-0.5688,-0.5688,-0.5688,-0.5688,-0.5688,-0.5688,-0.5688,-0.5688,-0.5688,-0.5644,-0.4748,-0.43,-0.43,-0.43,-0.43,-0.43,-0.43,-0.4995,-0.6086,-0.6089,-0.6225,-0.6384,-0.6384,-0.6384,-0.6384,-0.6384,-0.6384,-0.6387,-0.6387,-0.6387,-0.6387,-0.6387,-0.6387,-0.6387,-0.6387,-0.6387,-0.6387,-0.6387,-0.6387,-0.6387,-0.6384,-0.5958,-0.5414,-0.5115,-0.4993,-0.4993,-0.4993,-0.4808,-0.4621,-0.4621,-0.4621,-0.4604,-0.4694,-0.471,-0.4738,-0.4772,-0.4784,-0.4784,-0.4784,-0.4784,-0.4784,-0.4784,-0.4784,-0.4784,-0.4784,-0.4784,-0.4784,-0.4784,-0.4784,-0.4757,-0.4629,-0.4623,-0.4621,-0.4621,-0.4621,-0.4621,-0.4621,-0.4621,-0.4621,-0.4621,-0.4621,-0.4621,-1.1319,-1.1588,-1.2112,-1.2165,-1.2126,-1.2088,-1.2077,-1.2026,0.0,-0.9693,-0.9116,-0.8561,-0.7323,-0.737,-0.7507,-0.7143,-0.7136,-0.7149,-0.7102,-0.6697,-0.6384,-0.6384,-0.5994,-0.5688,-0.5688,-0.5688,-0.5688,-0.5688,-0.5688,-0.5688,-0.5688,-0.5688,-0.5688,-0.5688,-0.5062,-0.4701,-0.4701,-0.4074,-0.3717,-0.3717,-0.3449,-0.3673,-0.43,-0.3628,-0.3315,-0.3361,-0.4134,-0.4686,-0.5192,-0.5968,-0.6328,-0.632,-0.632,-0.632,-0.632,-0.632,-0.6369,-0.6387,-0.6387,-0.6387,-0.6387,-0.6387,-0.6387,-0.6387,-0.6387,-0.6387,-0.6387,-0.6387,-0.6387,-0.6368,-0.6088,-0.5958,-0.5884,-0.5945,-0.5724,-0.5446,-0.5376,-0.5238,-0.5018,-0.4705,-0.4667,-0.4696,-0.4781,-0.4746,-0.4756,-0.478,-0.4784,-0.4784,-0.4784,-0.4784,-0.4784,-0.4784,-0.4784,-0.4784,-0.4784,-0.4784,-0.4784,-0.4784,-0.4784,-0.4762,-0.4759,-0.47,-0.4667,-0.4667,-0.4606,-0.4621,-0.4621,-0.4621,-0.4621,-0.4621,-0.4638,-0.4667,-1.1198,-1.1525,-1.1941,-1.1782,-1.1637,-1.1294,-1.0583,-1.0419,-1.0061,-0.8781,-0.8195,-0.7779,-0.7187,-0.7095,-0.7095,-0.7095,-0.7095,-0.7095,-0.7095,-0.6697,-0.6384,-0.6384,-0.5994,-0.5688,-0.5688,-0.5688,-0.5688,-0.5688,-0.5688,-0.5555,-0.5151,-0.5151,-0.4971,-0.4612,-0.403,-0.3762,-0.3762,-0.3179,-0.2911,-0.2911,-0.251,-0.2598,-0.3135,-0.2553,-0.2286,-0.2379,-0.3459,-0.4201,-0.4772,-0.5466,-0.5999,-0.6336,-0.6336,-0.6336,-0.6336,-0.6336,-0.6377,-0.6337,-0.5934,-0.6034,-0.6284,-0.5381,-0.5432,-0.5684,-0.5281,-0.5432,-0.5787,-0.5787,-0.5787,-0.5822,-0.6054,-0.574,-0.5527,-0.608,-0.5904,-0.5618,-0.5534,-0.5496,-0.5275,-0.4845,-0.4808,-0.4874,-0.4826,-0.4784,-0.4784,-0.4784,-0.4784,-0.4784,-0.4784,-0.4784,-0.4784,-0.4784,-0.4784,-0.4784,-0.4784,-0.4784,-0.4784,-0.4784,-0.4784,-0.4784,-0.4784,-0.4785,-0.4759,-0.4759,-0.4704,-0.4675,-0.4675,-0.4675,-0.4675,-0.4677,-0.4732,-0.4759,-1.1424,-1.1695,-1.1834,-1.1203,-1.0847,-1.0269,-0.8742,-0.836,-0.8376,-0.8376,-0.769,-0.7095,-0.7095,-0.7095,-0.7095,-0.7095,-0.7095,-0.7095,-0.7098,-0.6697,-0.6384,-0.6387,-0.5994,-0.5688,-0.5688,-0.5644,-0.5555,-0.5555,-0.5508,-0.506,-0.421,-0.4164,-0.3762,-0.2913,-0.2823,-0.2777,-0.2777,-0.2689,-0.2644,-0.2644,-0.1704,-0.1256,-0.1256,-0.1256,-0.1348,-0.1492,-0.2435,-0.3511,-0.4569,-0.475,-0.5386,-0.6287,-0.6384,-0.6387,-0.6387,-0.6284,-0.6237,-0.6087,-0.5033,-0.5284,-0.5784,-0.3825,-0.3879,-0.4481,-0.3475,-0.3879,-0.4634,-0.4634,-0.4634,-0.4883,-0.5834,-0.5281,-0.461,-0.5468,-0.5666,-0.5636,-0.5636,-0.5636,-0.5486,-0.4935,-0.5037,-0.514,-0.4834,-0.4784,-0.4784,-0.4684,-0.4734,-0.4784,-0.4684,-0.4734,-0.4784,-0.4784,-0.4784,-0.4784,-0.4784,-0.4784,-0.4784,-0.4784,-0.4784,-0.4784,-0.4784,-0.4784,-0.4784,-0.4784,-0.4784,-0.4784,-0.4784,-0.4784,-0.4784,-0.4784,-0.4784,-0.4784,-1.0411,-1.0544,-1.0737,-1.005,-0.9447,-0.872,-0.7632,-0.7401,-0.7415,-0.7415,-0.7231,-0.7095,-0.7095,-0.7095,-0.7095,-0.7095,-0.7095,-0.7054,-0.6881,-0.6609,-0.6343,-0.6169,-0.5908,-0.5688,-0.5688,-0.5015,-0.4612,-0.4612,-0.3941,-0.3403,-0.3226,-0.3181,-0.3092,-0.2911,-0.2152,-0.1704,-0.1704,-0.0987,-0.0629,-0.0629,-0.0404,-0.0314,-0.0314,-0.0314,-0.0776,-0.1551,-0.1802,-0.2522,-0.3606,-0.4423,-0.4935,-0.5236,-0.6087,-0.6387,-0.6287,-0.5436,-0.5135,-0.4983,-0.3927,-0.3676,-0.3825,-0.3374,-0.3374,-0.3525,-0.3274,-0.3374,-0.3525,-0.3525,-0.3525,-0.3575,-0.3825,-0.4128,-0.4273,-0.3857,-0.4868,-0.5892,-0.5892,-0.5892,-0.5739,-0.524,-0.514,-0.514,-0.4834,-0.4784,-0.4533,-0.3676,-0.428,-0.4481,-0.3676,-0.428,-0.4784,-0.4784,-0.4784,-0.4784,-0.4784,-0.4784,-0.4784,-0.4784,-0.4784,-0.4784,-0.4784,-0.4784,-0.4784,-0.4784,-0.4784,-0.4784,-0.4784,-0.4784,-0.4784,-0.4784,-0.4784,-0.4784,-1.0174,-1.0308,-1.0433,-0.9286,-0.8424,-0.7702,-0.7228,-0.7095,-0.7095,-0.7095,-0.7095,-0.7095,-0.7095,-0.7095,-0.7095,-0.7095,-0.701,-0.6745,-0.621,-0.5808,-0.5361,-0.4783,-0.4518,-0.4344,-0.4344,-0.3896,-0.3628,-0.3628,-0.3179,-0.2688,-0.2196,-0.2196,-0.1973,-0.1524,-0.0987,-0.0718,-0.0718,-0.0225,0.0,0.0,0.0,0.0,0.0,0.0,-0.0324,-0.0857,-0.0818,-0.1423,-0.2469,-0.3022,-0.3575,-0.413,-0.5233,-0.5334,-0.488,-0.4834,-0.4481,-0.3879,-0.2821,-0.2771,-0.3022,-0.2016,-0.2016,-0.2318,-0.1815,-0.2016,-0.2418,-0.2418,-0.2418,-0.2569,-0.3073,-0.3123,-0.3073,-0.3173,-0.4228,-0.5236,-0.5236,-0.5336,-0.5438,-0.5388,-0.5388,-0.5135,-0.4383,-0.3676,-0.3073,-0.2519,-0.2922,-0.3274,-0.3224,-0.3676,-0.423,-0.4734,-0.4784,-0.4784,-0.4784,-0.4784,-0.4784,-0.4784,-0.4784,-0.4784,-0.4784,-0.4784,-0.4784,-0.4784,-0.4784,-0.4784,-0.4784,-0.4784,-0.4784,-0.4784,-0.4784,-0.4784,-1.0017,-0.9942,-0.9803,-0.8571,-0.7687,-0.7095,-0.7095,-0.7095,-0.7095,-0.7095,-0.7095,-0.7095,-0.7095,-0.6962,-0.683,-0.6827,-0.652,-0.5985,-0.5137,-0.4692,-0.4113,-0.3264,-0.2999,-0.2911,-0.2911,-0.2732,-0.2644,-0.2644,-0.251,-0.2017,-0.1211,-0.1166,-0.0808,-0.0045,0.0,0.0,0.0,0.0,0.0,0.0,0.0,0.0,0.0,0.0,0.0,0.0,0.0,-0.0496,-0.1361,-0.1513,-0.2116,-0.3022,-0.413,-0.3979,-0.3274,-0.3979,-0.3676,-0.2771,-0.1714,-0.1915,-0.2368,-0.0555,-0.0606,-0.116,-0.0252,-0.0606,-0.1311,-0.1311,-0.1311,-0.1513,-0.2418,-0.2116,-0.1765,-0.2469,-0.3323,-0.3976,-0.4178,-0.4381,-0.4632,-0.5033,-0.5081,-0.4682,-0.3527,-0.242,-0.1613,-0.1361,-0.1462,-0.1865,-0.2568,-0.2821,-0.3324,-0.4431,-0.4533,-0.4582,-0.4784,-0.4784,-0.4784,-0.4784,-0.4784,-0.4784,-0.4784,-0.4784,-0.4784,-0.4784,-0.4784,-0.4784,-0.4784,-0.4784,-0.4784,-0.4784,-0.4784,-0.4784,-0.9018,-0.7949,-0.7255,-0.7294,-0.7187,-0.7095,-0.7095,-0.7095,-0.7095,-0.7095,-0.7095,-0.7095,-0.7095,-0.6428,-0.5852,-0.5669,-0.4865,-0.4107,-0.3575,-0.3441,-0.3264,-0.2956,-0.2911,-0.2911,-0.2911,-0.2107,-0.1614,-0.1614,-0.0853,-0.0314,-0.018,-0.018,-0.0135,0.0,0.0,0.0,0.0,0.0,0.0,0.0,0.0,0.0,0.0,0.0,0.0,0.0,0.0,-0.0099,-0.0303,-0.121,-0.1663,-0.1915,-0.2972,-0.3324,-0.3123,-0.2318,-0.1915,-0.1664,-0.0606,-0.0303,-0.0404,-0.0101,-0.0101,-0.0202,-0.0051,-0.0101,-0.0202,-0.0202,-0.0202,-0.0252,-0.0404,-0.1009,-0.1412,-0.0606,-0.121,-0.2217,-0.3173,-0.3374,-0.3374,-0.3222,-0.2972,-0.2672,-0.2268,-0.2067,-0.1563,-0.0403,-0.1008,-0.131,-0.0504,-0.126,-0.2217,-0.3324,-0.3425,-0.3776,-0.4734,-0.4784,-0.4784,-0.4784,-0.4784,-0.4784,-0.4784,-0.4784,-0.4784,-0.4784,-0.4784,-0.4784,-0.4784,-0.4784,-0.4784,-0.4784,-0.4784,-0.4784,-0.8356,-0.7371,-0.677,-0.7021,-0.7095,-0.7095,-0.7095,-0.6605,-0.616,-0.616,-0.562,-0.5354,-0.6024,-0.5267,-0.451,-0.4419,-0.3885,-0.3263,-0.2505,-0.2283,-0.1972,-0.1345,-0.1256,-0.1256,-0.1256,-0.0853,-0.0629,-0.0629,-0.0225,0.0,0.0,0.0,0.0,0.0,0.0,0.0,0.0,0.0,0.0,0.0,0.0,0.0,0.0,0.0,0.0,0.0,0.0,0.0,-0.0051,-0.0505,-0.0707,-0.0807,-0.1865,-0.1915,-0.1412,-0.1563,-0.121,-0.0656,-0.0151,0.0,0.0,0.0,0.0,0.0,0.0,0.0,0.0,0.0,0.0,0.0,0.0,-0.0353,-0.0606,-0.0101,-0.0353,-0.0858,-0.1311,-0.1865,-0.2418,-0.2719,-0.2217,-0.1664,-0.1361,-0.0807,-0.0152,0.0614,0.0307,0.0051,0.0052,-0.0364,-0.1039,-0.2129,-0.2233,-0.2439,-0.2907,-0.355,-0.3886,-0.3886,-0.4457,-0.4784,-0.4784,-0.4784,-0.4784,-0.4784,-0.4784,-0.4784,-0.4784,-0.4784,-0.4784,-0.4784,-0.4784,-0.4784,-0.7808,-0.7063,-0.6668,-0.696,-0.7068,-0.7007,-0.6738,-0.6027,-0.5314,-0.5001,-0.3972,-0.3438,-0.4332,-0.3796,-0.3215,-0.317,-0.2771,-0.2241,-0.1443,-0.1175,-0.077,-0.0091,0.0,0.0,0.0,0.0,0.0,0.0,0.0,0.0,0.0,0.0,0.0,0.0,0.0,0.0,0.0,0.0,0.0,0.0,0.0,0.0,0.0,0.0,0.0,0.0,0.0,0.0,0.0,0.0,0.0,-0.0101,-0.0858,-0.0707,-0.0101,-0.0908,-0.0707,0.0,0.0,0.0,0.0,0.0,0.0,0.0,0.0,0.0,0.0,0.0,0.0,0.0,0.0,0.0,0.0,0.0,0.0,0.0,0.0,-0.0606,-0.1361,-0.1965,-0.1417,-0.0813,-0.0559,0.0153,0.0824,0.1148,0.1255,0.1103,0.0479,0.0479,0.0106,-0.0957,-0.1117,-0.1222,-0.1488,-0.2257,-0.2757,-0.2796,-0.3525,-0.4098,-0.4381,-0.4381,-0.4533,-0.4784,-0.4784,-0.4784,-0.4784,-0.4784,-0.4784,-0.4784,-0.4784,-0.4634,-0.7309,-0.6726,-0.6429,-0.6831,-0.6997,-0.6827,-0.5714,-0.5447,-0.509,-0.3927,-0.2726,-0.1924,-0.1969,-0.2103,-0.2103,-0.1924,-0.112,-0.0451,-0.0138,-0.0092,-0.0047,0.0,0.0,0.0,0.0,0.0,0.0,0.0,0.0,0.0,0.0,0.0,0.0,0.0,0.0,0.0,0.0,0.0,0.0,0.0,0.0,0.0,0.0,0.0,0.0,0.0,0.0,0.0,0.0,0.0,0.0,0.0,-0.0051,-0.0051,0.0,-0.0051,-0.0051,0.0,0.0,0.0,0.0,0.0,0.0,0.0,0.0,0.0,0.0,0.0,0.0,0.0,0.0,0.0,0.0,0.0,0.0,0.0,0.0,-0.0051,-0.0101,-0.0151,-0.0102,0.0,0.0311,0.0368,0.0532,0.0799,0.1119,0.1279,0.1227,0.1439,0.1224,0.0106,0.0,-0.0372,-0.1435,-0.154,-0.1633,-0.1657,-0.1757,-0.2204,-0.3226,-0.3274,-0.3776,-0.4784,-0.4784,-0.4784,-0.4784,-0.4784,-0.4784,-0.4784,-0.4784,-0.428,-0.6702,-0.6255,-0.6063,-0.5915,-0.5794,-0.5483,-0.4614,-0.3751,-0.295,-0.2547,-0.1478,-0.0628,-0.0628,-0.0718,-0.0718,-0.0673,-0.0359,-0.009,0.0,0.0,0.0,0.0,0.0,0.0,0.0,0.0,0.0,0.0,0.0,0.0,0.0,0.0,0.0,0.0,0.0,0.0,0.0,0.0,0.0,0.0,0.0,0.0,0.0,0.0,0.0,0.0,0.0,0.0,0.0,0.0,0.0,0.0,0.0,0.0,0.0,0.0,0.0,0.0,0.0,0.0,0.0,0.0,0.0,0.0,0.0,0.0,0.0,0.0,0.0,0.0,0.0,0.0,0.0,0.0,0.0,0.0,0.0,0.0,0.0,0.0,0.0,0.0052,0.0105,0.0159,0.0214,0.0487,0.0651,0.0817,0.0991,0.1267,0.1322,0.0936,0.1046,0.1046,0.066,-0.0054,-0.0483,-0.0528,-0.1198,-0.1797,-0.2169,-0.2167,-0.267,-0.3728,-0.3776,-0.413,-0.4784,-0.4784,-0.4784,-0.4784,-0.4784,-0.423,-0.6324,-0.5915,-0.5907,-0.5733,-0.5286,-0.4704,-0.3978,-0.2771,-0.17,-0.1299,-0.0539,0.0,0.0,0.0,0.0,0.0,0.0,0.0,0.0,0.0,0.0,0.0,0.0,0.0,0.0,0.0,0.0,0.0,0.0,0.0,0.0,0.0,0.0,0.0,0.0,0.0,0.0,0.0,0.0,0.0,0.0,0.0,0.0,0.0,0.0,0.0,0.0,0.0,0.0,0.0,0.0,0.0,0.0,0.0,0.0,0.0,0.0,0.0,0.0,0.0,0.0,0.0,0.0,0.0,0.0,0.0,0.0,0.0,0.0,0.0,0.0,0.0,0.0,0.0,0.0,0.0,0.0,0.0,0.0,0.0,0.0,0.0,0.0,0.0,0.0054,0.022,0.0331,0.0499,0.0728,0.1009,0.1177,0.1177,0.1458,0.1627,0.1627,0.1054,0.0655,0.064,-0.0053,-0.0672,-0.106,-0.1058,-0.1562,-0.262,-0.267,-0.3022,-0.3726,-0.4079,-0.428,-0.423,-0.3879,-0.3172,0.0,0.0,0.0,-0.6339,-0.5621,-0.4601,-0.3749,-0.2632,-0.1431,-0.0224,0.0,0.0,0.0,0.0,0.0,0.0,0.0,0.0,0.0,0.0,0.0,0.0,0.0,0.0,0.0,0.0,0.0,0.0,0.0,0.0,0.0,0.0,0.0,0.0,0.0,0.0,0.0,0.0,0.0,0.0,0.0,0.0,0.0,0.0,0.0,0.0,0.0,0.0,0.0,0.0,0.0,0.0,0.0,0.0,0.0,0.0,0.0,0.0,0.0,0.0,0.0,0.0,0.0,0.0,0.0,0.0,0.0,0.0,0.0,0.0,0.0,0.0,0.0,0.0,0.0,0.0,0.0,0.0,0.0,0.0,0.0,0.0,0.0,0.0,0.0,0.0,0.0224,0.0393,0.0393,0.0673,0.0897,0.0897,0.1121,0.129,0.129,0.157,0.1769,0.1708,0.1704,0.1205,0.0101,0.005,-0.0454,-0.1513,-0.1563,-0.1563,-0.1613,-0.267,-0.3173,-0.3123,-0.2066,-0.1008,-0.6899,0.0,0.0,0.0,0.0,0.0,-0.2393,-0.1454,-0.0562,-0.0089,0.0,0.0,0.0,0.0,0.0,0.0,0.0,0.0,0.0,0.0,0.0,0.0,0.0,0.0,0.0,0.0,0.0,0.0,0.0,0.0,0.0,0.0,0.0,0.0,0.0,0.0,0.0,0.0,0.0,0.0,0.0,0.0,0.0,0.0,0.0,0.0,0.0,0.0,0.0,0.0,0.0,0.0,0.0,0.0,0.0,0.0,0.0,0.0,0.0,0.0,0.0,0.0,0.0,0.0,0.0,0.0,0.0,0.0,0.0,0.0,0.0,0.0,0.0,0.0,0.0,0.0,0.0,0.0,0.0,0.0,0.0,0.0,0.0,0.0,0.0,0.0,0.0056,0.0112,0.0112,0.0336,0.0561,0.0561,0.0841,0.1065,0.129,0.1402,0.1493,0.1708,0.1704,0.152,0.1163,0.1161,0.0656,-0.0403,-0.0454,-0.0806,-0.1613,-0.1915,-0.2066,-0.2016,-0.0957,-0.0302,-0.765,-0.6698,-0.5877,-0.5712,0.0,0.0,-0.2584,-0.1523,-0.0597,-0.0089,0.0,0.0,0.0,0.0,0.0,0.0,0.0,0.0,0.0,0.0,0.0,0.0,0.0,0.0,0.0,0.0,0.0,0.0,0.0,0.0,0.0,0.0,0.0,0.0,0.0,0.0,0.0,0.0,0.0,0.0,0.0,0.0,0.0,0.0,0.0,0.0,0.0,0.0,0.0,0.0,0.0,0.0,0.0,0.0,0.0,0.0,0.0,0.0,0.0,0.0,0.0,0.0,0.0,0.0,0.0,0.0,0.0,0.0,0.0,0.0,0.0,0.0,0.0,0.0,0.0,0.0,0.0,0.0,0.0,0.0,0.0,0.0,0.0,0.0,0.0,0.0,0.0,0.0,0.0,0.0112,0.0224,0.0224,0.0505,0.0727,0.0889,0.1165,0.1368,0.1532,0.1634,0.1666,0.1619,0.1617,0.1313,0.0656,0.0656,0.0353,-0.0252,-0.0706,-0.0706,-0.0252,0.0353,0.0656,-0.8462,-0.7469,0.0,-0.7301,-0.5837,0.0,-0.3491,-0.2328,-0.1145,-0.0178,0.0,0.0,0.0,0.0,0.0,0.0,0.0,0.0,0.0,0.0,0.0,0.0,0.0,0.0,0.0,0.0,0.0,0.0,0.0,0.0,0.0,0.0,0.0,0.0,0.0,0.0,0.0,0.0,0.0,0.0,0.0,0.0,0.0,0.0,0.0,0.0,0.0,0.0,0.0,0.0,0.0,0.0,0.0,0.0,0.0,0.0,0.0,0.0,0.0,0.0,0.0,0.0,0.0,0.0,0.0,0.0,0.0,0.0,0.0,0.0,0.0,0.0,0.0,0.0,0.0,0.0,0.0,0.0,0.0,0.0,0.0,0.0,0.0,0.0,0.0,0.0,0.0,0.0,0.0,0.0,0.0,0.0,0.0224,0.039,0.0385,0.0876,0.1241,0.1305,0.1508,0.1597,0.1618,0.1566,0.1566,0.1617,0.1617,0.1617,0.1617,0.0656,0.0656,0.1617,0.1617,0.1617,-0.9366,-0.8165,-0.6943,-0.7085,-0.5945,0.0,-0.3286,-0.2464,-0.1572,-0.026,0.0,0.0,0.0,0.0,0.0,0.0,0.0,0.0,0.0,0.0,0.0,0.0,0.0,0.0,0.0,0.0,0.0,0.0,0.0,0.0,0.0,0.0,0.0,0.0,0.0,0.0,0.0,0.0,0.0,0.0,0.0,0.0,0.0,0.0,0.0,0.0,0.0,0.0,0.0,0.0,0.0,0.0,0.0,0.0,0.0,0.0,0.0,0.0,0.0,0.0,0.0,0.0,0.0,0.0,0.0,0.0,0.0,0.0,0.0,0.0,0.0,0.0,0.0,0.0,0.0,0.0,0.0,0.0,0.0,0.0,0.0,0.0,0.0,0.0,0.0,0.0,0.0,0.0,0.0,0.0,0.0,0.0,0.0056,0.0168,0.0391,0.0496,0.0759,0.1274,0.1151,0.1236,0.1568,0.1415,0.1364,0.1617,0.1617,0.1617,0.1617,0.1414,0.1414,0.1617,0.1617,0.1617,-1.0214,-0.9243,-0.8192,-0.7994,-0.7108,0.0,0.0,-0.3583,-0.2838,-0.105,-0.0707,-0.0576,-0.009,0.0,0.0,0.0,0.0,0.0,0.0,0.0,0.0,0.0,0.0,0.0,0.0,0.0,0.0,0.0,0.0,0.0,0.0,0.0,0.0,0.0,0.0,0.0,0.0,0.0,0.0,0.0,0.0,0.0,0.0,0.0,0.0,0.0,0.0,0.0,0.0,0.0,0.0,0.0,0.0,0.0,0.0,0.0,0.0,0.0,0.0,0.0,0.0,0.0,0.0,0.0,0.0,0.0,0.0,0.0,0.0,0.0,0.0,0.0,0.0,0.0,0.0,0.0,0.0,0.0,0.0,0.0,0.0,0.0,0.0,0.0,0.0,0.0,0.0,0.0,0.0,0.0,0.0,0.0,0.0,0.0056,0.0166,0.0328,0.0536,0.0842,0.0828,0.0969,0.1213,0.1212,0.1314,0.1617,0.1617,0.1617,0.1617,0.1617,0.1617,0.1617,0.1617,0.1617,-1.1272,-1.0529,-0.9814,-0.9355,-0.8387,-0.7138,0.0,0.0,0.0,-0.2166,-0.156,-0.1161,-0.0404,-0.0133,0.0,0.0,0.0,0.0,0.0,0.0,0.0,0.0,0.0,0.0,0.0,0.0,0.0,0.0,0.0,0.0,0.0,0.0,0.0,0.0,0.0,0.0,0.0,0.0,0.0,0.0,0.0,0.0,0.0,0.0,0.0,0.0,0.0,0.0,0.0,0.0,0.0,0.0,0.0,0.0,0.0,0.0,0.0,0.0,0.0,0.0,0.0,0.0,0.0,0.0,0.0,0.0,0.0,0.0,0.0,0.0,0.0,0.0,0.0,0.0,0.0,0.0,0.0,0.0,0.0,0.0,0.0,0.0,0.0,0.0,0.0,0.0,0.0,0.0,0.0,0.0,0.0,0.0,0.0,0.0,0.0,0.0216,0.0371,0.0418,0.0562,0.0707,0.0859,0.1111,0.1364,0.1516,0.1566,0.1617,0.1617,0.1617,0.1617,0.1617,0.1617,0.1617,-1.3054,-1.2075,-1.1213,-1.0623,-0.918,-0.7591,-0.6554,0.0,-0.4579,-0.3256,0.0,-0.136,-0.1252,0.0,0.0,0.0,0.0,0.0,0.0,0.0,0.0,0.0,0.0,0.0,0.0,0.0,0.0,0.0,0.0,0.0,0.0,0.0,0.0,0.0,0.0,0.0,0.0,0.0,0.0,0.0,0.0,0.0,0.0,0.0,0.0,0.0,0.0,0.0,0.0,0.0,0.0,0.0,0.0,0.0,0.0,0.0,0.0,0.0,0.0,0.0,0.0,0.0,0.0,0.0,0.0,0.0,0.0,0.0,0.0,0.0,0.0,0.0,0.0,0.0,0.0,0.0,0.0,0.0,0.0,0.0,0.0,0.0,0.0,0.0,0.0,0.0,0.0,0.0,0.0,0.0,0.0,0.0,0.0,0.0,0.0,0.0054,0.016,0.0372,0.0206,0.0404,0.1111,0.1415,0.1465,0.1263,0.1465,0.1617,0.1617,0.1617,0.1617,0.1617,0.1617,0.1617,-1.3981,-1.3168,-1.2389,-1.1797,-1.0493,-0.9201,-0.8459,-0.754,-0.6461,-0.51,0.0,0.0,0.0,0.0,0.0,0.0,0.0,0.0,0.0,0.0,0.0,0.0,0.0,0.0,0.0,0.0,0.0,0.0,0.0,0.0,0.0,0.0,0.0,0.0,0.0,0.0,0.0,0.0,0.0,0.0,0.0,0.0,0.0,0.0,0.0,0.0,0.0,0.0,0.0,0.0,0.0,0.0,0.0,0.0,0.0,0.0,0.0,0.0,0.0,0.0,0.0,0.0,0.0,0.0,0.0,0.0,0.0,0.0,0.0,0.0,0.0,0.0,0.0,0.0,0.0,0.0,0.0,0.0,0.0,0.0,0.0,0.0,0.0,0.0,0.0,0.0,0.0,0.0,0.0,0.0,0.0,0.0,0.0,0.0,0.0,0.0,0.0053,0.016,0.0052,0.0309,0.099,0.1148,0.1297,0.1489,0.1591,0.1635,0.1617,0.1617,0.1617,0.1617,0.1617,0.1617,-1.5069,-1.4396,-1.3786,-1.3337,-1.2086,-1.086,-1.0444,-0.9443,-0.8205,-0.6799,-0.5725,0.0,0.0,0.0,-0.1175,-0.0482,0.0,0.0,0.0,0.0,0.0,0.0,0.0,0.01,0.0404,0.0151,0.0,0.0,0.0,0.0,0.0,0.0,0.0,0.0,0.0,0.0,0.0,0.0,0.0,0.0,0.0,0.0,0.0,0.0,0.0,0.0,0.0,0.0,0.0,0.0,0.0,0.0,0.0,0.0,0.0,0.0,0.0,0.0,0.0,0.0,0.0,0.0,0.0,0.0,0.0,0.0,0.0,0.0,0.0,0.0,0.0,0.0,0.0,0.0,0.0,0.0,0.0,0.0,0.0,0.0,0.0,0.0,0.0,0.0,0.0,0.0,0.0,0.0,0.0,0.0,0.0,0.0,0.0,0.0,0.0,0.0,0.0,0.0,0.0052,0.0262,0.064,0.08,0.106,0.1465,0.157,0.1612,0.1641,0.1633,0.1578,0.1527,0.157,0.1617,-1.6611,-1.6016,-1.5638,-1.5598,-1.3891,-1.2246,-1.2223,-1.0826,-0.9222,-0.8014,-0.68,-0.57,-0.4776,-0.2857,-0.1399,0.0,-0.0573,0.0,0.0,0.0,0.0,0.0,0.0,0.0396,0.146,0.0606,0.0,0.0,0.0,0.0,0.0,0.0,0.0,0.0,0.0,0.0,0.0,0.0,0.0,0.0,0.0,0.0,0.0,0.0,0.0,0.0,0.0,0.0,0.0,0.0,0.0,0.0,0.0,0.0,0.0,0.0,0.0,0.0,0.0,0.0,0.0,0.0,0.0,0.0,0.0,0.0,0.0,0.0,0.0,0.0,0.0,0.0,0.0,0.0,0.0,0.0,0.0,0.0,0.0,0.0,0.0,0.0,0.0,0.0,0.0,0.0,0.0,0.0,0.0,0.0,0.0,0.0,0.0,0.0,0.0,0.0,0.0,0.0,0.026,0.0262,0.0053,0.0533,0.0854,0.0906,0.1173,0.1438,0.1701,0.1674,0.1557,0.1297,0.1529,0.1617,-1.6848,-1.5786,-1.4973,-1.5785,-1.4251,-1.268,-1.3149,-1.2212,-1.0952,-0.9872,-0.848,-0.7115,-0.601,-0.4614,-0.3151,0.0,0.0,-0.0709,0.0,0.0,0.0259,0.0955,0.0416,0.0146,0.0494,0.0201,0.0,0.0,0.0,0.0,0.0,0.0,0.0,0.0,0.0,0.0,0.0,0.0,0.0,0.0,0.0,0.0,0.0,0.0,0.0,0.0,0.0,0.0,0.0,0.0,0.0,0.0,0.0,0.0,0.0,0.0,0.0,0.0,0.0,0.0,0.0,0.0,0.0,0.0,0.0,0.0,0.0,0.0,0.0,0.0,0.0,0.0,0.0,0.0,0.0,0.0,0.0,0.0,0.0,0.0,0.0,0.0,0.0,0.0,0.0,0.0,0.0,0.0,0.0,0.0,0.0,0.0,0.0,0.0,0.0,0.0,0.0,0.0,0.0108,0.0163,0.0276,0.0441,0.0658,0.0922,0.1139,0.1348,0.144,0.1589,0.1585,0.1321,0.1557,0.1534,-1.7099,-1.6128,-1.5306,-1.5996,-1.4724,-1.3413,-1.3926,-1.3074,-1.1987,-1.136,-1.0151,-0.8738,-0.7197,-0.5968,-0.4599,0.0,0.0,-0.1066,0.0,0.0,0.025,0.0955,0.0401,0.0142,0.0533,0.0246,0.0,0.0,0.0,0.0,0.0,0.0,0.0,0.0,0.0,0.0,0.0,0.0,0.0,0.0,0.0,0.0,0.0,0.0,0.0,0.0,0.0,0.0,0.0,0.0,0.0,0.0,0.0,0.0,0.0,0.0,0.0,0.0,0.0,0.0,0.0,0.0,0.0,0.0,0.0,0.0,0.0,0.0,0.0,0.0,0.0,0.0,0.0,0.0,0.0,0.0,0.0,0.0,0.0,0.0,0.0,0.0,0.0,0.0,0.0,0.0,0.0,0.0,0.0,0.0,0.0,0.0,0.0,0.0,0.0,0.0,0.0,0.0,0.0,0.0055,0.0224,0.028,0.039,0.0717,0.0883,0.1043,0.1141,0.1402,0.1394,0.1173,0.1414,0.144]},{"header":{"parameterUnit":"m.s-1","parameterCategory":1,"la1":30.6,"la2":29.2853,"lo1":-89.7004,"lo2":-87.6739,"dy":0.0162,"dx":0.0183,"nx":112,"ny":82,"refTime":"2024-06-06T18:00:00:Z","depth":0,"parameterNumber":3,"parameterNumberName":"V-component_of_WINDS"},"data":[0.0,0.0,0.0,0.0,0.0,0.0,0.0,0.0,0.0,0.0,0.0,0.0,0.0,0.0,0.0,0.0,0.0,0.0,0.0,0.0,0.0,0.0,0.0,0.0,0.0,0.0,0.0,0.0,0.0,0.0,0.0,0.0,0.0,0.0,0.0,0.0,0.0,0.0,0.0,0.0,0.0,0.0,0.0,0.0,0.0,0.0,0.0,0.0,0.0,0.0,0.0,0.0,0.0,0.0,0.0,0.0,0.0,0.0,0.0,0.0,0.0,0.0,0.0,0.0,0.0,0.0,0.0,0.0,0.0,0.0,0.0,0.0,0.0,0.0,0.0,0.0,0.0,0.0,0.0,0.0,0.0,0.0,0.0,0.0,0.0,0.0,0.0,0.0,0.0,0.0,1.6731,1.5201,1.4514,1.3777,1.2784,1.2579,1.1695,0.9869,0.0,0.0,0.0,0.0,0.0,0.0,0.0,0.0,0.0,0.0,0.0,0.0,0.0,0.0,0.0,0.0,0.0,0.0,0.0,0.0,0.0,0.0,0.0,0.0,0.0,0.0,0.0,0.0,0.0,0.0,0.0,0.0,0.0,0.0,0.0,0.0,0.0,0.0,0.0,0.0,0.0,0.0,0.0,0.0,0.0,0.0,0.0,0.0,0.0,0.0,0.0,0.0,0.0,0.0,0.0,0.0,0.0,0.0,0.0,0.0,0.0,0.0,0.0,0.0,0.0,0.0,0.0,0.0,0.0,0.0,0.0,0.0,0.0,0.0,0.0,0.0,0.0,0.0,0.0,0.0,0.0,0.0,0.0,0.0,0.0,0.0,0.0,0.0,0.0,0.0,0.0,0.0,0.0,0.0,0.0,0.0,0.0,0.0,0.0,0.0,0.0,0.0,0.0,0.0,1.5984,1.4875,1.4609,1.4047,1.2897,1.2868,1.2046,1.0072,0.0,0.0,0.0,0.0,0.0,0.0,0.0,0.0,0.0,0.0,0.0,0.0,0.0,0.0,0.0,0.0,0.0,0.0,0.0,0.0,0.0,0.0,0.0,0.0,0.0,0.0,0.0,0.0,0.0,0.0,0.0,0.0,0.0,0.0,0.0,0.0,0.0,0.0,0.0,0.0,0.0,0.0,0.0,0.0,0.0,0.0,0.0,0.0,0.0,0.0,0.0,0.0,0.0,0.0,0.0,0.0,0.0,0.0,0.0,0.0,0.0,0.0,0.0,0.0,0.0,0.0,0.0,0.0,0.0,0.0,0.0,0.0,0.0,0.0,0.0,0.0,0.0,0.0,0.0,0.0,0.0,0.0,0.0,0.0,0.0,0.0,0.0,0.0,0.0,0.0,0.0,0.0,0.0,0.0,0.0,0.0,0.0,0.0,0.0,0.0,0.0,0.0,0.0,1.5703,1.4794,1.5002,1.4403,1.3669,1.2827,1.2903,1.2116,1.0072,0.9576,0.0,0.0,0.0,0.0,0.0,0.0,0.0,0.0,0.0,0.0,0.0,0.0,0.0,0.0,0.0,0.0,0.0,0.0,0.0,0.0,0.0,0.0,0.0,0.0,0.0,0.0,0.0,0.0,0.0,0.0,0.0,0.0,0.0,0.0,0.0,0.0,0.0,0.0,0.0,0.0,0.0,0.0,0.0,0.0,0.0,0.0,0.0,0.0,0.0,0.0,0.0,0.0,0.0,0.0,0.0,0.0,0.0,0.0,0.0,0.0,0.0,0.0,0.0,0.0,0.0,0.0,0.0,0.0,0.0,0.0,0.0,0.0,0.0,0.0,0.0,0.0,0.0,0.0,0.0,0.0,0.0,0.0,0.0,0.0,0.0,0.0,0.0,0.0,0.0,0.0,0.0,0.0,0.0,0.0,0.0,0.0,0.0,0.0,0.0,0.0,0.0,0.0,1.5836,1.4588,1.5326,1.4395,1.3526,1.2927,1.2947,1.2116,1.0101,0.9677,0.0,0.0,0.0,0.0,0.0,0.0,0.0,0.0,0.0,0.0,0.0,0.0,0.0,0.0,0.0,0.0,0.0,0.0,0.0,0.0,0.0,0.0,0.0,0.0,0.0,0.0,0.0,0.0,0.0,0.0,0.0,0.0,0.0,0.0,0.0,0.0,0.0,0.0,0.0,0.0,0.0,0.0,0.0,0.0,0.0,0.0,0.0,0.0,0.0,0.0,0.0,0.0,0.0,0.0,0.0,0.0,0.0,0.0,0.0,0.0,0.0,0.0,0.0,0.0,0.0,0.0,0.0,0.0,0.0,0.0,0.0,0.0,0.0,0.0,0.0,0.0,0.0,0.0,0.0,0.0,0.0,0.0,0.0,0.0,0.0,0.0,0.0,0.0,0.0,0.0,0.0,0.0,0.0,0.0,0.0,0.0,0.0,0.0,0.0,0.0,0.0,0.0,1.6717,1.6409,1.5738,1.4977,1.425,1.3499,1.3184,1.2186,1.0309,0.9739,0.0,0.0,0.0,0.0,0.0,0.0,0.0,0.0,0.0,0.0,0.0,0.0,0.0,0.0,0.0,0.0,0.0,0.0,0.0,0.0,0.0,0.0,0.0,0.0,0.0,0.0,0.0,0.0,0.0,0.0,0.0,0.0,0.0,0.0,0.0,0.0,0.0,0.0,0.0,0.0,0.0,0.0,0.0,0.0,0.0,0.0,0.0,0.0,0.0,0.0,0.0,0.0,0.0,0.0,0.0,0.0,0.0,0.0,0.0,0.0,0.0,0.0,0.0,0.0,0.0,0.0,0.0,0.0,0.0,0.0,0.0,0.0,0.0,0.0,0.0,0.0,0.0,0.0,0.0,0.0,0.0,0.0,0.0,0.0,0.0,0.0,0.0,0.0,0.0,0.0,0.0,0.0,0.0,0.0,0.0,0.0,0.0,0.0,0.0,0.0,0.0,0.0,1.676,1.6313,1.5755,1.5029,1.4294,1.3564,1.3192,1.2263,1.05,0.0,0.0,0.0,0.0,0.0,0.0,0.0,0.0,0.0,0.0,0.0,0.0,0.0,0.0,0.0,0.0,0.0,0.0,0.0,0.0,0.0,0.0,0.0,0.0,0.0,0.0,0.0,0.0,0.0,0.0,0.0,0.0,0.0,0.0,0.0,0.0,0.0,0.0,0.0,0.0,0.0,0.0,0.0,0.0,0.0,0.0,0.0,0.0,0.0,0.0,0.0,0.0,0.0,0.0,0.0,0.0,0.0,0.0,0.0,0.0,0.0,0.0,0.0,0.0,0.0,0.0,0.0,0.0,0.0,0.0,0.0,0.0,0.0,0.0,0.0,0.0,0.0,0.0,0.0,0.0,0.0,0.0,0.0,0.0,0.0,0.0,0.0,0.0,0.0,0.0,0.0,0.0,0.0,0.0,0.0,0.0,0.0,0.0,0.0,0.0,0.0,0.0,1.7219,1.718,1.6784,1.5816,1.5242,1.4545,1.3564,1.3104,1.2165,1.061,0.0,0.0,0.0,0.0,0.0,0.0,0.0,0.0,0.0,0.0,0.0,0.0,0.0,0.0,0.0,0.0,0.0,0.0,0.0,0.0,0.0,0.0,0.0,0.0,0.0,0.0,0.0,0.0,0.0,0.0,0.0,0.0,0.0,0.0,0.0,0.0,0.0,0.0,0.0,0.0,0.0,0.0,0.0,0.0,0.0,0.0,0.0,0.0,0.0,0.0,0.0,0.0,0.0,0.0,0.0,0.0,0.0,0.0,0.0,0.0,0.0,0.0,0.0,0.0,0.0,0.0,0.0,0.0,0.0,0.0,0.0,0.0,0.0,0.0,0.0,0.0,0.0,0.0,0.0,0.0,0.0,0.0,0.0,0.0,0.0,0.0,0.0,0.0,0.0,0.0,0.0,0.0,0.0,0.0,0.0,0.0,0.0,0.0,0.0,0.0,0.0,0.0,1.6992,1.8129,1.8186,1.5948,1.571,1.5108,1.3637,1.2899,1.1935,0.0,0.0,0.0,0.0,0.0,0.0,0.0,0.0,0.0,0.0,0.0,0.0,0.0,0.0,0.0,0.0,0.0,0.0,0.0,0.0,0.0,0.0,0.0,0.0,0.0,0.0,0.0,0.0,0.0,0.0,0.0,0.0,0.0,0.0,0.0,0.0,0.0,0.0,0.0,0.0,0.0,0.0,0.0,0.0,0.0,0.0,0.0,0.0,0.0,0.0,0.0,0.0,0.0,0.0,0.0,0.0,0.0,0.0,0.0,0.0,0.0,0.0,0.0,0.0,0.0,0.0,0.0,0.0,0.0,0.0,0.0,0.0,0.0,0.0,0.0,0.0,0.0,0.0,0.0,0.0,0.0,0.0,0.0,0.0,0.0,0.0,0.0,0.0,0.0,0.0,0.0,0.0,0.0,0.0,0.0,0.0,0.0,0.0,0.0,0.0,0.0,0.0,0.0,1.7496,1.8779,1.8957,1.6784,1.655,1.5913,1.4394,1.3715,1.2747,1.1307,0.0,0.0,0.0,0.0,0.0,0.0,0.0,0.0,0.0,0.0,0.0,0.0,0.0,0.0,0.0,0.0,0.0,0.0,0.0,0.0,0.0,0.0,0.0,0.0,0.0,0.0,0.0,0.0,0.0,0.0,0.0,0.0,0.0,0.0,0.0,0.0,0.0,0.0,0.0,0.0,0.0,0.0,0.0,0.0,0.0,0.0,0.0,0.0,0.0,0.0,0.0,0.0,0.0,0.0,0.0,0.0,0.0,0.0,0.0,0.0,0.0,0.0,0.0,0.0,0.0,0.0,0.0,0.0,0.0,0.0,0.0,0.0,0.0,0.0,0.0,0.0,0.0,0.0,0.0,0.0,0.0,0.0,0.0,0.0,0.0,0.0,0.0,0.0,0.0,0.0,0.0,0.0,0.0,0.0,0.0,0.0,0.0,0.0,0.0,0.0,0.0,0.0,1.75,1.8943,1.9288,1.7139,1.6897,1.6402,1.5136,1.4425,1.3568,1.24,0.0,0.0,0.0,0.0,0.0,0.0,0.0,0.0,0.0,0.0,0.0,0.0,0.0,0.0,0.0,0.0,0.0,0.0,0.0,0.0,0.0,0.0,0.0,0.0,0.0,0.0,0.0,0.0,0.0,0.0,0.0,0.0,0.0,0.0,0.0,0.0,0.0,0.0,0.0,0.0,0.0,0.0,0.0,0.0,0.0,0.0,0.0,0.0,0.0,0.0,0.0,0.0,0.0,0.0,0.0,0.0,0.0,0.0,0.0,0.0,0.0,0.0,0.0,0.0,0.0,0.0,0.0,0.0,0.0,0.0,0.0,0.0,0.0,0.0,0.0,0.0,0.0,0.0,0.0,0.0,0.0,0.0,0.0,0.0,0.0,0.0,0.0,0.0,0.0,0.0,0.0,0.0,0.0,0.0,0.0,0.0,0.0,0.0,0.0,0.0,0.0,0.0,1.7274,1.8903,1.9354,1.7335,1.707,1.6689,1.5886,1.5154,1.4444,1.3752,0.0,0.0,0.0,0.0,0.0,0.0,0.0,0.0,0.0,0.0,0.0,0.0,0.0,0.0,0.0,0.0,0.0,0.0,0.0,0.0,0.0,0.0,0.0,0.0,0.0,0.0,0.0,0.0,0.0,0.0,0.0,0.0,0.0,0.0,0.0,0.0,0.0,0.0,0.0,0.0,0.0,0.0,0.0,0.0,0.0,0.0,0.0,0.0,0.0,0.0,0.0,0.0,0.0,0.0,0.0,0.0,0.0,0.0,0.0,0.0,2.0368,1.9603,0.0,0.0,0.0,0.0,0.0,0.0,0.0,0.0,0.0,0.0,0.0,0.0,0.0,0.0,0.0,0.0,0.0,0.0,0.0,0.0,0.0,0.0,0.0,0.0,0.0,0.0,0.0,0.0,0.0,0.0,0.0,0.0,0.0,0.0,0.0,0.0,0.0,0.0,0.0,0.0,1.8067,1.9453,2.0074,1.8924,1.8317,1.7638,1.6724,1.6245,1.5563,1.4468,1.3158,0.0,0.0,0.0,0.0,0.0,0.0,0.0,0.0,0.0,0.0,0.0,0.0,0.0,0.0,0.0,0.0,0.0,0.0,0.0,0.0,0.0,0.0,0.0,0.0,0.0,0.0,0.0,0.0,0.0,0.0,0.0,0.0,0.0,0.0,0.0,0.0,0.0,0.0,0.0,0.0,0.0,0.0,0.0,0.0,0.0,0.0,0.0,0.0,0.0,0.0,0.0,0.0,0.0,0.0,0.0,0.0,0.0,0.0,0.0,2.125,2.0657,0.0,0.0,0.0,0.0,0.0,0.0,0.0,0.0,0.0,0.0,0.0,0.0,0.0,0.0,0.0,0.0,0.0,0.0,0.0,0.0,0.0,0.0,0.0,0.0,0.0,0.0,0.0,0.0,0.0,0.0,0.0,0.0,0.0,0.0,0.0,0.0,0.0,0.0,0.0,0.0,1.8319,1.9881,2.0655,1.9562,1.9044,1.8362,1.7317,1.6816,1.6205,1.5373,1.4116,0.0,0.0,0.0,0.0,0.0,0.0,0.0,0.0,0.0,0.0,0.0,0.0,0.0,0.0,0.0,0.0,0.0,0.0,0.0,0.0,0.0,0.0,0.0,0.0,0.0,0.0,0.0,0.0,0.0,0.0,0.0,0.0,0.0,0.0,0.0,0.0,0.0,0.0,0.0,0.0,0.0,0.0,0.0,0.0,0.0,0.0,0.0,0.0,0.0,0.0,0.0,0.0,0.0,2.3927,2.3917,2.3733,2.4046,2.4032,2.3693,2.2268,2.1914,2.2287,2.0939,0.0,0.0,0.0,0.0,0.0,0.0,0.0,0.0,0.0,0.0,0.0,0.0,0.0,0.0,0.0,0.0,0.0,0.0,0.0,0.0,0.0,0.0,2.4712,2.4844,2.489,2.4361,2.2247,0.0,0.0,0.0,0.0,0.0,0.0,0.0,0.0,0.0,0.0,0.0,1.8863,2.0465,2.1195,1.9944,1.9529,1.8922,1.782,1.7177,1.665,1.6242,1.5049,1.4325,0.0,0.0,0.0,0.0,0.0,0.0,0.0,0.0,0.0,0.0,0.0,0.0,0.0,0.0,0.0,0.0,0.0,0.0,0.0,0.0,0.0,0.0,0.0,0.0,0.0,0.0,0.0,0.0,0.0,0.0,0.0,0.0,2.3063,2.3685,0.0,0.0,0.0,0.0,0.0,0.0,0.0,0.0,0.0,0.0,0.0,0.0,0.0,2.3753,2.3303,2.4399,2.5017,2.5163,2.569,2.6026,2.6225,2.5652,2.5462,2.5623,2.5407,0.0,2.3058,2.2786,0.0,0.0,0.0,0.0,0.0,0.0,0.0,0.0,0.0,0.0,0.0,0.0,0.0,0.0,0.0,0.0,0.0,0.0,0.0,0.0,0.0,0.0,2.7676,2.7195,2.7079,2.6601,2.4864,2.3259,2.212,2.191,2.1601,2.1185,0.0,0.0,0.0,0.0,0.0,0.0,2.0777,2.1515,2.1686,2.0728,1.9998,1.9179,1.8281,1.7662,1.7109,1.6638,1.6111,1.5653,1.5216,1.4932,0.0,0.0,0.0,0.0,0.0,0.0,0.0,0.0,0.0,0.0,0.0,0.0,0.0,0.0,0.0,0.0,0.0,0.0,0.0,0.0,0.0,0.0,0.0,0.0,0.0,0.0,0.0,0.0,0.0,2.4453,2.5064,2.4009,2.4228,2.4188,0.0,0.0,0.0,0.0,0.0,0.0,0.0,0.0,0.0,2.4817,2.4882,2.5107,2.5506,2.6052,2.6392,2.6513,2.6802,2.7074,2.7316,2.6967,2.6941,2.7122,2.6756,2.615,2.5348,2.4668,2.3831,2.2894,0.0,0.0,0.0,0.0,2.3145,2.3162,2.5061,2.5562,2.5292,2.5091,0.0,0.0,0.0,0.0,0.0,0.0,0.0,2.6129,2.6763,2.7148,2.7488,2.7893,2.773,2.7299,2.6561,2.5284,2.3906,2.2682,2.2894,2.276,2.1086,2.1294,0.0,0.0,0.0,2.1725,2.1343,2.2092,2.2359,2.1624,2.1164,2.0458,1.9362,1.8628,1.8008,1.7477,1.6978,1.6623,1.6404,1.6262,1.595,0.0,0.0,0.0,0.0,0.0,0.0,0.0,0.0,0.0,0.0,0.0,0.0,0.0,0.0,0.0,0.0,0.0,0.0,0.0,0.0,0.0,0.0,0.0,0.0,0.0,0.0,0.0,0.0,2.6024,2.6336,2.4328,2.4951,2.4973,0.0,0.0,0.0,0.0,0.0,0.0,2.4988,2.4744,2.4992,2.5839,2.5904,2.6331,2.7178,2.7233,2.7284,2.7401,2.7478,2.7615,2.781,2.784,2.793,2.8029,2.7585,2.7418,2.7348,2.6104,2.5054,2.4177,2.381,2.3097,2.2392,2.3478,2.3661,2.3636,2.594,2.6465,2.617,2.657,2.6515,2.6105,2.5252,0.0,0.0,0.0,0.0,2.6235,2.6894,2.7055,2.7288,2.8176,2.8073,2.768,2.754,2.6916,2.5799,2.3918,2.4163,2.4037,2.2005,2.279,0.0,2.0994,2.2028,2.2827,2.2184,2.267,2.2841,2.2175,2.1928,2.137,2.0242,1.9452,1.8838,1.8393,1.7744,1.7461,1.764,1.749,1.734,1.7133,0.0,0.0,0.0,0.0,0.0,0.0,0.0,0.0,0.0,0.0,0.0,0.0,0.0,0.0,0.0,0.0,0.0,0.0,0.0,0.0,0.0,0.0,0.0,0.0,0.0,0.0,0.0,0.0,0.0,2.4702,2.5174,0.0,0.0,0.0,0.0,2.496,2.5003,2.5159,2.5542,2.6197,2.6727,2.7097,2.724,2.7265,2.7199,2.7321,2.7393,2.7394,2.766,2.779,2.7815,2.793,2.8054,2.8186,2.8162,2.821,2.821,2.6765,2.613,2.6076,2.6048,2.5993,2.6007,2.6646,2.6854,2.6957,2.766,2.7974,2.8052,2.8076,2.7312,2.6366,2.6312,2.5966,0.0,0.0,2.6852,2.7545,2.8165,2.8301,2.8326,2.8396,2.8372,2.821,2.763,2.7555,2.7297,2.6304,2.5306,2.4529,2.4271,0.0,2.3705,2.3703,2.3398,2.338,2.3884,2.3471,2.2841,2.2175,2.1803,2.1322,2.0621,1.9826,1.9363,1.933,1.8463,1.8224,1.8776,1.8318,1.8232,1.8599,1.8229,0.0,0.0,0.0,0.0,0.0,0.0,0.0,0.0,0.0,0.0,0.0,0.0,0.0,0.0,0.0,0.0,0.0,0.0,0.0,0.0,0.0,0.0,0.0,0.0,0.0,0.0,0.0,0.0,2.6402,2.7073,0.0,2.6348,2.6505,2.6608,2.6482,2.6862,2.7041,2.6885,2.7536,2.7973,2.8103,2.8573,2.8782,2.874,2.8873,2.874,2.8293,2.8485,2.8384,2.8052,2.8097,2.8201,2.8323,2.8323,2.8348,2.8348,2.7835,2.7338,2.6923,2.7001,2.6756,2.6428,2.6745,2.6849,2.6927,2.7479,2.772,2.782,2.821,2.8042,2.7683,2.7683,2.7561,2.7423,2.7634,2.789,2.8122,2.8348,2.8411,2.8411,2.8411,2.8468,2.8453,2.8253,2.8002,2.779,2.7685,2.7007,2.6136,2.5097,2.5575,2.5606,2.4245,2.4559,2.4859,2.4711,2.4481,2.4237,2.4008,2.3522,2.3212,2.3251,2.2152,2.1562,2.1831,2.0766,2.035,2.0881,2.0046,1.9792,2.0234,1.9734,1.9146,0.0,0.0,0.0,0.0,0.0,0.0,0.0,0.0,0.0,0.0,0.0,0.0,0.0,0.0,0.0,0.0,0.0,0.0,0.0,0.0,0.0,0.0,0.0,0.0,0.0,2.8818,2.9065,2.7689,2.8538,2.8785,2.7652,2.816,2.8401,2.8045,2.8623,2.8773,2.8328,2.9093,2.9475,2.9336,2.9761,2.9989,2.9989,2.991,2.9748,2.9487,2.9612,2.9593,2.9397,2.9049,2.8923,2.8971,2.8576,2.8411,2.8411,2.8411,2.8097,2.768,2.777,2.7545,2.7137,2.7251,2.7261,2.7327,2.7695,2.7795,2.787,2.8259,2.8411,2.8411,2.8411,2.8411,2.8411,2.8411,2.8411,2.8411,2.8411,2.8411,2.8411,2.8411,2.8493,2.8597,2.8597,2.8422,2.8295,2.8534,2.7993,2.7214,2.6276,2.6832,2.6839,2.5142,2.5463,2.5688,2.5077,2.5007,2.5007,2.5007,2.4582,2.441,2.4697,2.3623,2.3084,2.3459,2.2305,2.1844,2.2264,2.1083,2.072,2.1276,2.0627,2.017,1.9902,0.0,0.0,0.0,0.0,0.0,0.0,0.0,0.0,0.0,0.0,0.0,0.0,0.0,0.0,0.0,0.0,0.0,0.0,0.0,0.0,0.0,0.0,0.0,2.9553,2.9258,2.9001,2.8522,2.9448,2.9696,2.8592,2.9089,2.9483,2.9461,3.0032,3.0196,2.9779,3.0829,3.1242,3.0876,3.0867,3.0882,3.0882,3.0386,3.0386,3.0851,3.1002,3.1324,3.1779,3.0736,3.0244,3.0172,2.901,2.8491,2.846,2.8475,2.8475,2.842,2.8411,2.8411,2.8411,2.8411,2.8411,2.8411,2.8411,2.8411,2.8411,2.8411,2.8411,2.8411,2.842,2.842,2.842,2.8444,2.842,2.842,2.842,2.8396,2.8411,2.842,2.8541,2.8621,2.8621,2.8779,2.8928,2.8904,2.8158,2.764,2.7889,2.766,2.7244,2.6625,2.6203,0.0,2.5175,2.5091,2.5063,2.5035,2.4867,2.4741,2.4741,2.4079,2.3771,2.405,2.2981,2.2515,2.2843,2.1392,2.0945,2.1732,2.0989,2.0715,2.0945,0.0,0.0,0.0,0.0,0.0,0.0,0.0,0.0,0.0,0.0,0.0,0.0,0.0,0.0,0.0,0.0,0.0,0.0,0.0,0.0,0.0,3.0468,3.0671,2.9816,3.0098,3.0359,3.0236,3.048,3.0567,3.0232,3.0874,3.1122,3.0723,3.1391,3.1591,3.1102,3.1846,3.2205,3.2106,3.259,3.2844,3.2844,3.2793,3.259,3.2254,3.2393,3.2257,3.1945,3.1634,3.1216,3.0725,3.0908,3.0405,2.9464,2.9982,2.9695,2.8873,2.8525,2.8411,2.8411,2.8411,2.8411,2.8411,2.8411,2.8411,2.8411,2.8411,2.8411,2.8468,2.8803,2.892,2.8974,2.9319,2.9159,2.892,2.892,2.8724,2.8621,2.8904,2.9159,2.9319,2.9319,2.9454,2.9454,2.9106,2.885,2.8598,2.8367,2.8247,2.8027,2.7575,2.7424,2.7297,2.7115,2.6875,2.6575,2.6133,2.5783,2.5564,2.5564,2.5147,2.5035,2.537,2.4548,2.4156,2.4381,2.3231,2.2653,2.2788,2.2555,2.2357,0.0,0.0,0.0,0.0,0.0,0.0,0.0,0.0,0.0,0.0,0.0,0.0,0.0,0.0,0.0,0.0,0.0,0.0,0.0,0.0,0.0,0.0,3.1132,3.1376,3.0912,3.1232,3.1413,3.1274,3.1526,3.167,3.1507,3.2139,3.2454,3.2147,3.2785,3.298,3.2508,3.3328,3.372,3.3535,3.3892,3.4103,3.4103,3.3953,3.3793,3.3632,3.372,3.3667,3.3489,3.2991,3.2521,3.2105,3.2013,3.1514,3.0745,3.0865,3.0474,2.977,0.0,0.0,0.0,0.0,2.87,2.8724,2.8936,2.899,2.899,2.899,2.899,2.9036,2.9303,2.9393,2.9438,2.9728,2.9595,2.9393,2.9445,2.9287,2.9219,2.9518,2.9739,2.9903,2.9903,2.9837,2.9722,2.9448,2.922,0.0,2.8803,2.8622,2.8328,2.7843,2.7849,2.7824,2.757,2.7565,2.7494,2.7104,2.6875,2.6745,2.6745,2.632,0.0,0.0,0.0,2.5301,2.5107,2.4639,0.0,0.0,0.0,0.0,0.0,0.0,0.0,0.0,2.335,2.3786,0.0,0.0,0.0,0.0,0.0,0.0,0.0,0.0,0.0,0.0,0.0,0.0,0.0,0.0,0.0,0.0,3.2051,3.27,3.27,3.27,3.2494,3.1962,3.2529,3.2863,3.2613,3.3209,3.3609,3.3609,3.4136,3.4281,3.3948,3.4929,0.0,0.0,0.0,3.4904,3.4904,3.4431,3.4431,3.4904,3.4904,3.5155,3.5543,3.4492,3.396,3.3821,3.283,3.2318,3.2099,3.1528,3.1179,3.0855,2.9665,2.892,2.8597,2.902,2.9166,2.9234,2.9677,0.0,0.0,2.9793,2.9793,2.9815,2.9859,2.9881,2.9903,2.9946,2.9946,2.9946,2.9983,2.9967,3.0005,3.0138,3.0297,3.0398,3.0398,3.0161,2.9924,2.9881,2.9544,2.9259,2.9259,2.8858,2.84,2.7838,2.7932,2.7834,2.7314,2.767,2.7923,2.7874,2.7898,0.0,2.7799,2.7379,2.7176,2.7282,2.6765,2.6098,2.5383,2.572,2.5485,2.4604,2.493,2.5408,2.5988,2.5988,2.6238,2.6681,2.5311,2.5666,0.0,0.0,0.0,0.0,0.0,0.0,0.0,0.0,0.0,0.0,0.0,0.0,0.0,0.0,0.0,3.2472,3.396,3.5123,3.5123,3.5123,3.4625,3.3319,3.3282,3.3615,3.4172,3.4612,3.4857,3.4857,3.5159,3.5296,3.5228,3.5448,3.5532,3.5447,3.5447,3.5447,3.5447,3.5339,3.5339,3.5447,3.5447,0.0,3.5583,3.5358,3.4931,3.4374,3.4757,3.4225,3.3151,3.3626,3.2872,3.1336,3.0135,2.9595,2.9544,2.9617,2.9661,2.9683,2.9772,2.9793,2.9793,2.9793,2.9793,2.9859,3.0246,3.0398,0.0,3.0888,3.0825,3.0605,3.0625,3.0439,3.0297,3.0657,3.0851,3.0965,3.0965,3.0888,3.0747,3.0435,3.0288,3.0225,3.0225,2.9544,2.8943,2.8834,2.8834,2.8826,2.8701,2.8511,2.8192,2.7714,2.7794,2.771,2.7213,2.752,2.761,2.7323,2.6898,2.6579,2.6411,2.6489,2.6431,2.6249,2.63,2.663,2.717,2.717,2.7475,2.8012,2.725,2.7065,0.0,0.0,0.0,0.0,0.0,0.0,0.0,0.0,0.0,0.0,0.0,3.1771,3.2002,0.0,3.4173,3.4271,3.5133,3.5804,3.5804,3.5804,3.5429,3.4462,3.4677,3.4995,3.5236,3.5745,3.6043,3.6043,3.6167,3.6245,3.6245,3.6245,3.6245,3.6245,3.6245,3.6245,3.6245,3.6245,3.6245,3.6245,3.6245,3.6245,3.6228,3.6028,3.5753,3.5412,3.5542,3.5177,3.4484,3.4489,3.37,3.2445,3.1907,3.0909,2.9832,3.0054,3.0161,3.0182,3.0431,3.0493,3.0493,3.0493,3.0518,3.0584,3.0825,3.0982,3.1098,3.1332,3.1274,3.1157,3.1198,3.1083,3.1024,3.1298,3.1411,3.1449,3.1449,3.1276,3.1044,3.0828,3.0642,3.0497,3.0497,3.0118,2.9705,2.9477,2.9448,2.938,2.9121,2.892,2.8677,2.8384,2.8448,2.8376,2.8079,2.8264,2.8295,2.8067,2.7805,2.763,2.7545,2.7545,2.7545,2.7545,2.7545,2.767,2.7959,2.7959,2.8097,2.8411,2.8367,2.8198,0.0,0.0,0.0,0.0,0.0,0.0,0.0,3.1668,3.1243,3.1631,3.2333,3.3014,3.3402,3.4742,3.5838,3.6005,3.6164,3.6272,3.6272,3.6272,3.6158,3.5821,3.6182,3.6381,3.6288,3.6722,3.7017,3.7017,3.6939,3.69,3.69,3.69,3.69,3.69,3.69,3.69,3.69,3.69,3.69,3.69,3.69,3.69,3.688,3.6557,3.6367,3.628,3.5827,3.5644,3.5594,3.5098,3.4466,3.384,3.3987,3.2733,3.0808,3.0891,3.0816,3.076,3.1114,3.1249,3.1249,3.1249,3.1291,3.1351,3.1351,3.1426,3.1519,3.1519,3.1555,3.1557,3.1617,3.1635,3.1671,3.1764,3.18,3.18,3.18,3.1504,3.1237,3.1237,3.0965,3.0764,3.0764,3.0764,3.058,3.0011,2.9924,2.9788,2.9289,2.9312,2.9335,2.9259,2.9312,2.9335,2.9243,2.9036,2.8873,2.8826,2.8668,2.8549,2.8444,2.8396,2.8444,2.8525,2.8444,2.8444,2.8541,2.8549,2.8549,2.8573,2.9104,2.9097,3.001,3.1614,3.2798,3.2089,3.1975,3.2259,0.0,3.2538,3.2116,3.2985,3.381,3.4385,3.4416,3.575,3.6852,3.6868,3.7484,3.7937,3.7937,3.7937,3.792,3.7869,3.7309,3.7184,3.7873,3.7632,3.7432,3.7432,3.7113,3.69,3.69,3.69,3.69,3.69,3.69,3.69,3.69,3.69,3.69,3.69,3.69,3.69,3.69,3.6841,3.6638,3.628,3.5932,3.5773,3.58,3.6201,3.5925,3.5288,3.5603,3.5151,3.4162,3.2838,3.1947,3.1402,3.146,3.146,3.146,3.146,3.1479,3.1479,3.1479,3.1538,3.1579,3.1579,3.1671,3.1763,3.1781,3.1781,3.1781,3.18,3.18,3.18,3.18,3.1746,3.1727,3.1727,3.169,3.1653,3.1653,3.1653,3.1372,3.0559,3.0435,3.0246,2.9772,3.0097,3.0182,2.9788,3.0097,3.0182,2.9766,2.9227,2.8881,2.8897,2.8716,2.8597,2.8573,2.8468,2.8597,2.902,2.8621,2.8597,2.902,2.9097,2.9104,2.9127,2.9723,2.9679,3.1541,3.2418,3.2953,3.3104,3.3149,3.3268,3.3661,3.3437,3.3277,3.3666,3.4666,3.5475,3.5475,3.6694,3.7701,3.7701,3.7991,3.8209,3.8209,3.8209,3.8209,3.8209,3.7901,3.7828,3.8172,3.802,3.7915,3.7915,3.7757,3.7864,3.8329,3.8347,3.8544,3.8992,3.9009,3.8795,3.8365,3.8347,3.8115,3.7667,3.7667,3.7685,3.7703,3.7468,3.7169,3.6821,3.6681,3.6603,3.6641,3.6862,3.6767,3.6504,3.6696,3.6309,3.5528,3.4355,3.3604,3.3066,3.2635,3.2345,3.21,3.1866,3.184,3.1912,3.1912,3.1948,3.1966,3.1765,3.1746,3.1838,3.2037,3.2091,3.2126,3.2335,3.2368,3.2368,3.2368,3.2368,3.2318,3.2144,3.2091,3.202,3.1819,3.18,3.1671,3.1315,3.1024,3.0686,3.0267,3.0393,3.0435,3.0225,3.0393,3.0435,3.0208,2.9973,2.9799,2.9711,2.9639,2.9512,2.9361,2.9377,2.9422,2.9506,2.9355,2.9355,2.9506,2.9585,2.9613,2.9613,3.0264,3.0415,3.2307,3.2834,3.3223,3.3586,3.3882,3.4074,3.4011,3.3998,3.3998,3.3998,3.4995,3.5915,3.6149,3.7204,3.8097,3.835,3.8322,3.8272,3.8272,3.8224,3.8209,3.8209,3.8389,3.8532,3.8535,3.8336,3.8299,3.8517,3.8336,3.8627,3.9659,3.9514,3.9731,4.0474,4.0492,4.0256,3.9713,3.9695,3.9314,3.8552,3.8552,3.8475,3.8305,3.7915,3.7596,3.736,3.7267,3.7229,3.7248,3.7396,3.7451,3.7469,3.7614,3.7361,3.6822,3.6177,3.535,3.4477,3.3933,3.3558,3.3212,3.2721,3.2616,3.2667,3.2422,3.2403,3.2386,3.2144,3.2091,3.2126,3.2369,3.2437,3.2504,3.2731,3.2795,3.2795,3.2795,3.2795,3.2732,3.2487,3.2437,3.2352,3.2109,3.2091,3.2091,3.2091,3.1787,3.1342,3.0747,3.0683,3.0723,3.0845,3.0744,3.0683,3.0683,3.0543,3.0456,3.0356,3.0314,3.0192,3.0026,3.0069,3.0091,3.0075,3.0,2.9983,3.0075,3.0133,3.018,3.0185,3.0854,3.1147,3.216,3.3153,3.4173,3.3111,3.3567,3.4245,3.4049,3.3998,3.3998,3.3998,3.465,3.5467,3.6251,3.7054,3.7903,3.8733,3.8649,3.8494,3.8494,3.8322,3.8209,3.8209,3.8891,3.9344,3.935,3.8662,3.8517,3.9297,3.8644,3.8862,4.0383,3.9786,3.9731,4.0474,4.0492,4.0492,4.0456,4.0456,4.0129,3.9453,3.9453,3.9085,3.8382,3.7981,3.7791,3.7755,3.7451,3.7305,3.7342,3.7861,3.8068,3.8118,3.8499,3.864,3.8621,3.8603,3.7132,3.5166,3.5148,3.513,3.4989,3.4204,3.3955,3.3812,3.3011,3.2779,3.2779,3.2763,3.2763,3.2763,3.2779,3.2779,3.2779,3.2795,3.2795,3.2795,3.2795,3.2795,3.2795,3.2779,3.2779,3.2779,3.2763,3.2763,3.2763,3.2763,3.2763,3.2332,3.1223,3.1083,3.1257,3.1709,3.1353,3.1083,3.1083,3.0707,3.0497,3.0497,3.0356,3.0293,3.0293,3.0154,3.0302,3.0747,3.0323,3.0323,3.0784,3.0834,3.0878,3.0878,3.1487,3.1764,3.3109,3.379,3.4464,3.4095,3.4256,3.4484,3.4397,3.4404,3.4404,3.4404,3.4921,3.5639,3.6437,3.7146,3.788,3.8762,3.8818,3.8773,3.8773,3.8698,3.8857,3.9412,3.9703,4.0075,4.0602,4.0086,3.9856,4.0111,3.9894,4.0202,4.1234,4.1053,4.1289,4.2067,4.2085,4.1959,4.1689,4.1705,4.1095,3.9887,3.9168,3.8704,3.8462,3.8433,3.8401,3.8401,3.8285,3.8234,3.8234,3.8417,3.8499,3.8515,3.8643,3.8707,3.8707,3.8707,3.8199,3.7394,3.6658,3.621,3.5807,3.4695,3.4684,3.4988,3.4163,3.4305,3.4564,3.3804,3.3614,3.352,3.3204,3.3139,3.3184,3.3404,3.3462,3.3462,3.3462,3.3462,3.339,3.3169,3.3139,3.3063,3.2827,3.2795,3.2795,3.2795,3.2619,3.2317,3.1949,3.1693,3.1617,3.1781,3.1671,3.156,3.156,3.1447,3.1353,3.1353,3.1315,3.1257,3.1162,3.1201,3.1237,3.1271,3.1142,3.1142,3.1271,3.1334,3.1355,3.1374,3.1894,3.2144,3.4163,3.4453,3.4783,3.4783,3.4742,3.471,3.471,3.4647,3.4612,3.4612,3.4914,3.5513,3.6634,3.7167,3.7795,3.8948,3.9064,3.91,3.941,3.9375,3.963,4.0416,4.0772,4.1148,4.1689,4.1684,4.1477,4.1104,4.0814,4.1123,4.2214,4.1996,4.225,4.316,4.3178,4.3081,4.286,4.286,4.2097,4.0552,3.9312,3.8664,3.8575,3.8658,3.8707,3.8707,3.8707,3.8707,3.8707,3.8707,3.8707,3.8707,3.8707,3.8707,3.8707,3.8707,3.8707,3.8603,3.7867,3.7443,3.7041,3.5926,3.5912,3.62,3.5402,3.5511,3.5703,3.4638,3.4359,3.4225,3.3622,3.348,3.3522,3.3748,3.3807,3.3807,3.3807,3.3807,3.3734,3.3522,3.348,3.3422,3.3181,3.3169,3.3169,3.3169,3.2876,3.257,3.2335,3.2109,3.1929,3.1818,3.18,3.1838,3.1983,3.1856,3.1911,3.2144,3.2037,3.1948,3.1858,3.193,3.1856,3.1595,3.1765,3.1839,3.1783,3.1839,3.1895,3.2021,3.2231,3.2352,3.5047,3.5018,3.5048,3.5048,3.4978,3.4898,3.4889,3.4751,3.4604,3.4594,3.465,3.5176,3.681,3.7167,3.7768,3.9401,3.9487,3.9615,4.0374,4.0335,4.05,4.1314,4.2077,4.2571,4.2593,4.3296,4.331,4.229,4.1487,4.1708,4.3247,4.2606,4.2652,4.3677,4.3695,4.3775,4.3927,4.3887,4.3073,4.1434,3.99,3.903,3.8735,3.8735,3.8735,3.8735,3.8735,3.8735,3.8735,3.8738,3.8723,3.8723,3.8707,3.8707,3.8707,3.8707,3.8707,3.8707,3.8707,3.8707,3.8579,3.7768,3.7529,3.7419,3.6611,3.6376,3.6248,3.5371,3.5133,3.4931,3.4137,3.3899,3.3862,3.3862,3.3825,3.3807,3.3807,3.3807,3.3807,3.3807,3.3807,3.3807,3.3807,3.3807,3.3807,3.3862,3.3595,3.3147,3.2454,3.2335,3.2197,3.1893,3.1838,3.1966,3.2301,3.2037,3.2126,3.2763,3.2504,3.2335,3.2335,3.2335,3.2179,3.1856,3.2162,3.2335,3.2335,3.2335,3.2487,3.2795,3.2504,3.2519,3.3639,3.3834,3.4219,3.4219,3.4626,3.5024,3.4926,3.487,3.4791,3.4626,3.5108,3.5878,3.6904,3.8124,3.9308,4.0328,4.0933,4.1362,4.155,4.1547,4.1819,4.2688,4.2973,4.3329,4.3932,4.4186,4.4106,4.3619,4.3215,4.317,4.3577,4.3393,4.3426,4.3695,4.3695,4.3899,4.4337,4.3892,4.3158,4.2134,4.0891,3.9937,3.9298,3.9298,3.9298,3.9298,3.9298,3.9298,3.9285,3.9073,3.9007,3.8979,3.878,3.8707,3.8707,3.8707,3.8707,3.8707,3.8707,3.8707,3.8579,3.7768,3.7915,3.823,3.7437,3.7606,3.7918,3.7092,3.6853,3.667,3.5862,3.5183,3.4692,3.4692,3.4247,3.3807,3.3807,3.3807,3.3807,3.3807,3.3807,3.3807,3.3807,3.3807,3.4009,3.4601,3.4623,3.42,3.3183,3.2829,3.2651,3.2553,3.2553,3.2586,3.2668,3.2602,3.2619,3.2795,3.2715,3.2684,3.2684,3.2684,3.2635,3.2553,3.2635,3.2684,3.2684,3.2684,3.2732,3.2795,3.297,3.3093,3.4242,3.4405,3.4691,3.4691,3.4969,3.522,3.5144,3.5018,3.4879,3.4761,3.5343,3.6047,3.6479,3.8237,3.9758,4.0209,4.1235,4.2136,4.2511,4.2581,4.2881,4.374,4.3834,4.4003,4.4463,4.4501,4.4444,4.4289,4.402,4.3893,4.3881,4.3876,4.3921,4.4048,4.4048,4.4254,4.4675,4.4016,4.324,4.2386,4.1357,4.0395,3.9514,3.9514,3.9514,3.9514,3.9514,3.9514,3.9502,3.9337,3.9272,3.9245,3.8979,3.8881,3.8866,3.8735,3.878,3.8881,3.8881,3.895,3.8947,3.8262,3.8322,3.8615,3.8157,3.834,3.8524,3.7731,3.7492,3.7309,3.6505,3.5936,3.5573,3.5573,3.5238,3.489,3.489,3.4596,3.4215,3.3862,3.3807,3.3917,3.4284,3.4325,3.4601,3.5445,3.5573,3.5333,3.4699,3.3985,3.3488,3.3328,3.3009,3.2858,3.3016,3.2874,3.2921,3.3211,3.309,3.3032,3.3032,3.3032,3.2937,3.2795,3.2937,3.3032,3.3032,3.3032,3.3108,3.3243,3.3273,3.356,3.5535,3.5535,3.5535,3.5535,3.5475,3.5418,3.5405,3.5141,3.4917,3.4898,3.5438,3.5935,3.6047,3.8012,3.9664,3.989,4.1191,4.2474,4.3332,4.3463,4.3726,4.4407,4.4501,4.4501,4.4501,4.4501,4.4501,4.4501,4.428,4.4148,4.4153,4.4162,4.4262,4.4501,4.4528,4.4646,4.4895,4.4285,4.3471,4.2443,4.1691,4.0708,3.9611,3.9611,3.9611,3.9611,3.9611,3.9611,3.9611,3.9575,3.9544,3.9539,3.9259,3.9137,3.911,3.8896,3.895,3.9137,3.9137,3.9311,3.9427,3.8925,3.875,3.8735,3.8723,3.8707,3.856,3.786,3.7658,3.7511,3.6798,3.6541,3.645,3.645,3.6376,3.6303,3.6303,3.561,3.4766,3.3972,3.3899,3.4192,3.4876,3.5096,3.5463,3.6321,3.645,3.6486,3.6597,3.5516,3.4576,3.4169,3.351,3.317,3.335,3.3108,3.3181,3.3762,3.3522,3.3364,3.3364,3.3364,3.3229,3.2937,3.3214,3.3364,3.3364,3.3364,3.3563,3.394,3.3658,3.4109,3.4626,3.4626,3.4626,3.4626,3.5132,3.5589,3.5444,3.5235,3.5041,3.4926,3.5438,3.6104,3.6772,3.8387,4.004,4.1366,4.2431,4.3369,4.4177,4.4275,4.4332,4.4482,4.4501,4.4501,4.4501,4.4501,4.4501,4.4501,4.4463,4.4416,4.443,4.4426,4.444,4.4501,4.4605,4.4751,4.4895,4.4874,4.4157,4.2725,4.2591,4.1693,4.0157,4.0157,4.0157,4.0157,4.0157,4.0157,4.0147,3.9914,3.9818,3.9796,3.9539,3.9439,3.9408,3.9389,3.9401,3.9439,3.9439,3.9464,3.9452,3.9124,3.9031,3.8993,3.8765,3.8707,3.867,3.8524,3.8487,3.8469,3.8322,3.779,3.729,3.729,3.6795,3.6303,3.6303,3.561,3.4766,3.3972,3.4325,3.4839,3.4986,3.5591,3.634,3.718,3.729,3.7529,3.8193,3.6938,3.5688,3.4903,3.4702,3.4383,3.3762,3.3666,3.368,3.3775,3.3748,3.3707,3.3707,3.3707,3.3694,3.3638,3.3694,3.3707,3.3707,3.3707,3.4083,3.4802,3.4728,3.52,3.509,3.509,3.509,3.509,3.54,3.5673,3.5577,3.5309,3.5081,3.5015,3.5472,3.5878,3.5814,3.788,3.9852,4.0628,4.2187,4.3576,4.4388,4.4501,4.4501,4.4501,4.4501,4.4501,4.4501,4.4501,4.4501,4.4501,4.4501,4.4308,4.3898,4.3444,4.3206,4.3206,4.3254,4.3372,4.3491,4.3552,4.3039,4.1963,4.2006,4.1378,4.0205,4.0282,4.0301,4.0301,4.0301,4.0301,4.0301,4.0166,4.0108,4.0087,3.9807,3.9717,3.9693,3.9544,3.9599,3.9717,3.9717,3.9804,3.987,3.9611,3.9337,3.9073,3.895,3.8807,3.8707,3.8707,3.8707,3.8707,3.8707,3.8414,3.812,3.812,3.7826,3.7422,3.7,3.6597,3.6064,3.5257,3.5422,3.5807,3.6229,3.6744,3.741,3.8204,3.8315,3.8463,3.8869,3.8114,3.7221,3.6395,3.5936,3.5532,3.5128,3.5092,3.5092,3.5092,3.5092,3.5092,3.5092,3.5092,3.489,3.4417,3.4871,3.489,3.4417,3.489,3.5293,3.5665,3.5665,3.6119,3.5704,3.5704,3.5704,3.5704,3.5704,3.5704,3.5704,3.5385,3.5106,3.5106,3.5371,3.5465,3.4958,3.7035,3.9045,3.9739,4.1505,4.3163,4.4332,4.4501,4.4501,4.4501,4.4501,4.4501,4.4501,4.4501,4.4501,4.4501,4.4207,4.3834,4.3324,4.2463,4.2004,4.2004,4.2004,4.2051,4.2203,4.2203,4.186,4.1203,4.1252,4.0847,4.0057,4.0205,4.0253,4.0253,4.0291,4.0301,4.0301,4.0301,4.0301,4.0291,4.0077,3.9996,3.9965,3.9739,3.9796,3.9996,3.9996,4.0118,4.0282,4.0048,3.9658,3.9245,3.9124,3.8974,3.8866,3.8792,3.884,3.8881,3.8881,3.8881,3.8881,3.8881,3.8881,3.8659,3.7862,3.7677,3.7409,3.656,3.6569,3.6911,3.7499,3.7947,3.8452,3.9085,3.9197,3.9197,3.9197,3.8989,3.8623,3.8009,3.7106,3.6497,3.6403,3.6328,3.6313,3.6366,3.6328,3.6303,3.6303,3.6303,3.5973,3.5298,3.5954,3.5973,3.5279,3.5973,3.6376,3.656,3.656,3.6997,3.5704,3.5704,3.5704,3.5704,3.5704,3.5704,3.5704,3.5385,3.5106,3.5106,3.4908,3.494,3.5653,3.6028,3.7211,4.0196,4.0872,4.1849,4.4163,4.4501,4.4501,4.4501,4.4501,4.4501,4.4501,4.4501,4.4501,4.4501,4.3257,4.2737,4.3265,4.2468,4.2004,4.2004,4.2004,4.2051,4.2203,4.2203,4.186,4.1203,4.1203,4.0767,3.9922,4.0057,4.0127,4.0127,4.0244,4.0301,4.0301,4.0301,4.0301,4.0301,4.0263,4.0253,4.0253,4.0234,4.0244,4.0253,4.0253,4.0291,4.0301,4.0263,4.0067,3.9739,3.9245,3.9259,3.9376,3.9142,3.9232,3.9439,3.9439,3.9439,3.9439,3.9439,3.9439,3.9214,3.8402,3.8233,3.7916,3.6874,3.7455,3.8053,3.7888,3.87,3.9383,3.9458,3.9458,3.9458,3.9458,3.9433,3.9402,3.9327,3.8169,3.7186,3.6697,3.6436,3.6394,3.6642,3.6436,3.6303,3.6303,3.6303,3.6266,3.6174,3.6266,3.6266,3.6174,3.6266,3.667,3.7382,3.7382,3.7823,3.5704,3.5704,3.5704,3.5704,3.5704,3.5668,3.5553,3.5717,3.5702,3.5103,3.5188,3.5334,3.5146,3.554,3.6817,3.9627,4.0078,4.1098,4.4069,4.4083,4.397,4.4444,4.4501,4.4501,4.4501,4.4501,4.4541,4.467,4.3794,4.3166,4.2948,4.1548,4.0748,4.0748,4.0622,4.0578,4.0622,4.0641,4.0508,4.0236,4.028,4.0114,3.9792,3.9922,4.0026,4.0087,4.0157,4.0225,4.0301,4.0301,4.0301,4.0301,4.0301,4.0301,4.0301,4.0301,4.0301,4.0301,4.0301,4.0301,4.0301,4.0301,4.0234,4.0077,3.9693,3.9532,3.9489,3.9376,3.9427,3.9514,3.9514,3.9514,3.9514,3.9514,3.9514,3.942,3.9082,3.9026,3.8908,3.8471,3.8739,3.8989,3.8889,3.9349,3.9739,3.9739,3.9739,3.9739,3.9739,3.9611,3.9514,3.9514,3.9025,3.8617,3.8396,3.8288,3.8275,3.839,3.8135,3.8053,3.821,3.8067,3.7831,3.7515,3.7981,3.7907,3.7267,3.7748,3.8073,3.8245,3.8401,3.8635,3.5684,3.5704,3.5704,3.5704,3.5637,3.554,3.5405,3.5648,3.5693,3.4983,3.517,3.5293,3.4674,3.5304,3.6704,3.9195,3.9796,4.1022,4.4069,4.4214,4.4214,4.4782,4.4853,4.4894,4.4977,4.4812,4.4777,4.4909,4.4352,4.3743,4.3168,4.1418,4.0298,4.0008,3.975,3.9626,3.9691,3.9691,3.9691,3.9691,3.9804,3.9843,3.9843,3.9969,4.008,4.0167,4.0196,4.0272,4.0354,4.0372,4.0353,4.0353,4.0345,4.0327,4.0327,4.0301,4.0301,4.0301,4.0301,4.0301,4.0301,4.0301,4.0301,4.0263,4.0077,3.9881,3.9717,3.9647,3.9682,3.9747,3.9747,3.9747,3.9747,3.9747,3.9747,3.9747,3.9747,3.9747,3.9705,3.9635,3.9682,3.9705,3.9635,3.9848,4.0017,4.0017,4.0017,4.0017,4.0017,3.9859,3.9747,3.9747,3.9747,3.9705,3.9635,3.9551,3.952,3.9604,3.9376,3.9311,3.9483,3.9324,3.9031,3.865,3.9214,3.9133,3.8361,3.8939,3.9129,3.8935,3.9142,3.9259,3.5679,3.5704,3.5704,3.5704,3.5496,3.5304,3.5304,3.5005,3.4713,3.4694,3.4607,3.4506,3.4495,3.5282,3.6704,3.9195,4.0284,4.1661,4.4144,4.519,4.5679,4.5697,4.5684,4.579,4.6064,4.5536,4.5201,4.5201,4.4585,4.4201,4.4182,4.2585,4.1223,4.0224,3.9811,3.9691,3.9892,3.9903,3.9903,3.9903,4.01,4.0177,4.0205,4.0257,4.03,4.0309,4.0438,4.0489,4.0496,4.0488,4.0503,4.0496,4.0419,4.0397,4.0381,4.0318,4.0301,4.0301,4.0301,4.0301,4.0301,4.0301,4.0301,4.0301,4.0301,4.0301,4.0234,3.9975,4.0087,4.0301,4.0301,4.0301,4.0301,4.0301,4.0301,4.0301,4.0301,4.0301,4.0206,3.9946,4.0108,4.0215,3.9935,4.0118,4.0301,4.0301,4.0301,4.0301,4.0301,4.0301,4.0301,4.0301,4.0301,4.0176,3.9914,3.9658,3.9604,3.9881,3.9647,3.9502,3.9514,3.9502,3.9483,3.9495,3.9514,3.9495,3.9483,3.9483,3.9483,3.9483,3.9483,3.9647,3.5224,3.5224,3.5224,3.5224,3.5157,3.5056,3.4925,3.521,3.534,3.4644,3.494,3.5149,3.4532,3.5161,3.6581,3.9133,3.9739,4.1177,4.4801,4.471,4.4695,4.5847,4.5607,4.5388,4.5483,4.5427,4.5399,4.5399,4.5343,4.4781,4.3661,4.2946,4.2165,4.1242,4.0425,4.004,4.011,4.011,4.011,4.011,4.0177,4.0205,4.0205,4.0213,4.0267,4.0309,4.0334,4.0422,4.0496,4.0496,4.0511,4.0496,4.0438,4.0406,4.0389,4.0318,4.0301,4.0301,4.0301,4.0301,4.0301,4.0301,4.0301,4.0301,4.0351,4.0345,4.0272,4.0196,4.0234,4.0301,4.0301,4.0301,4.0301,4.0301,4.0301,4.0301,4.0301,4.0301,4.0263,4.0186,4.0244,4.0263,4.0186,4.0244,4.0301,4.0301,4.0301,4.0301,4.0301,4.0301,4.0301,4.0301,4.0301,4.0282,4.0176,4.0087,4.0077,4.0166,3.9914,3.9859,4.0046,3.987,3.9859,4.0046,4.0046,3.9965,3.9773,3.9773,3.9773,3.9773,3.9773,3.9914,3.4773,3.4997,3.4997,3.4997,3.4925,3.4822,3.4694,3.4975,3.5079,3.4445,3.4787,3.5004,3.4463,3.5588,3.7219,3.9151,4.0269,4.1927,4.4912,4.4865,4.495,4.6079,4.5944,4.5639,4.5342,4.5509,4.5618,4.5618,4.573,4.52,4.3866,4.3357,4.2707,4.1839,4.0769,4.0242,4.0313,4.0313,4.0313,4.0313,4.0381,4.0433,4.0433,4.0433,4.0446,4.0492,4.0492,4.0542,0.0,4.0621,4.0615,4.0609,4.0545,4.0515,4.0504,4.0447,4.0396,4.0388,4.0405,4.0413,4.0413,4.0413,4.0413,4.043,4.0454,4.0408,4.0326,4.0326,4.0328,4.0301,4.0301,4.0301,4.0301,4.0301,4.0301,4.0301,4.0301,4.0301,4.0301,4.0301,4.0301,4.0301,4.0301,4.0301,4.0301,4.0301,4.0301,4.0301,4.0301,4.0301,4.0301,4.0301,4.0301,4.0301,4.0301,4.0301,4.0301,4.0301,4.0128,4.0137,4.0301,4.0147,4.0118,4.0301,4.0301,4.0225,4.0038,4.0038,4.0038,4.0038,4.0038,4.0147,0.0,3.484,3.4935,3.4935,3.4802,3.4655,3.458,3.4371,0.0,3.4197,3.4245,3.433,3.446,3.6398,3.832,3.9317,4.1528,4.3482,4.455,4.5546,4.6197,4.6347,4.6522,4.6336,4.5593,4.57,4.5807,4.5807,4.5749,4.5355,4.4555,4.3692,4.2802,4.1932,4.0825,4.033,4.0512,4.0512,4.0512,4.0512,4.0713,4.0797,4.0797,4.0797,4.0797,4.0797,4.0797,4.0797,4.0797,4.0808,4.0794,4.0794,4.0725,4.0688,4.0694,4.0621,4.0559,4.0511,4.0574,4.0588,4.0588,4.0595,4.0614,4.0602,4.0602,4.0523,4.0414,4.0414,4.0368,4.0319,4.0319,4.031,4.0301,4.031,4.031,4.0301,4.0301,4.0301,4.032,4.0301,4.0301,4.0301,4.0301,4.0301,4.0301,4.0301,4.0301,4.0301,4.0301,4.0301,4.0301,4.0301,4.0301,4.0301,4.0301,4.0301,4.0301,4.0301,4.0301,4.0301,4.0301,4.0301,4.0301,4.0301,4.0301,4.0301,4.0301,4.0301,4.0301,4.0301,4.0301,4.0301,3.208,0.0,3.437,3.4314,3.4794,3.5118,0.0,3.4257,3.4197,3.4197,3.4209,3.4612,3.5894,3.6632,3.7731,3.989,4.1432,4.2919,4.4481,4.5821,4.6465,4.5992,4.597,4.5935,4.5749,4.5766,4.5807,4.5807,4.5239,4.4504,4.3653,4.2783,4.1932,4.1106,4.0809,4.0673,4.0726,4.0726,4.0726,4.0726,4.0778,4.0797,4.0797,4.0797,4.0797,4.0797,4.0797,4.0797,4.0797,4.0808,4.0794,4.0788,4.0733,4.0707,4.0687,4.0576,4.0519,4.0492,4.0511,4.0526,4.0526,4.0581,4.0668,4.0745,4.0745,4.0655,4.0552,4.0552,4.0549,4.0527,4.0527,4.0457,4.04,4.0504,4.0449,4.0375,4.0375,4.0375,4.036,4.031,4.0301,4.0301,4.0301,4.0301,4.0301,4.0301,4.0301,4.0301,4.0301,4.0301,4.0301,4.0301,4.0301,4.0301,4.0301,4.0301,4.0301,4.0301,4.0301,4.0301,4.0301,4.0301,4.0301,4.0301,4.0301,4.0301,4.0301,4.0301,4.0301,4.0301,4.0301,4.0301,3.1229,3.2847,3.4185,3.4148,3.4829,3.538,3.4903,3.4494,3.4197,3.4197,3.4197,3.4587,3.5919,3.7168,3.8525,4.0202,4.21,4.3784,4.4908,4.5803,4.6213,4.5831,4.5807,4.5807,4.5807,4.5471,4.5258,4.5258,4.4485,4.3614,4.2744,4.226,4.1622,4.0835,4.0797,4.0797,4.0797,4.0797,4.0797,4.0797,4.0797,4.0797,4.0797,4.0797,4.0797,4.0816,4.1184,4.1351,4.1377,4.1776,4.1705,4.1357,4.1332,4.1107,4.0739,4.0662,4.0641,4.0635,4.0662,4.0675,4.0681,4.0687,4.075,4.0859,4.0859,4.0806,4.0719,4.0688,4.0648,4.0595,4.0595,4.0545,4.0508,4.0581,4.0545,4.0492,4.0492,4.0492,4.0477,4.0444,4.0396,4.0344,4.0344,4.0344,4.0344,4.0344,4.0405,4.0447,4.0447,4.0447,4.0402,4.0353,4.0344,4.0317,4.031,4.0301,4.0301,4.0301,4.0301,4.0301,4.0301,4.0301,4.0301,4.0301,4.0301,4.0301,4.0301,4.0301,4.0301,4.0301,4.0301,4.0301,3.1017,3.2804,3.4179,3.4173,3.494,3.5621,3.5361,0.0,0.0,0.0,0.0,0.0,3.5727,3.7891,3.9765,4.0565,4.2989,4.4944,4.5456,4.5695,4.5803,4.58,4.5691,4.5633,4.5633,4.4871,4.44,4.44,4.3595,4.2783,4.2048,4.1874,4.1506,4.0816,4.0797,4.0797,4.0797,4.0797,4.0797,4.0797,4.0797,4.0797,4.0797,4.0797,4.0797,4.0835,4.1641,4.2009,4.2067,4.2937,4.286,4.2183,4.2112,4.1628,4.0977,4.0856,4.0798,4.082,4.087,4.0872,4.0872,4.0812,4.0842,4.0897,4.0902,4.0902,4.0892,4.0823,4.0732,4.0655,4.0662,4.0648,4.0622,4.0636,4.0648,4.0635,4.0635,4.0635,4.0609,4.0595,4.0508,4.0438,4.0438,4.0438,4.0438,4.0438,4.053,4.0595,4.0595,4.0595,4.0552,4.0446,4.0438,4.0408,4.0345,4.0328,4.0319,4.0319,4.032,4.0291,4.0319,4.032,4.0291,4.0319,4.032,4.0301,4.0301,4.0301,4.0301,4.0301,4.0301,4.0301,3.0974,3.2704,3.4033,3.4092,3.533,3.6142,3.4729,3.429,0.0,0.0,0.0,0.0,3.7553,3.8751,4.0057,4.1742,4.321,4.4509,4.5508,4.575,4.5803,4.58,4.52,4.4775,4.4775,4.402,4.3498,4.3498,4.2686,4.2144,4.2009,4.1351,4.0932,4.0797,4.0797,4.0797,4.0797,4.0797,4.0797,4.0797,4.0797,4.0797,4.0797,4.0797,4.0797,4.0835,4.1641,4.2009,4.2067,4.2937,4.3227,4.3034,4.2306,4.1938,4.1719,4.1054,4.0809,4.0809,4.082,4.0829,4.0812,4.0807,4.0812,4.0837,4.0877,4.0902,4.0902,4.0892,4.0862,4.0856,4.0844,4.0815,4.0775,4.0833,4.0815,4.0776,4.0776,4.0776,4.0732,4.0628,4.0581,4.0566,4.0566,4.0566,4.0566,4.0566,4.0581,4.0595,4.0595,4.0595,4.0588,4.0566,4.0566,4.0579,4.0557,4.0457,4.0372,4.0372,4.0336,4.0318,4.0383,4.0336,4.0327,4.0392,4.0327,4.0301,4.0301,4.0301,4.0301,4.0301,4.0301,4.0301,3.0264,3.1904,3.3418,3.3913,3.5692,3.7098,3.6357,3.585,3.5535,0.0,0.0,0.0,3.8558,3.9428,4.076,4.3624,4.4401,4.4892,4.5599,4.531,4.5078,4.5135,4.4407,4.3904,4.3904,4.3111,4.2609,4.2609,4.1816,4.1351,4.1351,4.1009,4.0797,4.0797,4.0797,4.0797,4.0797,4.0797,4.0797,4.0797,4.0797,4.0797,4.0797,4.0797,4.0797,4.0874,4.2144,4.2705,4.2802,4.4117,4.4388,4.3962,4.3556,4.3131,4.2609,4.1757,4.1461,4.1434,4.097,4.1104,4.1496,4.1459,4.1774,4.216,4.2191,4.1898,4.156,4.156,4.1232,4.0908,4.0903,4.0888,4.0863,4.0898,4.0878,4.0853,4.0853,4.0853,4.0842,4.0765,4.0732,4.0713,4.0713,4.0713,4.0713,4.0713,4.1131,4.1457,4.1457,4.1883,4.2136,4.2067,4.206,4.2034,4.2017,4.194,4.1462,4.0419,4.0362,4.0377,4.0397,4.0433,4.0484,4.0508,4.0473,4.046,4.046,4.046,4.046,4.046,4.046,4.046,2.9971,3.106,3.2276,3.4089,3.5917,3.7317,3.7376,3.7039,3.6694,3.6699,0.0,3.6658,3.8496,4.0019,4.1873,4.458,4.4997,4.5007,4.5081,4.4535,4.416,4.4271,4.3511,4.2995,4.2995,4.2222,4.1719,4.1719,4.1145,4.0797,4.0797,4.0797,4.0797,4.0797,4.0797,4.0797,4.0797,4.0797,4.0797,4.0797,4.0797,4.0797,4.0797,4.0797,4.0797,4.0874,4.2357,4.3111,4.3421,4.491,4.5278,4.4871,4.4671,4.4078,4.3227,4.255,4.2331,4.2292,4.1615,4.1815,4.237,4.2325,4.2763,4.3305,4.3298,4.2871,4.2385,4.2385,4.1953,4.1446,4.1256,4.1199,4.1199,4.1199,4.1043,4.0907,4.0907,4.0907,4.0907,4.0907,4.0858,4.0887,4.1081,4.112,4.1197,4.1391,4.2033,4.25,4.25,4.3083,4.3465,4.3366,4.334,4.3304,4.3225,4.3211,4.2583,4.1069,4.0839,4.0673,4.0492,4.0559,4.0602,4.0648,4.0628,4.0595,4.0595,4.0595,4.0595,4.0595,4.0595,4.0595,3.0917,3.0401,3.0368,3.4986,3.598,3.5853,3.5866,3.6289,3.6702,3.6712,3.6659,3.67,3.6873,4.0591,4.3542,4.3329,4.3885,4.4105,4.34,4.3285,4.3291,4.3296,4.2589,4.2086,4.2086,4.1351,4.0893,4.0893,4.0835,4.0797,4.0797,4.0797,4.0797,4.0797,4.0797,4.0797,4.0797,4.0797,4.0797,4.0797,4.0797,4.0797,4.0797,4.0797,4.0797,4.0855,4.1719,4.255,4.3363,4.4311,4.5084,4.5652,4.4891,4.4078,4.3285,4.3227,4.3208,4.3208,4.315,4.3169,4.3208,4.3208,4.3247,4.3292,4.3305,4.3259,4.3208,4.3208,4.3226,4.3042,4.2299,4.2111,4.2116,4.2116,4.149,4.0907,4.0907,4.0907,4.0907,4.0907,4.0903,4.115,4.1951,4.2107,4.2379,4.3189,4.3369,4.3413,4.3413,4.3466,4.3505,4.3481,4.3481,4.343,4.331,4.3279,4.3215,4.2999,4.2239,4.1491,4.079,4.0662,4.0655,4.0782,4.0662,4.0595,4.0595,4.0595,4.0595,4.0595,4.0595,4.0595,2.8768,2.8966,2.9683,3.2547,3.389,0.0,0.0,3.7285,3.8182,3.8191,3.8183,3.828,3.8561,4.1237,4.3344,4.3135,4.3355,4.3448,4.3142,4.268,4.2416,4.2451,4.1738,4.1255,4.1255,4.099,4.0797,4.0797,4.0797,4.0797,4.0797,4.0797,4.0797,4.0797,4.0797,4.0797,4.0797,4.0797,4.0797,4.0797,4.0797,4.0797,4.0797,4.0797,4.0797,4.0835,4.1641,4.2492,4.3363,4.4246,4.5065,4.5729,4.491,4.44,4.4033,4.3498,4.3634,4.404,4.3498,4.3653,4.411,4.411,4.4446,4.4859,4.4853,4.4499,4.4105,4.4105,4.4156,4.3999,4.3102,4.2505,4.2274,4.2812,4.1867,4.0999,4.1577,4.1272,4.1063,4.1607,4.1704,4.1995,4.2869,4.3005,4.3122,4.3447,4.3957,4.4307,4.4307,4.4753,4.5045,4.5045,4.5045,4.5034,4.4988,4.4982,4.4758,4.4238,4.3305,4.2647,4.2375,4.1875,4.1613,4.1678,4.1084,4.0796,4.0796,4.0796,4.0796,4.0796,4.1344,4.1596,2.7715,2.8655,3.0458,3.3048,0.0,0.0,3.7096,3.8271,3.9185,3.948,3.9527,3.963,3.9967,4.126,4.2279,4.2288,4.2508,4.2593,4.2317,4.1824,4.1521,4.1549,4.1113,4.0797,4.0797,4.0797,4.0797,4.0797,4.0797,4.0797,4.0797,4.0797,4.0797,4.0797,4.0797,4.0797,4.0797,4.0797,4.0797,4.0797,4.0814,4.0837,4.0837,4.0837,4.0837,4.0856,4.1412,4.2279,4.3343,4.3943,4.4833,4.5749,4.5181,4.4987,4.491,4.4311,4.4465,4.4891,4.4291,4.4485,4.4987,4.4987,4.5355,4.5807,4.5807,4.5414,4.4983,4.4975,4.5002,4.4899,4.426,4.3504,4.2997,4.3313,4.2485,4.1793,4.2435,4.2135,4.1893,4.2495,4.2617,4.2889,4.3763,4.3918,4.3996,4.4248,4.4792,4.5181,4.5181,4.5672,4.6002,4.6002,4.6002,4.6002,4.6002,4.6002,4.5769,4.52,4.453,4.3914,4.3391,4.2883,4.2617,4.2617,4.2015,4.1723,4.1723,4.1723,4.1723,4.1743,4.2325,4.2617,2.8488,2.9854,3.2762,3.7506,3.8808,3.8915,3.8906,3.9022,3.9378,4.0315,4.0511,4.0507,4.0491,4.0504,4.05,4.0503,4.1219,4.1489,4.0631,4.0564,4.0595,4.0595,4.0713,4.0797,4.0797,4.0797,4.0797,4.0797,4.0797,4.0797,4.0797,4.0797,4.0797,4.0797,4.0797,4.0797,4.0797,4.0797,4.0797,4.0803,4.0877,4.0907,4.0907,4.0907,4.0907,4.0907,4.0907,4.1812,4.3305,4.3324,4.4291,4.5787,4.5787,4.5787,4.5787,4.5787,4.5787,4.5807,4.5807,4.5807,4.5807,4.5807,4.5807,4.5807,4.5807,4.5807,4.5807,4.5807,4.5807,4.5807,4.5787,4.5254,4.4496,4.3627,4.3405,4.3405,4.3405,4.3465,4.3505,4.3505,4.3505,4.3802,4.4656,4.4812,4.5084,4.5885,4.6002,4.6002,4.6002,4.6002,4.6002,4.6002,4.6002,4.6002,4.6002,4.6002,4.6002,4.6002,4.6002,4.5258,4.3583,4.3525,4.3505,4.3505,4.3505,4.3505,4.3505,4.3505,4.3505,4.3505,4.3505,4.3505,3.1526,3.2612,3.4084,3.8003,3.9509,3.9848,3.9197,3.9335,0.0,4.0376,4.049,4.0492,4.0495,4.0507,4.0502,4.0508,4.0727,4.0804,4.0535,4.0564,4.0595,4.0595,4.0713,4.0797,4.0797,4.0797,4.0797,4.0797,4.0797,4.0797,4.0797,4.0797,4.0797,4.0797,4.0859,4.0863,4.0863,4.0911,4.0945,4.0945,4.0968,4.0949,4.0907,4.0953,4.0979,4.0995,4.1513,4.2359,4.346,4.4583,4.5026,4.4968,4.4968,4.4968,4.4968,4.4968,4.5316,4.5807,4.5807,4.5807,4.5807,4.5807,4.5807,4.5807,4.5807,4.5807,4.5807,4.5807,4.5807,4.5671,4.5099,4.5254,4.5461,4.5157,4.4221,4.3567,4.4186,4.3848,4.3618,4.4302,4.4404,4.4676,4.5491,4.5633,4.573,4.5963,4.6002,4.6002,4.6002,4.6002,4.6002,4.6002,4.6002,4.6002,4.6002,4.6002,4.6002,4.6002,4.6002,4.5788,4.5278,4.4715,4.4404,4.4404,4.3821,4.3505,4.3505,4.3505,4.3505,4.3505,4.4132,4.4404,3.2066,3.3234,3.4557,3.7366,3.8515,3.9064,3.9323,3.9751,4.0165,4.0444,4.0507,4.049,4.05,4.0496,4.0496,4.0496,4.0496,4.0496,4.0496,4.0564,4.0595,4.0595,4.0713,4.0797,4.0797,4.0797,4.0797,4.0797,4.0797,4.0815,4.0848,4.0848,4.0851,4.0873,4.0915,4.0941,4.0941,4.097,4.099,4.099,4.1037,4.1011,4.0974,4.1014,4.105,4.1103,4.2183,4.3136,4.4019,4.5336,4.5564,4.5084,4.5084,4.5084,4.5084,4.5084,4.5374,4.5814,4.5848,4.5835,4.5801,4.5896,4.5891,4.588,4.5908,4.5891,4.5886,4.5886,4.5886,4.5764,4.5221,4.5518,4.584,4.5415,4.4847,4.4549,4.5072,4.4761,4.4572,4.5151,4.5273,4.5423,4.5919,4.6002,4.6002,4.6002,4.6002,4.6002,4.6002,4.6002,4.6002,4.6002,4.6002,4.6002,4.6002,4.6002,4.6002,4.6002,4.6002,4.6002,4.6002,4.553,4.5278,4.5278,4.4753,4.4481,4.4481,4.4481,4.4481,4.4501,4.5025,4.5278,3.1176,3.2573,3.4491,3.636,3.6916,3.7506,3.9433,4.0194,4.049,4.049,4.0507,4.0496,4.0496,4.0496,4.0496,4.0496,4.0496,4.0496,4.0516,4.0564,4.0595,4.0614,4.0713,4.0797,4.0797,4.0803,4.0815,4.0815,4.0802,4.084,4.0917,4.0902,4.0941,4.101,4.1016,4.1,4.1,4.1025,4.1028,4.1028,4.1078,4.1114,4.1114,4.1114,4.1189,4.1418,4.288,4.4001,4.4885,4.5672,4.5935,4.5821,4.5787,4.5807,4.5807,4.5801,4.5827,4.5848,4.5956,4.5927,4.5867,4.6033,4.6067,4.6013,4.608,4.6067,4.6017,4.6017,4.6017,4.5972,4.5861,4.5908,4.5784,4.4942,4.5331,4.5905,4.5905,4.5905,4.5923,4.5986,4.5994,4.6003,4.5997,4.6002,4.6002,4.6012,4.6007,4.6002,4.6012,4.6007,4.6002,4.6002,4.6002,4.6002,4.6002,4.6002,4.6002,4.6002,4.6002,4.6002,4.6002,4.6002,4.6002,4.6002,4.6002,4.6002,4.6002,4.6002,4.6002,4.6002,4.6002,4.6002,3.3272,3.409,3.5257,3.8515,3.9351,3.9538,4.02,4.0422,4.0499,4.0499,4.0492,4.0496,4.0496,4.0496,4.0496,4.0496,4.0496,4.0523,4.0573,4.0579,4.0621,4.0668,4.0746,4.0797,4.0797,4.0846,4.0873,4.0873,4.0924,4.0953,4.0986,4.099,4.0997,4.099,4.1057,4.1078,4.1078,4.1121,4.1167,4.1167,4.117,4.1171,4.1171,4.1171,4.1868,4.3077,4.3439,4.4421,4.5815,4.594,4.5986,4.5953,4.5848,4.5807,4.5821,4.5929,4.5964,4.5961,4.6044,4.6064,4.6033,4.6087,4.6087,4.6076,4.6095,4.6087,4.6076,4.6076,4.6076,4.6072,4.6033,4.6026,4.5954,4.5814,4.5836,4.5912,4.5912,4.5912,4.5912,4.5991,4.6003,4.6003,4.5997,4.6002,4.6027,4.6064,4.6032,4.6013,4.6064,4.6032,4.6002,4.6002,4.6002,4.6002,4.6002,4.6002,4.6002,4.6002,4.6002,4.6002,4.6002,4.6002,4.6002,4.6002,4.6002,4.6002,4.6002,4.6002,4.6002,4.6002,4.6002,4.6002,3.3407,3.5079,3.6994,3.963,4.0281,4.0326,4.0473,4.0496,4.0496,4.0496,4.0496,4.0496,4.0496,4.0496,4.0496,4.0496,4.0531,4.0576,4.0641,4.0681,4.0723,4.0795,4.0845,4.0903,4.0903,4.0928,4.0953,4.0953,4.097,4.1006,4.1054,4.1054,4.1066,4.1085,4.1121,4.1146,4.1146,4.1171,4.1191,4.1191,4.1191,4.1406,4.1777,4.1777,4.246,4.3663,4.4094,4.4977,4.6145,4.6112,4.6072,4.6046,4.5933,4.5922,4.5952,4.5997,4.6013,4.6067,4.6125,4.6128,4.6112,4.6167,4.6167,4.6153,4.6195,4.6167,4.6147,4.6147,4.6147,4.6139,4.6109,4.6105,4.6109,4.6102,4.6017,4.5953,4.5953,4.5941,4.5949,4.5955,4.5955,4.5964,4.6042,4.6064,4.6109,4.6142,4.6118,4.6095,4.6098,4.6064,4.6036,4.6007,4.6002,4.6002,4.6002,4.6002,4.6002,4.6002,4.6002,4.6002,4.6002,4.6002,4.6002,4.6002,4.6002,4.6002,4.6002,4.6002,4.6002,4.6002,4.6002,4.6002,3.2638,3.555,3.8599,4.011,4.0488,4.0496,4.0496,4.0496,4.0496,4.0496,4.0496,4.0496,4.0496,4.0519,4.0542,4.0523,4.0593,4.0655,4.0732,4.0786,4.0848,4.0905,4.0964,4.099,4.099,4.1003,4.1028,4.1028,4.1037,4.1064,4.1115,4.1116,4.1144,4.1191,4.1191,4.1191,4.1191,4.1191,4.1191,4.1191,4.1191,4.1621,4.2402,4.2558,4.3105,4.3965,4.4687,4.5466,4.621,4.6206,4.6162,4.6112,4.6046,4.6059,4.6095,4.6059,4.6064,4.6128,4.6199,4.6171,4.615,4.6266,4.6265,4.6235,4.6288,4.6265,4.6212,4.6212,4.6212,4.6206,4.6147,4.6162,4.6197,4.6145,4.6072,4.602,4.6022,4.6022,4.5998,4.5956,4.5931,4.5993,4.6096,4.6167,4.6202,4.6191,4.6207,4.6173,4.612,4.6125,4.6091,4.6018,4.6027,4.6003,4.6002,4.6002,4.6002,4.6002,4.6002,4.6002,4.6002,4.6002,4.6002,4.6002,4.6002,4.6002,4.6002,4.6002,4.6002,4.6002,4.6002,4.6002,3.1975,3.5127,3.8442,4.0084,4.05,4.0496,4.0496,4.0496,4.0496,4.0496,4.0496,4.0496,4.0496,4.0588,4.0675,4.0661,4.0726,4.079,4.0859,4.0871,4.0905,4.0987,4.099,4.099,4.099,4.1059,4.1081,4.1081,4.1143,4.1171,4.1191,4.1191,4.1191,4.1191,4.1191,4.1191,4.1191,4.1191,4.1191,4.1191,4.1191,4.1621,4.2422,4.3183,4.4004,4.4824,4.4941,4.5488,4.6288,4.6215,4.6181,4.6171,4.6115,4.6091,4.6105,4.6153,4.6171,4.62,4.6265,4.6288,4.6287,4.6289,4.6289,4.6289,4.6308,4.6289,4.6289,4.6289,4.6289,4.6288,4.6287,4.6239,4.6209,4.6265,4.6215,4.6158,4.6102,4.6087,4.6087,4.6079,4.6115,4.6173,4.6175,4.6184,4.6204,4.6209,4.62,4.6192,4.6189,4.6194,4.6158,4.6091,4.6084,4.6056,4.6007,4.6002,4.6002,4.6002,4.6002,4.6002,4.6002,4.6002,4.6002,4.6002,4.6002,4.6002,4.6002,4.6002,4.6002,4.6002,4.6002,4.6002,3.3827,3.623,3.8392,4.0073,4.0496,4.0496,4.0496,4.0559,4.061,4.061,4.0629,4.0665,4.061,4.0696,4.0767,4.0757,4.0812,4.0886,4.0959,4.0991,4.1046,4.1091,4.1114,4.1114,4.1114,4.1143,4.1167,4.1167,4.1171,4.1191,4.1191,4.1191,4.1191,4.1191,4.1191,4.1191,4.1191,4.1191,4.1191,4.1191,4.1191,4.1875,4.3144,4.3535,4.418,4.5039,4.5527,4.5957,4.6308,4.6267,4.6264,4.6243,4.6173,4.6171,4.6209,4.6204,4.6215,4.6265,4.6289,4.6308,4.6308,4.6308,4.6308,4.6308,4.6308,4.6308,4.6308,4.6308,4.6308,4.6308,4.6308,4.6288,4.6265,4.6289,4.6288,4.6242,4.6212,4.6173,4.6147,4.6111,4.6158,4.62,4.6191,4.6223,4.6425,4.691,4.6972,4.7148,4.7598,4.7655,4.7625,4.7569,4.7565,4.7535,4.7528,4.7073,4.6772,4.6772,4.629,4.6002,4.6002,4.6002,4.6002,4.6002,4.6002,4.6002,4.6002,4.6002,4.6002,4.6002,4.6002,4.6002,3.4859,3.655,3.7815,3.9727,4.0342,4.0512,4.0537,4.063,4.0709,4.0729,4.0784,4.0832,4.0786,4.082,4.085,4.0854,4.0902,4.1052,4.1322,4.1409,4.1536,4.1797,4.1641,4.1504,4.1504,4.1328,4.1191,4.1191,4.1191,4.1191,4.1191,4.1191,4.1191,4.1191,4.1191,4.1191,4.1191,4.1191,4.1191,4.1191,4.1191,4.207,4.3691,4.3691,4.4297,4.5371,4.6016,4.6308,4.6308,4.6308,4.6308,4.6308,4.6242,4.6264,4.6289,4.6241,4.6264,4.6308,4.6308,4.6308,4.6308,4.6308,4.6308,4.6308,4.6308,4.6308,4.6308,4.6308,4.6308,4.6308,4.6308,4.6308,4.6308,4.6308,4.6308,4.6308,4.6308,4.6265,4.621,4.6169,4.6365,4.6555,4.6559,4.6777,4.718,4.7838,4.7933,4.8151,4.8748,4.8806,4.8789,4.8721,4.8737,4.8715,4.8708,4.8091,4.7635,4.7418,4.6742,4.6264,4.6022,4.6022,4.6027,4.6002,4.6002,4.6002,4.6002,4.6002,4.6002,4.6002,4.6002,4.6017,3.3489,3.4805,3.6231,3.8738,3.9938,4.0523,4.0655,4.0692,4.0718,4.0788,4.0905,4.099,4.0988,4.0981,4.0981,4.099,4.1059,4.1384,4.2207,4.2324,4.2637,4.3476,4.2832,4.2344,4.2344,4.1641,4.1191,4.1191,4.1191,4.1191,4.1191,4.1191,4.1191,4.1191,4.1191,4.1191,4.1191,4.1191,4.1191,4.1191,4.1191,4.207,4.3691,4.3691,4.4629,4.623,4.6289,4.6308,4.6308,4.6308,4.6308,4.6308,4.6308,4.6308,4.6308,4.6308,4.6308,4.6308,4.6308,4.6308,4.6308,4.6308,4.6308,4.6308,4.6308,4.6308,4.6308,4.6308,4.6308,4.6308,4.6308,4.6308,4.6308,4.6308,4.6308,4.6308,4.6308,4.6308,4.6289,4.6289,4.6953,4.7539,4.7538,4.8221,4.8786,4.8821,4.8835,4.885,4.8891,4.8846,4.8793,4.8808,4.8789,4.8768,4.8709,4.8667,4.8273,4.7451,4.735,4.696,4.6137,4.6095,4.6056,4.6002,4.6002,4.6002,4.6002,4.6002,4.6002,4.6002,4.6002,4.6032,3.3695,3.4377,3.5284,3.7881,3.8769,3.9327,4.05,4.0824,4.0909,4.0917,4.1048,4.1128,4.1128,4.1126,4.1126,4.1127,4.1151,4.1445,4.2285,4.2402,4.2715,4.3594,4.3418,4.3223,4.3223,4.2461,4.1973,4.1973,4.1484,4.1191,4.1191,4.1191,4.1191,4.1191,4.1191,4.1191,4.1191,4.1191,4.1191,4.1191,4.1191,4.207,4.3691,4.3691,4.4648,4.6308,4.6308,4.6308,4.6308,4.6308,4.6308,4.6308,4.6308,4.6308,4.6308,4.6308,4.6308,4.6308,4.6308,4.6308,4.6308,4.6308,4.6308,4.6308,4.6308,4.6308,4.6308,4.6308,4.6308,4.6308,4.6308,4.6308,4.6308,4.6308,4.6308,4.6445,4.7012,4.6699,4.6465,4.7031,4.7383,4.7773,4.834,4.8691,4.9081,4.9646,4.9722,4.9915,5.0439,5.0472,5.0471,5.046,5.0477,5.0458,5.0425,4.9922,4.9236,4.8356,4.7739,4.7036,4.6199,4.616,4.6134,4.608,4.6056,4.6046,4.6002,4.6002,4.6002,4.6002,4.6002,4.6036,3.351,3.3763,3.4379,3.698,3.7914,3.866,4.039,4.0902,4.1,4.1054,4.1149,4.1191,4.1191,4.1191,4.1191,4.1191,4.1426,4.1894,4.2715,4.3086,4.3594,4.4473,4.4316,4.4141,4.4141,4.3359,4.2715,4.2422,4.1894,4.1484,4.1211,4.1191,4.1191,4.1191,4.1191,4.1191,4.1191,4.1191,4.1191,4.1191,4.1191,4.1914,4.3262,4.3574,4.4492,4.5879,4.6172,4.6308,4.6308,4.6308,4.6308,4.6308,4.6308,4.6308,4.6308,4.6308,4.6308,4.6308,4.6308,4.6308,4.6308,4.6308,4.6308,4.6308,4.6308,4.6308,4.6308,4.6308,4.6308,4.6308,4.6308,4.6308,4.6308,4.6308,4.6523,4.6894,4.7461,4.7148,4.6992,4.7871,4.8262,4.8652,4.9238,4.9551,4.9941,5.0527,5.0604,5.0798,5.1323,5.1396,5.1393,5.1393,5.1405,5.14,5.14,5.0868,5.0035,4.8863,4.8203,4.7378,4.6257,4.6199,4.6184,4.6137,4.6134,4.6112,4.606,4.605,4.6032,4.6036,4.6067,4.6082,0.0,0.0,0.0,3.5949,3.7333,3.8515,4.0314,4.0833,4.0971,4.1152,4.1191,4.1191,4.1191,4.1211,4.123,4.123,4.1894,4.2695,4.3574,4.4453,4.5312,4.6191,4.5547,4.5039,4.5039,4.4258,4.3379,4.25,4.2402,4.2051,4.123,4.1191,4.1191,4.1191,4.1191,4.1191,4.1191,4.1191,4.1191,4.1191,4.1191,4.1621,4.2422,4.3281,4.4141,4.5058,4.5898,4.6289,4.6308,4.6308,4.6308,4.6308,4.6308,4.6308,4.6308,4.6308,4.6308,4.6308,4.6308,4.6308,4.6308,4.6308,4.6308,4.6308,4.6308,4.6308,4.6308,4.6308,4.6308,4.6308,4.6308,4.6308,4.6308,4.6308,4.6973,4.7617,4.7637,4.7656,4.793,4.8769,4.9629,5.0215,5.0234,5.0879,5.1406,5.1406,5.1406,5.1405,5.1405,5.1402,5.1398,5.1398,5.1394,5.1409,5.1409,5.1402,5.0653,4.8915,4.8798,4.8012,4.6269,4.6191,4.6209,4.6206,4.6204,4.6204,4.6202,4.6134,4.6102,4.6105,4.6165,4.62,3.2458,0.0,0.0,0.0,0.0,0.0,3.8441,3.9192,3.9625,4.0937,4.1191,4.1191,4.1191,4.168,4.207,4.207,4.2246,4.2695,4.3574,4.4453,4.5312,4.6191,4.6094,4.5937,4.5937,4.5156,4.4277,4.3418,4.2754,4.2051,4.123,4.1191,4.1191,4.1191,4.1191,4.1191,4.1191,4.1191,4.1191,4.1191,4.1191,4.1621,4.2402,4.2656,4.3574,4.5019,4.5254,4.5723,4.6308,4.6308,4.6308,4.6308,4.6308,4.6308,4.6308,4.6308,4.6308,4.6308,4.6308,4.6308,4.6308,4.6308,4.6308,4.6308,4.6308,4.6308,4.6308,4.6308,4.6308,4.6308,4.6308,4.6308,4.6308,4.6308,4.6973,4.7773,4.8398,4.9043,4.9551,4.9785,5.0039,5.0371,5.0976,5.125,5.1406,5.1406,5.1406,5.1406,5.1406,5.1405,5.1403,5.1403,5.1399,5.1395,5.1409,5.1407,5.0661,4.8915,4.8798,4.8042,4.6333,4.6274,4.6245,4.6209,4.6209,4.6204,4.6202,4.6171,4.6165,4.6167,4.6181,4.619,3.233,3.1682,3.1328,3.3461,0.0,0.0,3.8155,3.8759,3.9058,4.084,4.1191,4.1308,4.1641,4.1816,4.2129,4.2832,4.2949,4.3242,4.4121,4.498,4.5723,4.623,4.6308,4.6308,4.6308,4.584,4.5176,4.4316,4.3437,4.2422,4.1269,4.1191,4.1191,4.1191,4.1191,4.1191,4.1191,4.1191,4.1191,4.1191,4.1191,4.1445,4.1914,4.2246,4.3144,4.4473,4.4844,4.5488,4.6308,4.6308,4.6308,4.6308,4.6308,4.6308,4.6308,4.6308,4.6308,4.6308,4.6308,4.6308,4.6308,4.6308,4.6308,4.6308,4.6308,4.6308,4.6308,4.6308,4.6308,4.6308,4.6308,4.6308,4.6308,4.6308,4.7246,4.8281,4.8789,4.9844,5.0703,5.0703,5.0703,5.0859,5.1328,5.1406,5.1406,5.1406,5.1406,5.1406,5.1406,5.1406,5.1406,5.1406,5.1404,5.1264,5.093,5.0865,5.0137,4.8413,4.8293,4.7705,4.6358,4.63,4.627,4.6245,4.6245,4.6249,4.6249,4.6205,4.6205,4.6249,4.6249,4.6245,3.243,3.2031,0.0,3.435,3.4648,0.0,3.8455,3.8758,3.885,4.0683,4.1055,4.1308,4.2129,4.1836,4.1933,4.332,4.3808,4.4238,4.4902,4.5742,4.6308,4.6308,4.6308,4.6308,4.6308,4.6308,4.5937,4.5078,4.4101,4.291,4.1406,4.125,4.1191,4.1191,4.1191,4.1191,4.1191,4.1191,4.1191,4.1191,4.1191,4.1191,4.1211,4.1933,4.2793,4.373,4.4512,4.541,4.6308,4.6308,4.6308,4.6308,4.6308,4.6308,4.6308,4.6308,4.6308,4.6308,4.6308,4.6308,4.6308,4.6308,4.6308,4.6308,4.6308,4.6308,4.6308,4.6308,4.6308,4.6308,4.6308,4.6308,4.6308,4.6308,4.7637,4.8906,4.8906,5.0215,5.1406,5.1406,5.1406,5.1406,5.1406,5.1406,5.1406,5.1406,5.1406,5.1406,5.1406,5.1406,5.1406,5.1406,5.1406,5.1112,5.0389,5.0207,4.9437,4.7834,4.7652,4.7219,4.6339,4.6302,4.6302,4.63,4.63,4.63,4.63,4.6245,4.6245,4.63,4.63,4.63,3.2932,3.2747,3.2489,3.2978,3.3718,0.0,3.6199,3.6969,3.7897,3.9765,4.0156,4.043,4.1289,4.2402,4.3086,4.2715,4.4414,4.5605,4.5078,4.5742,4.6308,4.6308,4.6308,4.6308,4.6308,4.6308,4.5937,4.5078,4.3535,4.2519,4.2187,4.1543,4.1191,4.1191,4.1191,4.1191,4.1191,4.1191,4.1191,4.1191,4.1191,4.1191,4.1211,4.1367,4.2266,4.3711,4.3887,4.4844,4.6308,4.6308,4.6308,4.6308,4.6308,4.6308,4.6308,4.6308,4.6308,4.6308,4.6308,4.6308,4.6308,4.6308,4.6308,4.6308,4.6308,4.6308,4.6308,4.6308,4.6308,4.6308,4.6308,4.6308,4.6308,4.6308,4.7637,4.8906,4.8906,5.0215,5.1406,5.1406,5.1406,5.1406,5.1406,5.1406,5.1406,5.1406,5.1406,5.1406,5.1406,5.1406,5.1406,5.1406,5.1406,5.1347,5.117,5.0564,4.9721,4.8636,4.7955,4.721,4.6341,4.6306,4.6308,4.63,4.63,4.63,4.63,4.6287,4.6287,4.63,4.63,4.63,3.315,3.3048,3.3163,3.4115,3.455,0.0,0.0,3.7642,3.8195,4.0103,4.0502,4.064,4.1113,4.1523,4.1933,4.2344,4.3496,4.4355,4.4355,4.5488,4.6308,4.6308,4.6308,4.6308,4.6308,4.6308,4.5937,4.5078,4.4199,4.332,4.2441,4.2012,4.1601,4.1211,4.1191,4.1191,4.1191,4.1191,4.1191,4.1191,4.1191,4.1191,4.1191,4.1191,4.1875,4.3086,4.3516,4.4433,4.5683,4.6113,4.6308,4.6308,4.6308,4.6308,4.6308,4.6308,4.6308,4.6308,4.6308,4.6308,4.6308,4.6308,4.6308,4.6308,4.6308,4.6308,4.6308,4.6308,4.6308,4.6308,4.6308,4.6621,4.6953,4.6953,4.8281,4.9551,4.9551,5.0527,5.1406,5.1406,5.1406,5.1406,5.1406,5.1406,5.1406,5.1406,5.1406,5.1406,5.1406,5.1406,5.1406,5.1406,5.1406,5.123,5.0839,5.0038,4.9177,4.8254,4.7415,4.6767,4.6312,4.6293,4.6309,4.63,4.63,4.63,4.63,4.63,4.63,4.63,4.63,4.63,3.3568,3.3522,3.4084,3.585,3.5969,3.6297,0.0,0.0,0.0,4.0489,4.083,4.0921,4.1131,4.0625,4.0586,4.1953,4.2305,4.2656,4.3359,4.4941,4.6055,4.6055,4.6191,4.6308,4.6308,4.6308,4.6016,4.5293,4.5098,4.4394,4.2988,4.2578,4.2109,4.1445,4.1289,4.1191,4.1191,4.1191,4.1191,4.1191,4.1191,4.1191,4.1191,4.1191,4.1738,4.2695,4.3398,4.4297,4.5293,4.6016,4.6308,4.6308,4.6308,4.6308,4.6308,4.6308,4.6308,4.6308,4.6308,4.6308,4.6308,4.6308,4.6308,4.6308,4.6308,4.6308,4.6308,4.6308,4.6308,4.6348,4.6504,4.707,4.7637,4.7812,4.9043,5.0195,5.0195,5.082,5.1406,5.1406,5.1406,5.1406,5.1406,5.1406,5.1406,5.1406,5.1406,5.1406,5.1406,5.1406,5.1406,5.1406,5.1406,5.1133,5.0488,4.9492,4.8592,4.7889,4.6872,4.6303,4.6301,4.6295,4.6308,4.6303,4.6302,4.63,4.63,4.63,4.63,4.63,4.63,4.63,3.48,3.4821,3.5293,3.6595,3.7164,3.7521,3.7894,0.0,3.9422,3.971,0.0,4.0192,4.0977,0.0,0.0,4.1308,4.1933,4.2422,4.2539,4.4043,4.5156,4.5156,4.582,4.6308,4.6308,4.6308,4.6269,4.6152,4.5449,4.4902,4.4726,4.3242,4.2363,4.2266,4.1562,4.1191,4.1191,4.1191,4.1191,4.1191,4.1191,4.1191,4.1191,4.1191,4.2051,4.3555,4.3652,4.4629,4.6152,4.6269,4.6308,4.6308,4.6308,4.6308,4.6308,4.6308,4.6308,4.6308,4.6308,4.6308,4.6308,4.6308,4.6308,4.6308,4.6308,4.6308,4.6308,4.6308,4.6308,4.6484,4.7246,4.7539,4.7793,4.8574,4.9492,5.0195,5.0195,5.082,5.1406,5.1406,5.1406,5.1406,5.1406,5.1406,5.1406,5.1406,5.1406,5.1406,5.1406,5.1406,5.1406,5.1406,5.1406,5.1367,5.1269,4.9805,4.8867,4.8768,4.7206,4.6307,4.6295,4.6306,4.6305,4.6291,4.6305,4.63,4.63,4.63,4.63,4.63,4.63,4.63,3.4712,3.4757,3.5353,3.6993,3.7363,3.7601,3.8755,3.9482,3.9949,4.0087,0.0,0.0,0.0,0.0,0.0,0.0,4.1152,4.1699,4.1699,4.2734,4.3867,4.4883,4.5762,4.6308,4.6308,4.6308,4.6308,4.6308,4.5957,4.5527,4.5039,4.4316,4.3457,4.2422,4.207,4.168,4.1191,4.1191,4.1191,4.1191,4.1191,4.1191,4.1191,4.1191,4.1582,4.2285,4.2734,4.3652,4.4824,4.5332,4.584,4.6308,4.6308,4.6308,4.6308,4.6308,4.6308,4.6308,4.6308,4.6308,4.6308,4.6308,4.6308,4.6308,4.6308,4.6308,4.6308,4.6308,4.666,4.7148,4.7519,4.8359,4.9199,4.957,5.0293,5.0898,5.0898,5.1152,5.1406,5.1406,5.1406,5.1406,5.1406,5.1406,5.1406,5.1406,5.1406,5.1406,5.1406,5.1406,5.1406,5.1406,5.1406,5.1406,5.1406,4.9863,4.8906,4.8906,4.7734,4.7284,4.7783,4.7818,4.756,4.7066,4.7043,4.6807,4.63,4.63,4.63,4.63,4.63,4.63,3.4552,3.4648,3.5336,3.7275,3.7474,3.7563,3.8977,3.9713,4.0107,4.0092,4.0417,0.0,0.0,0.0,3.9885,4.0173,0.0,4.0937,4.1172,4.1699,4.2617,4.4101,4.5273,4.6035,4.6248,4.6289,4.6308,4.6308,4.6308,4.6016,4.5391,4.5137,4.4414,4.3144,4.2656,4.2129,4.1523,4.1308,4.1191,4.1191,4.1191,4.1191,4.1191,4.1191,4.1328,4.1562,4.2402,4.3242,4.4121,4.5,4.5723,4.6308,4.6308,4.6308,4.6308,4.6308,4.6308,4.6308,4.6308,4.6308,4.6308,4.6308,4.6308,4.6308,4.6308,4.6308,4.6308,4.6308,4.6933,4.7656,4.7891,4.9062,5.0254,5.0488,5.0976,5.1406,5.1406,5.1406,5.1406,5.1406,5.1406,5.1406,5.1406,5.1406,5.1406,5.1406,5.1406,5.1406,5.1406,5.1406,5.1406,5.1406,5.1406,5.1406,5.1406,4.9863,4.8808,4.8555,4.7949,4.7987,4.8863,4.89,4.8602,4.7966,4.7962,4.7648,4.6983,4.6768,4.6653,4.6655,4.6419,4.63,3.4728,3.4942,3.554,3.7426,3.7781,3.7689,3.7758,3.8872,3.9745,3.9169,3.9834,4.0558,4.0736,4.0231,4.0073,0.0,4.0426,0.0,0.0,4.1211,4.1543,4.2383,4.4004,4.535,4.6129,4.6265,4.6308,4.6308,4.6308,4.6289,4.6269,4.5469,4.4961,4.4922,4.3281,4.2383,4.2363,4.1582,4.1191,4.1191,4.1191,4.1191,4.1191,4.1191,4.1621,4.2402,4.3281,4.4141,4.5039,4.5898,4.6269,4.6308,4.6308,4.6308,4.6308,4.6308,4.6308,4.6308,4.6308,4.6308,4.6308,4.6308,4.6308,4.6308,4.6308,4.6308,4.6308,4.6308,4.6933,4.7793,4.8633,4.9531,5.0391,5.1172,5.1387,5.1406,5.1406,5.1406,5.1406,5.1406,5.1406,5.1406,5.1406,5.1406,5.1406,5.1406,5.1406,5.1406,5.1406,5.1406,5.1406,5.1406,5.1406,5.1406,5.1406,4.9863,4.8535,4.7695,4.7616,4.7987,4.8867,4.8903,4.8899,4.8859,4.8853,4.8807,4.872,4.7939,4.7553,4.7541,4.6694,4.63,3.3699,3.4145,3.4955,3.652,3.6412,3.6182,3.726,3.8008,3.8512,3.8521,3.947,4.0354,4.0514,4.05,4.06,0.0,0.0,4.0619,0.0,3.9844,3.9569,3.9793,4.2381,4.4472,4.5329,4.5956,4.6308,4.6308,4.6308,4.6308,4.6308,4.6016,4.5605,4.5019,4.3867,4.2988,4.2402,4.1601,4.1191,4.1191,4.1191,4.1191,4.1191,4.1191,4.1348,4.1621,4.1914,4.2832,4.416,4.4453,4.5254,4.6308,4.6308,4.6308,4.6308,4.6308,4.6308,4.6308,4.6308,4.6308,4.6308,4.6308,4.6308,4.6308,4.6308,4.6308,4.6426,4.6992,4.7793,4.8652,4.9531,5.0371,5.1055,5.1348,5.1406,5.1406,5.1406,5.1406,5.1406,5.1406,5.1406,5.1406,5.1406,5.1406,5.1406,5.1406,5.1406,5.1406,5.1406,5.0937,5.0801,5.1348,5.0918,5.0605,5.0605,4.9551,4.9023,4.9297,4.9316,4.9687,5.0526,5.0545,5.0289,4.9718,4.9694,4.9415,4.8865,4.8548,4.8411,4.8439,4.7572,4.685,3.3023,3.353,3.4277,3.5509,3.5548,3.552,3.6517,3.7307,3.7875,3.8047,3.9074,4.0034,4.03,4.0539,4.0757,0.0,0.0,4.0709,0.0,3.8691,3.8124,3.8074,4.0877,4.3261,4.4391,4.5038,4.5625,4.625,4.6016,4.5976,4.6289,4.6308,4.6035,4.5488,4.4316,4.3437,4.2871,4.1758,4.1191,4.1191,4.1191,4.1191,4.1191,4.1191,4.1191,4.1211,4.1504,4.2422,4.3711,4.4023,4.5019,4.6308,4.6308,4.6308,4.6308,4.6308,4.6308,4.6308,4.6308,4.6308,4.6308,4.6308,4.6308,4.6308,4.6308,4.6308,4.6484,4.7344,4.8223,4.9101,4.9961,5.0801,5.1406,5.1406,5.1406,5.1406,5.1406,5.1406,5.1406,5.1406,5.1406,5.1406,5.1406,5.1406,5.1406,5.1406,5.1406,5.1406,5.1406,5.0957,5.082,5.1348,5.0937,5.0508,5.0215,4.9687,4.9609,5.0156,5.0195,5.0566,5.1367,5.1405,5.1131,5.0561,5.0559,5.0302,4.9792,4.9433,4.914,4.8873,4.8006,4.7126]}]]